[[{"header":{"parameterUnit":"m.s-1","parameterCategory":1,"la1":30.6,"la2":29.2853,"lo1":-89.7004,"lo2":-87.6739,"dy":0.0162,"dx":0.0183,"nx":112,"ny":82,"refTime":"2024-09-12T06:00:00:Z","depth":0,"parameterNumber":2,"parameterNumberName":"U-component_of_WINDS"},"data":[0.0,0.0,0.0,0.0,0.0,0.0,0.0,0.0,0.0,0.0,0.0,0.0,0.0,0.0,0.0,0.0,0.0,0.0,0.0,0.0,0.0,0.0,0.0,0.0,0.0,0.0,0.0,0.0,0.0,0.0,0.0,0.0,0.0,0.0,0.0,0.0,0.0,0.0,0.0,0.0,0.0,0.0,0.0,0.0,0.0,0.0,0.0,0.0,0.0,0.0,0.0,0.0,0.0,0.0,0.0,0.0,0.0,0.0,0.0,0.0,0.0,0.0,0.0,0.0,0.0,0.0,0.0,0.0,0.0,0.0,0.0,0.0,0.0,0.0,0.0,0.0,0.0,0.0,0.0,0.0,0.0,0.0,0.0,0.0,0.0,0.0,0.0,0.0,0.0,0.0,-0.1755,-0.1882,-0.1941,-0.1951,-0.1899,-0.2361,-0.2683,-0.2858,0.0,0.0,0.0,0.0,0.0,0.0,0.0,0.0,0.0,0.0,0.0,0.0,0.0,0.0,0.0,0.0,0.0,0.0,0.0,0.0,0.0,0.0,0.0,0.0,0.0,0.0,0.0,0.0,0.0,0.0,0.0,0.0,0.0,0.0,0.0,0.0,0.0,0.0,0.0,0.0,0.0,0.0,0.0,0.0,0.0,0.0,0.0,0.0,0.0,0.0,0.0,0.0,0.0,0.0,0.0,0.0,0.0,0.0,0.0,0.0,0.0,0.0,0.0,0.0,0.0,0.0,0.0,0.0,0.0,0.0,0.0,0.0,0.0,0.0,0.0,0.0,0.0,0.0,0.0,0.0,0.0,0.0,0.0,0.0,0.0,0.0,0.0,0.0,0.0,0.0,0.0,0.0,0.0,0.0,0.0,0.0,0.0,0.0,0.0,0.0,0.0,0.0,0.0,0.0,-0.1771,-0.194,-0.1966,-0.1969,-0.1959,-0.2392,-0.2659,-0.2711,0.0,0.0,0.0,0.0,0.0,0.0,0.0,0.0,0.0,0.0,0.0,0.0,0.0,0.0,0.0,0.0,0.0,0.0,0.0,0.0,0.0,0.0,0.0,0.0,0.0,0.0,0.0,0.0,0.0,0.0,0.0,0.0,0.0,0.0,0.0,0.0,0.0,0.0,0.0,0.0,0.0,0.0,0.0,0.0,0.0,0.0,0.0,0.0,0.0,0.0,0.0,0.0,0.0,0.0,0.0,0.0,0.0,0.0,0.0,0.0,0.0,0.0,0.0,0.0,0.0,0.0,0.0,0.0,0.0,0.0,0.0,0.0,0.0,0.0,0.0,0.0,0.0,0.0,0.0,0.0,0.0,0.0,0.0,0.0,0.0,0.0,0.0,0.0,0.0,0.0,0.0,0.0,0.0,0.0,0.0,0.0,0.0,0.0,0.0,0.0,0.0,0.0,0.0,-0.1222,-0.1354,-0.1594,-0.1875,-0.2008,-0.1976,-0.2576,-0.2878,-0.269,-0.3664,0.0,0.0,0.0,0.0,0.0,0.0,0.0,0.0,0.0,0.0,0.0,0.0,0.0,0.0,0.0,0.0,0.0,0.0,0.0,0.0,0.0,0.0,0.0,0.0,0.0,0.0,0.0,0.0,0.0,0.0,0.0,0.0,0.0,0.0,0.0,0.0,0.0,0.0,0.0,0.0,0.0,0.0,0.0,0.0,0.0,0.0,0.0,0.0,0.0,0.0,0.0,0.0,0.0,0.0,0.0,0.0,0.0,0.0,0.0,0.0,0.0,0.0,0.0,0.0,0.0,0.0,0.0,0.0,0.0,0.0,0.0,0.0,0.0,0.0,0.0,0.0,0.0,0.0,0.0,0.0,0.0,0.0,0.0,0.0,0.0,0.0,0.0,0.0,0.0,0.0,0.0,0.0,0.0,0.0,0.0,0.0,0.0,0.0,0.0,0.0,0.0,0.0,-0.0891,-0.0803,-0.1233,-0.171,-0.1975,-0.1977,-0.2753,-0.3044,-0.2741,-0.391,0.0,0.0,0.0,0.0,0.0,0.0,0.0,0.0,0.0,0.0,0.0,0.0,0.0,0.0,0.0,0.0,0.0,0.0,0.0,0.0,0.0,0.0,0.0,0.0,0.0,0.0,0.0,0.0,0.0,0.0,0.0,0.0,0.0,0.0,0.0,0.0,0.0,0.0,0.0,0.0,0.0,0.0,0.0,0.0,0.0,0.0,0.0,0.0,0.0,0.0,0.0,0.0,0.0,0.0,0.0,0.0,0.0,0.0,0.0,0.0,0.0,0.0,0.0,0.0,0.0,0.0,0.0,0.0,0.0,0.0,0.0,0.0,0.0,0.0,0.0,0.0,0.0,0.0,0.0,0.0,0.0,0.0,0.0,0.0,0.0,0.0,0.0,0.0,0.0,0.0,0.0,0.0,0.0,0.0,0.0,0.0,0.0,0.0,0.0,0.0,0.0,0.0,-0.0772,-0.0309,-0.1049,-0.1648,-0.1975,-0.1977,-0.2753,-0.3044,-0.2741,-0.3767,0.0,0.0,0.0,0.0,0.0,0.0,0.0,0.0,0.0,0.0,0.0,0.0,0.0,0.0,0.0,0.0,0.0,0.0,0.0,0.0,0.0,0.0,0.0,0.0,0.0,0.0,0.0,0.0,0.0,0.0,0.0,0.0,0.0,0.0,0.0,0.0,0.0,0.0,0.0,0.0,0.0,0.0,0.0,0.0,0.0,0.0,0.0,0.0,0.0,0.0,0.0,0.0,0.0,0.0,0.0,0.0,0.0,0.0,0.0,0.0,0.0,0.0,0.0,0.0,0.0,0.0,0.0,0.0,0.0,0.0,0.0,0.0,0.0,0.0,0.0,0.0,0.0,0.0,0.0,0.0,0.0,0.0,0.0,0.0,0.0,0.0,0.0,0.0,0.0,0.0,0.0,0.0,0.0,0.0,0.0,0.0,0.0,0.0,0.0,0.0,0.0,0.0,-0.0297,-0.0309,-0.105,-0.1684,-0.2062,-0.2036,-0.2525,-0.2888,-0.2821,0.0,0.0,0.0,0.0,0.0,0.0,0.0,0.0,0.0,0.0,0.0,0.0,0.0,0.0,0.0,0.0,0.0,0.0,0.0,0.0,0.0,0.0,0.0,0.0,0.0,0.0,0.0,0.0,0.0,0.0,0.0,0.0,0.0,0.0,0.0,0.0,0.0,0.0,0.0,0.0,0.0,0.0,0.0,0.0,0.0,0.0,0.0,0.0,0.0,0.0,0.0,0.0,0.0,0.0,0.0,0.0,0.0,0.0,0.0,0.0,0.0,0.0,0.0,0.0,0.0,0.0,0.0,0.0,0.0,0.0,0.0,0.0,0.0,0.0,0.0,0.0,0.0,0.0,0.0,0.0,0.0,0.0,0.0,0.0,0.0,0.0,0.0,0.0,0.0,0.0,0.0,0.0,0.0,0.0,0.0,0.0,0.0,0.0,0.0,0.0,0.0,0.0,0.1168,0.0712,0.0248,-0.05,-0.0993,-0.1419,-0.1665,-0.215,-0.2577,-0.2987,0.0,0.0,0.0,0.0,0.0,0.0,0.0,0.0,0.0,0.0,0.0,0.0,0.0,0.0,0.0,0.0,0.0,0.0,0.0,0.0,0.0,0.0,0.0,0.0,0.0,0.0,0.0,0.0,0.0,0.0,0.0,0.0,0.0,0.0,0.0,0.0,0.0,0.0,0.0,0.0,0.0,0.0,0.0,0.0,0.0,0.0,0.0,0.0,0.0,0.0,0.0,0.0,0.0,0.0,0.0,0.0,0.0,0.0,0.0,0.0,0.0,0.0,0.0,0.0,0.0,0.0,0.0,0.0,0.0,0.0,0.0,0.0,0.0,0.0,0.0,0.0,0.0,0.0,0.0,0.0,0.0,0.0,0.0,0.0,0.0,0.0,0.0,0.0,0.0,0.0,0.0,0.0,0.0,0.0,0.0,0.0,0.0,0.0,0.0,0.0,0.0,0.0,0.313,0.2256,0.1308,0.0578,0.0627,0.0185,-0.0988,-0.1514,-0.223,0.0,0.0,0.0,0.0,0.0,0.0,0.0,0.0,0.0,0.0,0.0,0.0,0.0,0.0,0.0,0.0,0.0,0.0,0.0,0.0,0.0,0.0,0.0,0.0,0.0,0.0,0.0,0.0,0.0,0.0,0.0,0.0,0.0,0.0,0.0,0.0,0.0,0.0,0.0,0.0,0.0,0.0,0.0,0.0,0.0,0.0,0.0,0.0,0.0,0.0,0.0,0.0,0.0,0.0,0.0,0.0,0.0,0.0,0.0,0.0,0.0,0.0,0.0,0.0,0.0,0.0,0.0,0.0,0.0,0.0,0.0,0.0,0.0,0.0,0.0,0.0,0.0,0.0,0.0,0.0,0.0,0.0,0.0,0.0,0.0,0.0,0.0,0.0,0.0,0.0,0.0,0.0,0.0,0.0,0.0,0.0,0.0,0.0,0.0,0.0,0.0,0.0,0.0,0.3016,0.2795,0.2058,0.0642,0.0319,-0.0126,-0.1052,-0.1128,-0.1647,-0.283,0.0,0.0,0.0,0.0,0.0,0.0,0.0,0.0,0.0,0.0,0.0,0.0,0.0,0.0,0.0,0.0,0.0,0.0,0.0,0.0,0.0,0.0,0.0,0.0,0.0,0.0,0.0,0.0,0.0,0.0,0.0,0.0,0.0,0.0,0.0,0.0,0.0,0.0,0.0,0.0,0.0,0.0,0.0,0.0,0.0,0.0,0.0,0.0,0.0,0.0,0.0,0.0,0.0,0.0,0.0,0.0,0.0,0.0,0.0,0.0,0.0,0.0,0.0,0.0,0.0,0.0,0.0,0.0,0.0,0.0,0.0,0.0,0.0,0.0,0.0,0.0,0.0,0.0,0.0,0.0,0.0,0.0,0.0,0.0,0.0,0.0,0.0,0.0,0.0,0.0,0.0,0.0,0.0,0.0,0.0,0.0,0.0,0.0,0.0,0.0,0.0,0.0,0.2899,0.297,0.2632,0.1697,0.1037,0.0255,-0.0557,-0.0599,-0.1037,-0.2254,0.0,0.0,0.0,0.0,0.0,0.0,0.0,0.0,0.0,0.0,0.0,0.0,0.0,0.0,0.0,0.0,0.0,0.0,0.0,0.0,0.0,0.0,0.0,0.0,0.0,0.0,0.0,0.0,0.0,0.0,0.0,0.0,0.0,0.0,0.0,0.0,0.0,0.0,0.0,0.0,0.0,0.0,0.0,0.0,0.0,0.0,0.0,0.0,0.0,0.0,0.0,0.0,0.0,0.0,0.0,0.0,0.0,0.0,0.0,0.0,0.0,0.0,0.0,0.0,0.0,0.0,0.0,0.0,0.0,0.0,0.0,0.0,0.0,0.0,0.0,0.0,0.0,0.0,0.0,0.0,0.0,0.0,0.0,0.0,0.0,0.0,0.0,0.0,0.0,0.0,0.0,0.0,0.0,0.0,0.0,0.0,0.0,0.0,0.0,0.0,0.0,0.0,0.285,0.2977,0.3036,0.3218,0.2236,0.1151,0.0062,-0.0,-0.0461,-0.1567,0.0,0.0,0.0,0.0,0.0,0.0,0.0,0.0,0.0,0.0,0.0,0.0,0.0,0.0,0.0,0.0,0.0,0.0,0.0,0.0,0.0,0.0,0.0,0.0,0.0,0.0,0.0,0.0,0.0,0.0,0.0,0.0,0.0,0.0,0.0,0.0,0.0,0.0,0.0,0.0,0.0,0.0,0.0,0.0,0.0,0.0,0.0,0.0,0.0,0.0,0.0,0.0,0.0,0.0,0.0,0.0,0.0,0.0,0.0,0.0,0.6497,0.6175,0.0,0.0,0.0,0.0,0.0,0.0,0.0,0.0,0.0,0.0,0.0,0.0,0.0,0.0,0.0,0.0,0.0,0.0,0.0,0.0,0.0,0.0,0.0,0.0,0.0,0.0,0.0,0.0,0.0,0.0,0.0,0.0,0.0,0.0,0.0,0.0,0.0,0.0,0.0,0.0,0.2774,0.2952,0.3103,0.3218,0.2207,0.1185,0.0064,-0.0,-0.012,-0.0346,-0.1079,0.0,0.0,0.0,0.0,0.0,0.0,0.0,0.0,0.0,0.0,0.0,0.0,0.0,0.0,0.0,0.0,0.0,0.0,0.0,0.0,0.0,0.0,0.0,0.0,0.0,0.0,0.0,0.0,0.0,0.0,0.0,0.0,0.0,0.0,0.0,0.0,0.0,0.0,0.0,0.0,0.0,0.0,0.0,0.0,0.0,0.0,0.0,0.0,0.0,0.0,0.0,0.0,0.0,0.0,0.0,0.0,0.0,0.0,0.0,0.7138,0.6949,0.0,0.0,0.0,0.0,0.0,0.0,0.0,0.0,0.0,0.0,0.0,0.0,0.0,0.0,0.0,0.0,0.0,0.0,0.0,0.0,0.0,0.0,0.0,0.0,0.0,0.0,0.0,0.0,0.0,0.0,0.0,0.0,0.0,0.0,0.0,0.0,0.0,0.0,0.0,0.0,0.2803,0.2981,0.3126,0.3218,0.2691,0.173,0.0129,-0.0,-0.0,-0.0,-0.0663,0.0,0.0,0.0,0.0,0.0,0.0,0.0,0.0,0.0,0.0,0.0,0.0,0.0,0.0,0.0,0.0,0.0,0.0,0.0,0.0,0.0,0.0,0.0,0.0,0.0,0.0,0.0,0.0,0.0,0.0,0.0,0.0,0.0,0.0,0.0,0.0,0.0,0.0,0.0,0.0,0.0,0.0,0.0,0.0,0.0,0.0,0.0,0.0,0.0,0.0,0.0,0.0,0.0,0.8419,0.8581,0.8247,0.8667,0.8787,0.8617,0.7944,0.7955,0.8279,0.7371,0.0,0.0,0.0,0.0,0.0,0.0,0.0,0.0,0.0,0.0,0.0,0.0,0.0,0.0,0.0,0.0,0.0,0.0,0.0,0.0,0.0,0.0,0.8005,0.8275,0.8039,0.7389,0.5967,0.0,0.0,0.0,0.0,0.0,0.0,0.0,0.0,0.0,0.0,0.0,0.2828,0.3003,0.3142,0.3218,0.3232,0.2468,0.0715,0.0194,-0.0126,-0.036,-0.0737,-0.1578,0.0,0.0,0.0,0.0,0.0,0.0,0.0,0.0,0.0,0.0,0.0,0.0,0.0,0.0,0.0,0.0,0.0,0.0,0.0,0.0,0.0,0.0,0.0,0.0,0.0,0.0,0.0,0.0,0.0,0.0,0.0,0.0,0.7347,0.7452,0.0,0.0,0.0,0.0,0.0,0.0,0.0,0.0,0.0,0.0,0.0,0.0,0.0,0.8442,0.8309,0.8613,0.8807,0.8974,0.941,0.9748,0.9902,1.0095,1.0281,1.0504,1.0135,0.0,0.8221,0.8176,0.0,0.0,0.0,0.0,0.0,0.0,0.0,0.0,0.0,0.0,0.0,0.0,0.0,0.0,0.0,0.0,0.0,0.0,0.0,0.0,0.0,0.0,0.925,0.9313,0.9274,0.8954,0.8049,0.6566,0.5262,0.4651,0.4244,0.3732,0.0,0.0,0.0,0.0,0.0,0.0,0.2984,0.3097,0.3213,0.3226,0.3232,0.3096,0.2815,0.1048,-0.0515,-0.1855,-0.1361,-0.1538,-0.2512,-0.273,0.0,0.0,0.0,0.0,0.0,0.0,0.0,0.0,0.0,0.0,0.0,0.0,0.0,0.0,0.0,0.0,0.0,0.0,0.0,0.0,0.0,0.0,0.0,0.0,0.0,0.0,0.0,0.0,0.0,0.7347,0.7688,0.8024,0.7939,0.7719,0.0,0.0,0.0,0.0,0.0,0.0,0.0,0.0,0.0,0.9515,0.9832,0.9826,0.9696,1.0199,1.0222,0.982,1.0402,1.0596,1.0401,1.052,1.0773,1.1151,1.1226,1.0795,1.0061,0.9569,0.906,0.8575,0.0,0.0,0.0,0.0,0.8226,0.8081,0.8318,0.8328,0.8242,0.821,0.0,0.0,0.0,0.0,0.0,0.0,0.0,0.8368,0.9243,0.9657,0.9849,1.0128,0.9904,0.9507,0.9175,0.8052,0.679,0.5699,0.497,0.4277,0.3508,0.3197,0.0,0.0,0.0,0.3007,0.3095,0.3199,0.3309,0.3309,0.3271,0.2759,0.179,-0.0134,-0.1313,-0.155,-0.1594,-0.1923,-0.2671,-0.2638,-0.2839,0.0,0.0,0.0,0.0,0.0,0.0,0.0,0.0,0.0,0.0,0.0,0.0,0.0,0.0,0.0,0.0,0.0,0.0,0.0,0.0,0.0,0.0,0.0,0.0,0.0,0.0,0.0,0.0,0.7999,0.8111,0.8461,0.8701,0.8663,0.0,0.0,0.0,0.0,0.0,0.0,1.0604,1.0568,1.0747,1.1043,1.1178,1.1119,1.0936,1.1361,1.1263,1.063,1.1227,1.1312,1.105,1.1226,1.1439,1.1766,1.2086,1.2128,1.1939,1.1047,1.0337,0.9892,0.9964,0.9573,0.8986,0.9319,0.912,0.8813,0.8985,0.9001,0.8931,0.8824,0.8861,0.8872,0.8522,0.0,0.0,0.0,0.0,0.9012,0.9854,1.006,1.0194,1.06,1.0314,0.9893,0.9751,0.9103,0.8117,0.6711,0.5765,0.4977,0.4235,0.376,0.0,0.3099,0.3124,0.3119,0.3185,0.3331,0.3209,0.2696,0.2509,0.1841,0.0212,-0.1321,-0.197,-0.1452,-0.1846,-0.2271,-0.2689,-0.2563,-0.2777,-0.3342,0.0,0.0,0.0,0.0,0.0,0.0,0.0,0.0,0.0,0.0,0.0,0.0,0.0,0.0,0.0,0.0,0.0,0.0,0.0,0.0,0.0,0.0,0.0,0.0,0.0,0.0,0.0,0.0,0.0,0.8785,0.9499,0.0,0.0,0.0,0.0,1.1093,1.1899,1.2226,1.1941,1.1861,1.1708,1.1591,1.1928,1.2067,1.1939,1.149,1.1381,1.1615,1.1792,1.1972,1.2206,1.2846,1.3048,1.3134,1.3127,1.3121,1.3081,1.2415,1.1571,1.0867,1.0867,1.0593,1.0179,1.0252,0.9963,0.9529,0.954,0.9383,0.9222,0.9453,0.9373,0.9141,0.8899,0.8673,0.0,0.0,0.8902,0.9073,0.9982,1.0185,1.0248,1.0496,1.0479,1.0329,0.9959,0.9427,0.863,0.7449,0.6792,0.6056,0.5024,0.0,0.4122,0.3801,0.3421,0.3211,0.3215,0.3375,0.2774,0.0729,0.0509,0.0073,-0.1091,-0.189,-0.2301,-0.2238,-0.2236,-0.2251,-0.2127,-0.2501,-0.2618,-0.2468,-0.3281,0.0,0.0,0.0,0.0,0.0,0.0,0.0,0.0,0.0,0.0,0.0,0.0,0.0,0.0,0.0,0.0,0.0,0.0,0.0,0.0,0.0,0.0,0.0,0.0,0.0,0.0,0.0,0.0,1.02,1.0613,0.0,1.029,1.1149,1.1506,1.0773,1.1986,1.2586,1.2311,1.2929,1.3393,1.3458,1.3815,1.4038,1.4203,1.3885,1.3684,1.3592,1.3504,1.3337,1.3155,1.3324,1.3633,1.3898,1.3898,1.4077,1.4329,1.4137,1.3192,1.2037,1.2267,1.1954,1.1414,1.1658,1.1349,1.0729,1.0729,1.0335,0.9922,1.0013,1.0078,1.011,1.003,0.9943,0.9895,0.9981,1.0121,1.0301,1.071,1.0758,1.0701,1.0869,1.0768,1.0537,1.0379,1.0142,0.9665,0.8422,0.7405,0.6467,0.5601,0.4941,0.4372,0.3537,0.3491,0.3001,0.1474,0.1504,0.1299,0.0458,-0.0754,-0.1645,-0.1944,-0.221,-0.2309,-0.2249,-0.2245,-0.2207,-0.2192,-0.2318,-0.2449,-0.2547,-0.2759,-0.2971,0.0,0.0,0.0,0.0,0.0,0.0,0.0,0.0,0.0,0.0,0.0,0.0,0.0,0.0,0.0,0.0,0.0,0.0,0.0,0.0,0.0,0.0,0.0,0.0,0.0,1.0448,1.1035,1.1129,1.1663,1.184,1.152,1.2138,1.2293,1.1902,1.2805,1.3393,1.3361,1.3998,1.4469,1.4663,1.4863,1.5136,1.5287,1.495,1.4681,1.4578,1.4405,1.4134,1.3857,1.4044,1.4231,1.4501,1.4501,1.4687,1.4963,1.4963,1.4328,1.347,1.3718,1.3374,1.2779,1.3041,1.2652,1.1887,1.1712,1.1324,1.0875,1.0875,1.0828,1.088,1.088,1.0713,1.0638,1.0638,1.0685,1.0841,1.0992,1.0857,1.0718,1.088,1.0679,1.0439,1.0188,1.017,0.9892,0.866,0.7878,0.7214,0.6204,0.5502,0.4653,0.3227,0.2806,0.2076,0.0471,-0.0238,-0.056,-0.0635,-0.1801,-0.2477,-0.2456,-0.2399,-0.2338,-0.2208,-0.2186,-0.2208,-0.2193,-0.2189,-0.2269,-0.2402,-0.2414,-0.2788,-0.338,0.0,0.0,0.0,0.0,0.0,0.0,0.0,0.0,0.0,0.0,0.0,0.0,0.0,0.0,0.0,0.0,0.0,0.0,0.0,0.0,0.0,0.0,0.0,1.0681,1.1356,1.181,1.1536,1.2532,1.3126,1.2839,1.3393,1.3964,1.4402,1.4522,1.4737,1.4963,1.4977,1.4983,1.499,1.499,1.508,1.508,1.4624,1.4347,1.434,1.4347,1.4347,1.4347,1.4804,1.499,1.499,1.499,1.499,1.499,1.499,1.499,1.499,1.497,1.4687,1.4321,1.4321,1.3881,1.313,1.2608,1.2255,1.203,1.2024,1.1715,1.1329,1.1329,1.1006,1.0681,1.0681,1.067,1.067,1.0676,1.0509,1.0342,1.0347,1.0342,1.0095,0.937,0.9365,0.9178,0.802,0.8189,0.8193,0.6809,0.6053,0.4954,0.2937,0.1428,0.0,0.0252,-0.1513,-0.267,-0.261,-0.2602,-0.2578,-0.2518,-0.2455,-0.2395,-0.2339,-0.2206,-0.2189,-0.2138,-0.213,-0.2099,-0.1977,-0.2398,-0.3024,-0.3873,0.0,0.0,0.0,0.0,0.0,0.0,0.0,0.0,0.0,0.0,0.0,0.0,0.0,0.0,0.0,0.0,0.0,0.0,0.0,0.0,0.0,1.0863,1.169,1.153,1.2278,1.2966,1.3313,1.3647,1.3891,1.3879,1.4047,1.4027,1.3829,1.4199,1.4508,1.4793,1.5087,1.5378,1.5585,1.5591,1.5865,1.6415,1.5771,1.5671,1.623,1.5678,1.5404,1.5398,1.5498,1.5591,1.5591,1.5591,1.5591,1.5591,1.5591,1.5591,1.5545,1.513,1.4963,1.4777,1.4777,1.4456,1.3881,1.3181,1.279,1.2598,1.24,1.2122,1.1838,1.1838,1.1749,1.1661,1.1661,1.1537,1.1445,1.1618,1.1488,1.1181,1.0818,1.0639,1.0255,0.9118,0.8894,0.8719,0.7827,0.6819,0.6081,0.617,0.5616,0.4794,0.3628,0.333,0.197,-0.1603,-0.2528,-0.2857,-0.2752,-0.2628,-0.2513,-0.2578,-0.248,-0.2395,-0.2339,-0.2237,-0.2184,-0.2195,-0.211,-0.212,-0.2102,-0.2316,-0.2903,0.0,0.0,0.0,0.0,0.0,0.0,0.0,0.0,0.0,0.0,0.0,0.0,0.0,0.0,0.0,0.0,0.0,0.0,0.0,0.0,0.0,0.0,1.1674,1.2623,1.2622,1.316,1.3794,1.4382,1.4456,1.4548,1.4728,1.4585,1.4447,1.4562,1.4581,1.4743,1.5184,1.5391,1.5658,1.5825,1.5832,1.6015,1.648,1.6015,1.6015,1.648,1.6015,1.5832,1.5832,1.5832,1.5832,1.5832,1.5832,1.5832,1.5832,1.5832,1.5832,1.5798,0.0,0.0,0.0,0.0,1.5061,1.4657,1.4308,1.3923,1.3664,1.3594,1.3195,1.2597,1.2312,1.1946,1.1492,1.1216,1.0938,1.0874,1.1089,1.0864,1.0551,1.0035,0.979,0.9435,0.8359,0.8234,0.8077,0.709,0.5644,0.0,0.5176,0.477,0.3592,0.1298,0.1835,0.1315,-0.182,-0.2251,-0.2242,-0.222,-0.2445,-0.2657,-0.2524,-0.2514,0.0,0.0,0.0,-0.2223,-0.2207,-0.2139,0.0,0.0,0.0,0.0,0.0,0.0,0.0,0.0,-0.6041,-0.627,0.0,0.0,0.0,0.0,0.0,0.0,0.0,0.0,0.0,0.0,0.0,0.0,0.0,0.0,0.0,0.0,1.276,1.3774,1.3899,1.413,1.4429,1.495,1.5017,1.5124,1.5418,1.4968,1.5065,1.5717,1.5363,1.5363,1.5737,1.5832,0.0,0.0,0.0,1.5832,1.5832,1.5832,1.5832,1.5832,1.5832,1.5832,1.5832,1.5832,1.5832,1.5832,1.5832,1.5832,1.5832,1.5832,1.5832,1.5832,1.5832,1.5737,1.5737,1.5737,1.5571,1.5352,1.5352,0.0,0.0,1.4973,1.4333,1.3415,1.2562,1.1733,1.0915,0.9988,0.9707,0.9703,0.9703,0.9477,0.9076,0.8627,0.852,0.8238,0.7342,0.7256,0.7058,0.6016,0.4581,0.3629,0.4208,0.3979,0.2249,-0.1981,-0.1078,-0.0269,-0.1166,-0.1256,-0.1247,-0.1223,-0.2176,0.0,-0.2549,-0.2559,-0.2497,-0.2519,-0.2461,-0.2373,-0.2246,-0.2248,-0.2252,-0.232,-0.2933,-0.3574,-0.4317,-0.5204,-0.5942,-0.6746,-0.6676,-0.6958,0.0,0.0,0.0,0.0,0.0,0.0,0.0,0.0,0.0,0.0,0.0,0.0,0.0,0.0,0.0,1.3071,1.3794,1.4543,1.5285,1.5248,1.5184,1.5297,1.5311,1.5424,1.5718,1.5644,1.567,1.5825,1.5737,1.5737,1.5832,1.5832,1.5832,1.5832,1.5832,1.5832,1.5832,1.5832,1.5832,1.5832,1.5832,0.0,1.5832,1.5832,1.5832,1.5832,1.5832,1.5832,1.5832,1.5832,1.5832,1.5832,1.5832,1.5547,1.5274,1.5274,1.5235,1.519,1.519,1.5158,1.5113,1.5113,1.4627,1.3951,1.2693,1.2208,0.0,1.0586,1.0002,0.9604,0.9604,0.9279,0.8863,0.8597,0.8404,0.7931,0.6798,0.5446,0.4461,0.46,0.3575,0.3009,0.4122,0.4219,0.3131,-0.0092,-0.0272,-0.009,-0.0269,-0.0269,-0.0269,-0.0268,-0.1141,-0.1992,-0.2751,-0.2647,-0.2819,-0.3447,-0.337,-0.3027,-0.2305,-0.2343,-0.2663,-0.3254,-0.3343,-0.4141,-0.5616,-0.5964,-0.6588,-0.7403,-0.71,-0.7102,0.0,0.0,0.0,0.0,0.0,0.0,0.0,0.0,0.0,0.0,0.0,1.1814,1.1604,0.0,1.4156,1.4338,1.5,1.5632,1.5982,1.5785,1.5611,1.5611,1.5611,1.5671,1.5812,1.5832,1.5832,1.5832,1.5832,1.5832,1.5832,1.5832,1.5832,1.5832,1.5832,1.5832,1.5832,1.5832,1.5832,1.5832,1.5832,1.5832,1.5832,1.5832,1.5832,1.5832,1.5832,1.5832,1.5832,1.5832,1.5832,1.5737,1.5547,1.5267,1.5083,1.479,1.4885,1.5083,1.5083,1.5547,1.6015,1.5553,1.5159,1.4465,1.2727,1.176,1.0984,0.9316,0.8623,0.8425,0.8336,0.8137,0.7842,0.7563,0.6802,0.596,0.5683,0.4883,0.3773,0.2461,0.2277,0.2383,0.2165,0.1353,0.019,-0.1223,-0.0647,-0.0,-0.0,-0.0814,-0.1438,-0.1436,-0.1422,-0.1758,-0.2786,-0.3036,-0.3388,-0.3718,-0.3759,-0.3517,-0.3011,-0.3076,-0.341,-0.4068,-0.4432,-0.5042,-0.5904,-0.6299,-0.6788,-0.7278,-0.7115,-0.7152,0.0,0.0,0.0,0.0,0.0,0.0,0.0,1.265,1.2221,1.2938,1.3281,1.334,1.3263,1.4671,1.567,1.5433,1.6063,1.6558,1.6344,1.6292,1.6109,1.5832,1.5832,1.5832,1.5832,1.5832,1.5832,1.5832,1.5832,1.5832,1.5832,1.5832,1.5832,1.5832,1.5832,1.5832,1.5832,1.5832,1.5832,1.5832,1.5832,1.5832,1.5832,1.5832,1.5832,1.5825,1.5737,1.5737,1.5737,1.5635,1.554,1.5642,1.4981,1.4796,1.4694,1.4304,1.44,1.479,1.4885,1.5635,1.648,1.5825,1.5432,1.4734,1.2425,1.0979,0.971,0.7733,0.7039,0.6945,0.6856,0.6456,0.6055,0.6067,0.5052,0.4138,0.394,0.3841,0.3132,0.0505,0.101,0.1516,0.0202,-0.1297,-0.2356,-0.231,-0.1037,-0.0186,-0.0558,-0.2021,-0.2909,-0.2894,-0.2167,-0.2058,-0.2979,-0.3783,-0.417,-0.4,-0.4153,-0.411,-0.395,-0.4001,-0.4336,-0.4925,-0.5513,-0.5913,-0.6024,-0.6561,-0.6895,-0.7021,-0.7163,-0.7143,1.1344,1.2272,1.3057,1.3365,1.3682,1.4427,0.0,1.5452,1.4358,1.5461,1.5004,1.4302,1.4316,1.4959,1.5636,1.6274,1.6707,1.6908,1.6943,1.7419,1.7333,1.592,1.5832,1.5832,1.5832,1.5832,1.5832,1.5832,1.5832,1.5832,1.5832,1.5832,1.5832,1.5832,1.5832,1.5832,1.5832,1.5832,1.5832,1.5832,1.5832,1.5832,1.5832,1.5832,1.5832,1.5737,1.5363,1.5363,1.573,1.4873,1.4783,1.5083,1.4118,1.3636,1.3636,1.3636,1.3636,1.3732,1.4202,1.4783,1.5274,1.5178,1.4669,1.368,1.1848,1.0382,0.9004,0.763,0.6645,0.6052,0.6052,0.4437,0.3229,0.4651,0.4855,0.3942,0.1111,0.0505,0.0404,0.0101,0.0101,0.0202,-0.0,-0.0202,-0.03,-0.0295,-0.0096,-0.0665,-0.2569,-0.3041,-0.3109,-0.2961,-0.2862,-0.3111,-0.3755,-0.507,-0.5598,-0.4886,-0.541,-0.5432,-0.4818,-0.4737,-0.5071,-0.5846,-0.5946,-0.627,-0.6913,-0.7227,-0.7305,-0.7326,-0.7478,-0.7092,1.2688,1.3369,1.3763,1.4891,1.5454,1.6045,1.7201,1.6363,1.5499,1.6376,1.6119,1.5694,1.5882,1.6854,1.7674,1.8041,1.8164,1.8257,1.8257,1.7792,1.7232,1.6574,1.6109,1.5832,1.5832,1.5832,1.5832,1.5832,1.5832,1.5832,1.5832,1.5832,1.5832,1.5832,1.5999,1.6086,1.6086,1.6253,1.6339,1.6339,1.6339,1.6253,1.6086,1.6086,1.5807,1.5363,1.5178,1.5178,1.5363,1.4586,1.4592,1.4987,1.4304,1.4016,1.3919,1.334,1.3249,1.3539,1.3727,1.4484,1.5146,1.419,1.359,1.2791,1.0667,0.9193,0.8011,0.6742,0.615,0.5754,0.5354,0.4547,0.3536,0.2323,0.202,0.1616,0.0303,-0.0,-0.0,-0.0,-0.0,-0.0,-0.0,-0.0,-0.0,-0.0,-0.0,-0.0776,-0.2914,-0.3174,-0.3141,-0.3016,-0.3484,-0.4031,-0.4637,-0.5744,-0.6207,-0.5928,-0.6159,-0.6128,-0.5852,-0.5803,-0.6164,-0.6953,-0.6953,-0.7073,-0.7407,-0.7472,-0.7506,-0.7509,-0.7655,-0.7016,1.292,1.3846,1.4645,1.5976,1.6792,1.7501,1.798,1.7383,1.6807,1.7386,1.7259,1.7047,1.7282,1.8164,1.8912,1.8912,1.9096,1.9096,1.8912,1.8164,1.7505,1.7037,1.648,1.6015,1.5825,1.5832,1.5832,1.5832,1.5905,1.5952,1.5952,1.6025,1.6072,1.6072,1.6279,1.6393,1.6393,1.66,1.6707,1.6707,1.6707,1.6593,1.6393,1.6295,1.5888,1.5312,1.5014,1.4917,1.502,1.4326,1.4527,1.502,1.4521,1.4376,1.431,1.3631,1.3402,1.3443,1.3238,1.3794,1.425,1.2813,1.2022,1.1424,0.9592,0.8117,0.693,0.6253,0.5856,0.5454,0.4954,0.4144,0.2929,0.0505,-0.0,-0.0,-0.0,-0.0,-0.0,-0.0,-0.0,-0.0,-0.0,-0.0,-0.0,-0.0,-0.0499,-0.1485,-0.2974,-0.3214,-0.327,-0.3459,-0.4106,-0.4849,-0.5601,-0.6361,-0.6838,-0.6838,-0.6838,-0.6838,-0.6838,-0.6838,-0.7029,-0.76,-0.7409,-0.7409,-0.76,-0.7449,-0.7469,-0.7662,-0.7607,-0.689,1.1049,1.3119,1.5626,1.5867,1.7238,1.8733,1.9504,1.904,1.8604,1.9074,1.8519,1.8071,1.8087,1.8087,1.8172,1.8172,1.8727,1.8912,1.8272,1.8727,1.8627,1.7131,1.6951,1.6669,1.5927,1.5832,1.5832,1.5832,1.6092,1.6259,1.6259,1.6526,1.668,1.668,1.6687,1.6693,1.6693,1.67,1.6707,1.6707,1.6707,1.67,1.6693,1.6199,1.589,1.5783,1.4761,1.4558,1.4975,1.3964,1.4168,1.5083,1.4462,1.4507,1.4672,1.4678,1.4131,1.334,1.264,1.2339,1.2139,1.0858,0.9976,0.9201,0.8641,0.735,0.6055,0.6271,0.5665,0.4855,0.4855,0.2524,0.0101,-0.0,-0.0,-0.0,-0.0,-0.0,-0.0,-0.0,-0.0,-0.0,-0.0,-0.0,-0.0,-0.0,-0.1818,-0.3133,-0.3234,-0.3177,-0.343,-0.4212,-0.4903,-0.5601,-0.6361,-0.7123,-0.7597,-0.7597,-0.7597,-0.7597,-0.7597,-0.7597,-0.76,-0.76,-0.6835,-0.6835,-0.76,-0.6969,-0.703,-0.7807,-0.7162,-0.6825,1.1972,1.3386,1.4837,1.6171,1.7571,1.8762,1.9265,1.9191,1.9034,1.9163,1.8811,1.8462,1.8462,1.8831,1.902,1.8552,1.9298,1.9646,1.8912,1.8635,1.8265,1.78,1.6864,1.6109,1.5832,1.5832,1.5832,1.5832,1.6106,1.6273,1.6273,1.6547,1.6707,1.6707,1.6901,1.6907,1.6707,1.6901,1.6901,1.6707,1.6707,1.6807,1.6994,1.6296,1.5708,1.5303,1.4581,1.427,1.448,1.418,1.4491,1.5107,1.5297,1.5444,1.5463,1.5062,1.4813,1.4383,1.284,1.2483,1.234,1.0439,0.945,0.8667,0.7469,0.5448,0.3833,0.5054,0.5058,0.4347,0.2121,0.0808,-0.0,-0.0,-0.0,-0.0,-0.0,-0.0,-0.0,-0.0,-0.0,-0.0,-0.0,-0.1212,-0.2831,-0.4956,-0.4147,-0.354,-0.4649,-0.442,-0.4495,-0.5088,-0.5844,-0.6407,-0.6703,-0.7397,-0.7892,-0.7892,-0.7892,-0.7596,-0.7098,-0.7593,-0.7596,-0.7098,-0.7296,-0.7593,-0.7892,-0.7645,-0.7368,-0.7165,-0.691,-0.6229,1.2139,1.3305,1.4362,1.6037,1.7289,1.8245,1.8672,1.8819,1.8872,1.8926,1.8702,1.8539,1.8811,1.9062,1.9245,1.9057,1.9379,1.9587,1.9263,1.8357,1.7707,1.7707,1.6672,1.5985,1.5985,1.5985,1.5945,1.5838,1.6199,1.6426,1.6426,1.6707,1.6867,1.6867,1.6947,1.6901,1.6707,1.6894,1.6894,1.6707,1.6707,1.6807,1.6987,1.6289,1.5607,1.5113,1.4584,1.4207,1.4104,1.4406,1.4867,1.5488,1.5997,1.6138,1.5954,1.5648,1.4969,1.4112,1.2401,1.2038,1.1994,0.949,0.7965,0.6968,0.6067,0.4649,0.323,0.3131,0.3132,0.2626,0.0505,-0.0,-0.0,-0.0,-0.0,-0.0,-0.0,-0.0,-0.0,-0.0,-0.0,-0.0202,-0.101,-0.3234,-0.5468,-0.6891,-0.5562,-0.4746,-0.5756,-0.5448,-0.534,-0.5934,-0.6531,-0.693,-0.7232,-0.7736,-0.8038,-0.8038,-0.8038,-0.7637,-0.683,-0.7537,-0.7637,-0.683,-0.7335,-0.7736,-0.8038,-0.7437,-0.7033,-0.6828,-0.6229,-0.5429,1.1647,1.29,1.4304,1.5335,1.6429,1.7397,1.7885,1.8071,1.8149,1.8441,1.8257,1.8267,1.8922,1.8828,1.876,1.9451,1.9074,1.8783,1.9139,1.79,1.7066,1.7066,1.6587,1.6293,1.6293,1.6293,1.6172,1.5872,1.6373,1.6693,1.6707,1.6974,1.7128,1.7128,1.6854,1.67,1.6687,1.6667,1.6667,1.6687,1.6687,1.6693,1.6607,1.6105,1.5506,1.5017,1.4648,1.4228,1.382,1.4702,1.5339,1.5974,1.6518,1.6571,1.6342,1.6238,1.4815,1.272,1.1295,1.1157,1.1051,0.7918,0.5448,0.3833,0.4244,0.4349,0.3739,0.0808,-0.0,-0.0,-0.0,-0.0,-0.0,-0.0,-0.0,-0.0,-0.0,-0.0,-0.0,-0.0,-0.0,-0.0707,-0.3034,-0.5876,-0.7403,-0.5964,-0.6152,-0.645,-0.645,-0.6042,-0.5934,-0.6731,-0.683,-0.7132,-0.7939,-0.8038,-0.8038,-0.8038,-0.8038,-0.7637,-0.683,-0.7537,-0.7637,-0.683,-0.683,-0.7232,-0.7939,-0.6437,-0.6034,-0.6628,-0.5129,-0.4329,1.2089,1.2837,1.3674,1.4483,1.5563,1.656,1.6662,1.7235,1.7773,1.7861,1.7365,1.7054,1.7123,1.7762,1.8124,1.7695,1.8441,1.8899,1.8442,1.772,1.7287,1.7287,1.6897,1.6593,1.6593,1.6593,1.6473,1.6179,1.6299,1.648,1.6693,1.6774,1.682,1.682,1.6747,1.66,1.6386,1.6159,1.6159,1.6386,1.5993,1.5905,1.6105,1.5095,1.4587,1.4491,1.3951,1.367,1.3686,1.4868,1.5491,1.5725,1.6442,1.6685,1.6411,1.4921,1.4024,1.3194,1.0974,1.0464,1.0059,0.6065,0.3054,0.0706,-0.0707,-0.1111,-0.101,-0.0202,-0.0,-0.0,-0.0,-0.0,-0.0,-0.0,-0.0,-0.0,-0.0,-0.0,-0.0,-0.0,-0.0,-0.1414,-0.5977,-0.648,-0.6472,-0.7269,-0.6948,-0.6942,-0.7563,-0.6945,-0.6833,-0.7637,-0.7736,-0.7736,-0.7939,-0.8038,-0.8038,-0.8038,-0.8038,-0.7637,-0.683,-0.7537,-0.7637,-0.683,-0.7434,-0.7534,-0.7129,-0.6731,-0.6029,-0.5029,-0.463,-0.4029,1.2266,1.2741,1.316,1.3782,1.4484,1.4956,1.4864,1.5285,1.5676,1.587,1.5352,1.5105,1.5827,1.6452,1.679,1.6778,1.7435,1.7903,1.7684,1.7223,1.694,1.694,1.6939,1.6901,1.6901,1.678,1.6693,1.666,1.654,1.648,1.6513,1.6513,1.6513,1.6513,1.6386,1.6239,1.6079,1.5912,1.5817,1.5796,1.5506,1.5297,1.514,1.4547,1.4149,1.3962,1.3774,1.3521,1.3436,1.4806,1.5293,1.5192,1.6174,1.6312,1.5779,1.4266,1.3295,1.2521,1.0916,1.0091,0.9137,0.5241,0.2171,-0.0409,-0.2559,-0.3157,-0.2933,-0.1718,-0.0707,-0.0,-0.0,-0.0,-0.0,-0.0,-0.0,-0.0,-0.0,-0.0,-0.0303,-0.1212,-0.2526,-0.4144,-0.6274,-0.6673,-0.6862,-0.7353,-0.7341,-0.754,-0.7955,-0.7643,-0.7534,-0.7939,-0.8038,-0.8038,-0.8038,-0.8038,-0.8038,-0.8038,-0.8038,-0.7637,-0.683,-0.7537,-0.7637,-0.683,-0.7232,-0.7232,-0.683,-0.6129,-0.5329,-0.4429,-0.4029,-0.363,1.2274,1.2608,1.2958,1.3346,1.3516,1.3483,1.3278,1.3224,1.3205,1.3373,1.2934,1.2987,1.4471,1.4904,1.5329,1.6232,1.6397,1.655,1.6901,1.6594,1.6333,1.6333,1.6847,1.7194,1.7154,1.6914,1.684,1.7021,1.6794,1.654,1.6286,1.6239,1.6213,1.6213,1.5965,1.5832,1.5832,1.5832,1.5642,1.5178,1.5083,1.479,1.4298,1.4202,1.3919,1.3551,1.3669,1.3556,1.3275,1.4435,1.4777,1.466,1.5664,1.5521,1.4663,1.3717,1.2536,1.1244,1.0626,0.9559,0.7895,0.5472,0.253,-0.0313,-0.2184,-0.2982,-0.3248,-0.324,-0.1819,-0.0404,-0.0101,-0.0,-0.0,-0.0,-0.0,-0.0,-0.0,-0.0202,-0.1111,-0.3439,-0.5876,-0.7196,-0.5553,-0.6762,-0.7762,-0.7036,-0.7537,-0.8038,-0.8038,-0.8038,-0.8038,-0.8038,-0.8038,-0.8038,-0.8038,-0.8038,-0.8038,-0.8038,-0.8038,-0.7637,-0.703,-0.7637,-0.7637,-0.683,-0.683,-0.6728,-0.6429,-0.5129,-0.4329,-0.423,-0.3531,-0.323,1.256,1.2732,1.2958,1.3346,1.3666,1.3728,1.3325,1.3187,1.2934,1.2173,1.1889,1.1872,1.2269,1.341,1.4561,1.5268,1.5848,1.6382,1.6958,1.6773,1.6627,1.6627,1.7148,1.7415,1.7174,1.7101,1.6894,1.646,1.638,1.6326,1.6279,1.6039,1.5905,1.5905,1.5852,1.5832,1.5832,1.5832,1.5737,1.5642,1.5267,1.479,1.4298,1.3823,1.3636,1.3443,1.3099,1.3116,1.3425,1.3975,1.4207,1.4188,1.4803,1.4455,1.3567,1.2365,1.1013,0.9699,0.9293,0.7493,0.5567,0.7474,0.4418,-0.0106,-0.0417,-0.1762,-0.3198,-0.3149,-0.2933,-0.2224,-0.0505,-0.0,-0.0,-0.0,-0.0,-0.0,-0.0,-0.1415,-0.354,-0.6589,-0.6584,-0.6369,-0.7266,-0.7769,-0.7965,-0.7842,-0.7939,-0.8038,-0.8038,-0.8038,-0.8038,-0.8038,-0.8038,-0.8038,-0.8038,-0.8038,-0.8038,-0.8038,-0.8038,-0.7939,-0.7839,-0.7939,-0.7637,-0.683,-0.683,-0.6129,-0.483,-0.4529,-0.4029,-0.343,-0.323,-0.323,1.2918,1.334,1.3624,1.3823,1.3808,1.3393,1.2492,1.1984,1.1498,1.0688,1.0367,1.0405,1.077,1.1742,1.2788,1.3787,1.423,1.4943,1.6161,1.6252,1.6359,1.6667,1.7088,1.7301,1.7161,1.6874,1.6573,1.6293,1.5939,1.5757,1.6039,1.5905,1.5832,1.5832,1.5832,1.5832,1.5832,1.5832,1.5642,1.5458,1.5178,1.479,1.4298,1.3727,1.3539,1.3443,1.2958,1.2958,1.3163,1.3573,1.3698,1.3546,1.3685,1.3372,1.277,1.1046,1.0257,0.9839,0.8523,0.7524,0.7073,0.8393,0.4835,-0.0,-0.0,-0.0738,-0.1763,-0.2881,-0.2445,-0.1313,-0.0303,-0.0,-0.0,-0.0,-0.0,-0.0,-0.0,-0.1718,-0.3945,-0.6279,-0.6369,-0.6353,-0.725,-0.7753,-0.7952,-0.8041,-0.8038,-0.8038,-0.8038,-0.7637,-0.7534,-0.7939,-0.8038,-0.8038,-0.8038,-0.8038,-0.8038,-0.8038,-0.8038,-0.8038,-0.8038,-0.7633,-0.7232,-0.683,-0.5929,-0.5129,-0.4429,-0.4031,-0.353,-0.323,-0.323,-0.323,1.3121,1.3872,1.4298,1.4394,1.395,1.3163,1.1881,1.1105,1.0385,0.9542,0.9173,0.9142,0.9748,1.0284,1.1037,1.2238,1.2908,1.3771,1.5334,1.5876,1.6312,1.664,1.6967,1.7121,1.7061,1.658,1.6246,1.6186,1.5492,1.5172,1.5445,1.5445,1.554,1.5642,1.5642,1.5737,1.5832,1.5737,1.5452,1.5083,1.4987,1.4694,1.4106,1.3732,1.3539,1.3443,1.2958,1.2861,1.2958,1.3249,1.316,1.2757,1.2725,1.2417,1.1654,1.005,0.9717,0.9747,0.7407,0.7312,0.8003,0.722,0.3788,-0.0,-0.0,-0.0,-0.0315,-0.1988,-0.134,-0.0,-0.0,-0.0,-0.0,-0.0,-0.0,-0.0101,-0.0607,-0.1819,-0.3335,-0.5052,-0.5851,-0.6345,-0.6531,-0.7335,-0.7939,-0.7736,-0.7939,-0.7939,-0.7736,-0.7232,-0.703,-0.7637,-0.7736,-0.7839,-0.7939,-0.8038,-0.8038,-0.8038,-0.8038,-0.7939,-0.7736,-0.7132,-0.6628,-0.6329,-0.5029,-0.4329,-0.413,-0.3531,-0.323,-0.323,-0.323,-0.323,1.3048,1.3731,1.4394,1.4885,1.4362,1.3411,1.2563,1.1569,1.0468,0.9236,0.8912,0.897,0.9091,0.9524,1.0237,1.1181,1.2659,1.3865,1.4435,1.6067,1.703,1.6767,1.6967,1.7041,1.6774,1.646,1.6159,1.5892,1.5376,1.4885,1.449,1.449,1.4688,1.5178,1.5178,1.5363,1.5832,1.5363,1.5178,1.5083,1.4592,1.4106,1.3539,1.3539,1.3539,1.3443,1.2958,1.3055,1.3443,1.3055,1.2381,1.1752,1.2171,1.1309,0.9906,0.9581,0.8826,0.7621,0.5487,0.5164,0.5174,0.1907,0.0448,-0.0,-0.0,-0.0,-0.0,-0.0214,-0.0105,-0.0,-0.0,-0.0,-0.0,-0.0,-0.0,-0.0516,-0.2436,-0.2323,-0.232,-0.444,-0.534,-0.5636,-0.5734,-0.6939,-0.7736,-0.703,-0.7534,-0.7736,-0.703,-0.683,-0.683,-0.693,-0.693,-0.7232,-0.7939,-0.8038,-0.8038,-0.8038,-0.8038,-0.7637,-0.693,-0.683,-0.6129,-0.463,-0.4429,-0.4029,-0.333,-0.323,-0.323,-0.323,-0.323,-0.323,1.3561,1.4534,1.5003,1.5197,1.4635,1.3665,1.2519,1.1407,1.0253,0.9135,0.8748,0.8641,0.8524,0.882,0.9412,1.0685,1.1323,1.2296,1.3787,1.494,1.5729,1.6099,1.644,1.6647,1.67,1.6279,1.5665,1.4975,1.483,1.4467,1.3443,1.401,1.4394,1.4592,1.4592,1.4688,1.4873,1.4688,1.4592,1.4592,1.4394,1.4202,1.401,1.363,1.3539,1.3443,1.2958,1.2958,1.2958,1.1965,1.1575,1.1418,1.0078,0.9427,0.9028,0.7849,0.7436,0.707,0.4369,0.4265,0.4836,0.1121,-0.0,-0.0,-0.0,-0.0,-0.0,-0.0,-0.0,-0.0,-0.0,-0.0,-0.0,-0.0,-0.0,-0.062,-0.2741,-0.2829,-0.3026,-0.4541,-0.4836,-0.5033,-0.5536,-0.6534,-0.7132,-0.683,-0.7033,-0.7132,-0.683,-0.5929,-0.5532,-0.6032,-0.6531,-0.7132,-0.7939,-0.8038,-0.8038,-0.8038,-0.7534,-0.7132,-0.683,-0.5829,-0.5029,-0.4429,-0.393,-0.3531,-0.323,-0.323,-0.323,-0.323,-0.323,-0.323,1.3346,1.4605,1.5271,1.5271,1.4515,1.3489,1.2339,1.1093,0.9978,0.9113,0.8678,0.8463,0.8291,0.8581,0.9119,1.0134,1.0684,1.156,1.3353,1.4208,1.506,1.5852,1.6146,1.6353,1.656,1.5932,1.5255,1.4394,1.4376,1.3912,1.2872,1.3437,1.3913,1.401,1.401,1.4106,1.4298,1.4106,1.401,1.401,1.3913,1.3817,1.3817,1.3437,1.3249,1.3249,1.2958,1.2565,1.2165,1.1175,1.0685,1.022,0.8533,0.7962,0.8078,0.6647,0.6551,0.6743,0.3699,0.3141,0.3369,0.0785,-0.0,-0.0,-0.0,-0.0,-0.0,-0.0,-0.0,-0.0,-0.0,-0.0,-0.0,-0.0,-0.0517,-0.1242,-0.2554,-0.3056,-0.3467,-0.4203,-0.4406,-0.4606,-0.4914,-0.5802,-0.6486,-0.6486,-0.6453,-0.6431,-0.6431,-0.5229,-0.463,-0.5233,-0.5932,-0.6731,-0.7537,-0.7839,-0.7939,-0.7637,-0.7129,-0.6631,-0.6129,-0.5029,-0.4329,-0.4029,-0.3531,-0.323,-0.323,-0.323,-0.323,-0.323,-0.323,-0.323,1.2186,1.3694,1.497,1.497,1.3959,1.2833,1.2215,1.0932,0.9621,0.9045,0.8678,0.8517,0.8511,0.903,0.9455,0.9394,1.0935,1.2372,1.2945,1.4296,1.5538,1.6256,1.6273,1.6273,1.6279,1.5538,1.4885,1.4298,1.3823,1.3255,1.2861,1.2764,1.3055,1.3443,1.3539,1.3727,1.4298,1.3727,1.3539,1.3539,1.3055,1.2861,1.2861,1.2764,1.2764,1.2764,1.2764,1.2068,1.0783,1.0783,0.9592,0.7643,0.7933,0.7527,0.6831,0.6406,0.6725,0.6743,0.3699,0.1569,-0.0,-0.0,-0.0,-0.0,-0.0,-0.0,-0.0,-0.0,-0.0,-0.0,-0.0,-0.0,-0.0,-0.0,-0.164,-0.2911,-0.197,-0.2593,-0.3338,-0.3398,-0.4043,-0.436,-0.3517,-0.4717,-0.5688,-0.5688,-0.5703,-0.5636,-0.5636,-0.4933,-0.4429,-0.4429,-0.5133,-0.5934,-0.6731,-0.7534,-0.7637,-0.683,-0.683,-0.6129,-0.4529,-0.4429,-0.4029,-0.323,-0.323,-0.323,-0.323,-0.323,-0.323,-0.323,-0.323,-0.323,1.1459,1.2479,1.31,1.2899,1.2411,1.1689,1.104,1.0219,0.9491,0.9012,0.8678,0.8517,0.8517,0.8706,0.9091,0.9854,1.0628,1.1361,1.2351,1.3667,1.4741,1.5421,1.613,1.6413,1.6012,1.5695,1.5261,1.4394,1.4273,1.3906,1.2867,1.291,1.3024,1.3061,1.3055,1.3055,1.3244,1.3147,1.3055,1.3055,1.2861,1.2764,1.2764,1.2764,1.2764,1.2764,1.2175,1.158,1.0681,0.9197,0.8209,0.7534,0.6398,0.6095,0.6184,0.5676,0.5771,0.5609,0.3474,0.1569,-0.0,-0.0,-0.0,-0.0,-0.0,-0.0,-0.0,-0.0,-0.0,-0.0,-0.0,-0.0,-0.0,-0.0,-0.179,-0.3373,-0.3017,-0.3144,-0.339,-0.3409,-0.3624,-0.3729,-0.3412,-0.4239,-0.4934,-0.4874,-0.484,-0.48,-0.4738,-0.4031,-0.353,-0.353,-0.4332,-0.5131,-0.5932,-0.6731,-0.6833,-0.6034,-0.5432,-0.4929,-0.4429,-0.383,-0.343,-0.323,-0.323,-0.323,-0.323,-0.323,-0.3252,-0.3293,-0.3293,-0.3315,1.0442,1.1179,1.1644,1.1468,1.1141,1.0719,1.0105,0.9643,0.917,0.8815,0.8619,0.8517,0.8517,0.8788,0.919,0.9862,1.0371,1.1112,1.2163,1.3201,1.413,1.5069,1.6026,1.6353,1.5879,1.5445,1.5064,1.4592,1.4255,1.3693,1.3061,1.2997,1.291,1.277,1.2764,1.2764,1.2764,1.2764,1.2764,1.2764,1.2764,1.2764,1.2764,1.2764,1.2662,1.2273,1.1785,1.0886,0.0,0.811,0.7217,0.6437,0.5444,0.5237,0.5543,0.5318,0.5304,0.5272,0.4148,0.2129,-0.0,-0.0,-0.0,-0.0,-0.0,-0.0,-0.0,-0.0,-0.0,-0.0,-0.0,-0.0,-0.0215,-0.1175,-0.2132,-0.2981,-0.3394,-0.3526,-0.3451,-0.3474,-0.3478,-0.3478,-0.3478,-0.3888,-0.4281,-0.455,-0.4308,-0.4169,-0.4428,-0.381,-0.3298,-0.3298,-0.4013,-0.4511,-0.4687,-0.5756,-0.6032,-0.5233,-0.463,-0.4228,-0.3929,-0.343,-0.323,-0.323,-0.323,-0.3241,-0.3264,-0.3288,-0.3319,-0.3356,-0.3356,-0.3376,0.0,0.9927,1.0455,1.0436,1.0101,0.9707,0.9475,0.9108,0.0,0.8533,0.849,0.8506,0.8554,0.9169,0.9685,0.9548,1.0449,1.1404,1.2189,1.2866,1.3874,1.5329,1.5993,1.6186,1.5885,1.4981,1.4592,1.5083,1.3727,1.3055,1.3443,1.3055,1.2764,1.2764,1.2764,1.2764,1.2764,1.2764,1.2764,1.2764,1.2764,1.2764,1.2764,1.2764,1.237,1.1585,1.159,1.0096,0.7614,0.7515,0.6426,0.4843,0.4937,0.5022,0.511,0.5208,0.5302,0.5384,0.5276,0.3137,0.0336,0.0112,-0.0,-0.0,-0.0,-0.0,-0.0,-0.0,-0.0,-0.0,-0.0,-0.0,-0.0654,-0.3004,-0.2776,-0.2251,-0.3382,-0.3504,-0.3519,-0.3576,-0.3587,-0.3587,-0.3587,-0.3541,-0.372,-0.4479,-0.3882,-0.3629,-0.447,-0.3834,-0.3413,-0.3413,-0.4047,-0.4228,-0.3332,-0.4692,-0.514,-0.4329,-0.4329,-0.393,-0.323,-0.323,-0.323,-0.323,-0.3234,-0.3267,-0.3327,-0.3386,-0.3414,-0.3418,-0.3418,-0.3421,0.7935,0.0,0.9103,0.8661,0.8474,0.8374,0.0,0.8154,0.8086,0.8272,0.8299,0.8398,0.8942,0.9059,0.9362,1.0155,1.0761,1.1281,1.2071,1.366,1.5078,1.5986,1.6368,1.6486,1.6199,1.5767,1.5356,1.5083,1.44,1.3823,1.3539,1.3055,1.2764,1.2764,1.2764,1.2764,1.2764,1.2764,1.2764,1.2764,1.2764,1.2764,1.2764,1.2764,1.237,1.159,1.0998,0.9706,0.8113,0.7126,0.6134,0.5345,0.5141,0.4986,0.5022,0.5184,0.5261,0.5074,0.3795,0.3671,0.3636,0.0881,-0.0,-0.0,-0.0,-0.0,-0.0,-0.0,-0.0,-0.0,-0.0,-0.0,-0.0656,-0.305,-0.3372,-0.3268,-0.35,-0.3537,-0.3571,-0.3585,-0.3587,-0.3587,-0.3587,-0.3575,-0.3661,-0.3721,-0.3594,-0.3569,-0.363,-0.3518,-0.3413,-0.3413,-0.3518,-0.3617,-0.3392,-0.4266,-0.4398,-0.3534,-0.3531,-0.343,-0.323,-0.323,-0.323,-0.323,-0.3275,-0.333,-0.3391,-0.3405,-0.3435,-0.3477,-0.3477,-0.3501,0.7408,0.7862,0.8243,0.777,0.7762,0.7833,0.7833,0.7821,0.7833,0.7962,0.8131,0.8365,0.8797,0.9055,0.9475,1.0342,1.095,1.1722,1.2947,1.433,1.5487,1.6173,1.6493,1.6587,1.6299,1.582,1.5452,1.5458,1.4496,1.3919,1.3823,1.3147,1.2764,1.2764,1.2764,1.2764,1.2764,1.2764,1.2764,1.2764,1.2764,1.2764,1.2764,1.237,1.1785,1.0998,1.0207,0.9118,0.7826,0.7033,0.6337,0.5541,0.5397,0.5139,0.4988,0.513,0.5214,0.5047,0.3343,0.2786,0.2546,0.0664,-0.0,-0.0,-0.0,-0.0,-0.0,-0.0,-0.0,-0.0,-0.0,-0.0,-0.0443,-0.2325,-0.3212,-0.3545,-0.3653,-0.3565,-0.3587,-0.3587,-0.3587,-0.3587,-0.3587,-0.3587,-0.3576,-0.3544,-0.3538,-0.3527,-0.3496,-0.3493,-0.3493,-0.3493,-0.3493,-0.3481,-0.3452,-0.3845,-0.3794,-0.3318,-0.3313,-0.3301,-0.3273,-0.3273,-0.3273,-0.3273,-0.3357,-0.3418,-0.3451,-0.3478,-0.3508,-0.3538,-0.3538,-0.3556,0.7432,0.77,0.7983,0.7531,0.7627,0.7811,0.7908,0.7951,0.7957,0.8061,0.816,0.8395,0.8788,0.9362,0.9963,1.0442,1.1267,1.2509,1.4259,1.4963,1.5593,1.6388,1.6577,1.6607,1.6359,1.5654,1.5363,1.5737,1.4496,1.3925,1.4298,1.3437,1.2861,1.2764,1.2764,1.2764,1.2764,1.2764,1.2764,1.2764,1.2764,1.2764,1.2764,1.198,1.1194,1.0314,0.9513,0.8524,0.7338,0.7238,0.6637,0.5737,0.5636,0.5388,0.4963,0.5069,0.5163,0.5029,0.2998,0.1228,-0.0,-0.0,-0.0,-0.0,-0.0,-0.0,-0.0,-0.0,-0.0,-0.0,-0.0,-0.0,-0.0336,-0.1458,-0.2693,-0.3593,-0.3589,-0.3587,-0.3587,-0.3587,-0.3587,-0.3587,-0.3587,-0.3587,-0.3587,-0.3587,-0.3587,-0.3587,-0.3587,-0.3587,-0.3587,-0.3587,-0.3587,-0.3567,-0.3515,-0.3511,-0.3491,-0.3441,-0.3422,-0.339,-0.3338,-0.3335,-0.3339,-0.3347,-0.3446,-0.3501,-0.3511,-0.3563,-0.3587,-0.3587,-0.3587,-0.3587,0.8381,0.8699,0.8622,0.7682,0.7711,0.8006,0.8516,0.8461,0.8485,0.9208,0.8953,0.9052,1.0444,1.0609,1.0775,1.1611,1.2252,1.3292,1.5035,1.5557,1.6113,1.7012,1.6887,1.6687,1.6647,1.6049,1.5737,1.5825,1.5172,1.4694,1.4298,1.3727,1.3249,1.2764,1.2764,1.2764,1.2764,1.2764,1.2764,1.2764,1.2764,1.2764,1.2764,1.198,1.1194,1.0314,0.9513,0.8726,0.7839,0.7338,0.6836,0.6237,0.5737,0.5244,0.4877,0.4946,0.502,0.4721,0.1529,0.022,-0.0,-0.0,-0.0,-0.0,-0.0,-0.0,-0.0,-0.0,-0.0,-0.0,-0.0,-0.0,-0.0336,-0.1458,-0.2693,-0.3593,-0.3589,-0.3587,-0.3587,-0.3587,-0.3587,-0.3587,-0.3587,-0.3587,-0.3587,-0.3587,-0.3587,-0.3587,-0.3587,-0.3587,-0.3587,-0.3587,-0.3587,-0.3583,-0.3574,-0.3574,-0.357,-0.3561,-0.3467,-0.3409,-0.3399,-0.3398,-0.3421,-0.3469,-0.3488,-0.3522,-0.3574,-0.3582,-0.3587,-0.3587,-0.3587,-0.3587,0.789,0.8232,0.8545,0.8262,0.8498,0.8821,0.9174,0.9138,0.926,0.9768,0.9765,0.9988,1.1028,1.1402,1.1956,1.2916,1.3401,1.407,1.5524,1.5827,1.6272,1.7335,1.7128,1.6881,1.672,1.6319,1.6005,1.5838,1.5363,1.4987,1.479,1.3925,1.3443,1.3152,1.2958,1.2764,1.2764,1.2764,1.2764,1.2764,1.2764,1.257,1.2078,1.1292,1.0502,0.9715,0.8924,0.8333,0.7939,0.7739,0.7338,0.6736,0.6237,0.577,0.5235,0.4048,0.4349,0.4726,0.1217,-0.0,-0.0,-0.0,-0.0,-0.0,-0.0,-0.0,-0.0,-0.0,-0.0,-0.0,-0.0,-0.0,-0.0336,-0.1458,-0.2693,-0.3593,-0.3589,-0.3587,-0.3587,-0.3587,-0.3587,-0.3587,-0.3587,-0.3587,-0.3587,-0.3587,-0.3587,-0.3587,-0.3587,-0.3587,-0.3587,-0.3587,-0.3587,-0.3587,-0.3587,-0.3587,-0.3587,-0.3587,-0.3506,-0.3459,-0.3462,-0.3462,-0.3474,-0.35,-0.3533,-0.3563,-0.3587,-0.3555,-0.3538,-0.3538,-0.3507,-0.3508,0.7814,0.8075,0.8561,0.9005,0.9198,0.9473,1.0027,1.0043,1.0171,1.0704,1.091,1.1203,1.1778,1.2382,1.3163,1.4217,1.4456,1.4855,1.5838,1.6066,1.6393,1.7422,1.7288,1.7061,1.6834,1.6547,1.6253,1.5952,1.5621,1.5416,1.5089,1.4268,1.3693,1.3539,1.3055,1.2764,1.2764,1.2764,1.2764,1.2764,1.2764,1.237,1.159,1.0806,0.9912,0.9118,0.8333,0.8038,0.8038,0.8038,0.764,0.7141,0.677,0.6264,0.547,0.3676,0.3428,0.3708,0.1009,-0.0,-0.0,-0.0,-0.0,-0.0,-0.0,-0.0,-0.0,-0.0,-0.0,-0.0,-0.0,-0.0,-0.0224,-0.1121,-0.2469,-0.3594,-0.359,-0.3589,-0.3587,-0.3587,-0.3587,-0.3587,-0.3587,-0.3587,-0.3587,-0.3587,-0.3587,-0.3587,-0.3587,-0.3587,-0.3587,-0.3587,-0.3587,-0.3587,-0.3587,-0.3587,-0.3587,-0.3587,-0.3544,-0.3519,-0.3525,-0.3525,-0.3413,-0.3082,-0.3458,-0.3593,-0.3589,-0.3526,-0.3503,-0.3516,-0.3446,-0.345,0.923,0.9273,0.9193,0.9833,0.9363,0.9296,1.1266,1.1281,1.1288,1.2682,1.2739,1.2685,1.3325,1.3741,1.4417,1.5503,1.5343,1.5377,1.6162,1.6533,1.6827,1.7141,1.7161,1.7141,1.7121,1.6854,1.6553,1.6259,1.6493,1.6117,1.5108,1.4826,1.4258,1.3545,1.3055,1.2764,1.2764,1.2764,1.2764,1.2764,1.2764,1.237,1.159,1.0806,0.9912,0.9118,0.8333,0.8038,0.8038,0.8038,0.764,0.725,0.7382,0.654,0.5118,0.4706,0.2876,0.0336,0.0112,-0.0,-0.0,-0.0,-0.0,-0.0,-0.0,-0.0,-0.0,-0.0,-0.0,-0.0,-0.0,-0.0,-0.0,-0.0112,-0.1907,-0.3594,-0.3594,-0.359,-0.3587,-0.3587,-0.3587,-0.3587,-0.3587,-0.3587,-0.3587,-0.3587,-0.3587,-0.3587,-0.3587,-0.3587,-0.3587,-0.3587,-0.3587,-0.3587,-0.3587,-0.3587,-0.3587,-0.3587,-0.3583,-0.3583,-0.3587,-0.3589,-0.3026,-0.1904,-0.303,-0.3594,-0.3594,-0.3529,-0.3526,-0.3578,-0.3465,-0.3473,0.8355,0.8899,0.9519,0.9793,0.9838,1.0243,1.159,1.1977,1.2452,1.3754,1.3937,1.3992,1.4643,1.4817,1.5173,1.567,1.5642,1.5747,1.6233,1.6366,1.6547,1.684,1.7041,1.7074,1.6894,1.6941,1.686,1.6567,1.6647,1.6414,1.5604,1.5195,1.4601,1.3996,1.3347,1.2974,1.2974,1.2834,1.2764,1.2764,1.2764,1.2078,1.0801,1.0511,0.9719,0.8432,0.8137,0.8096,0.8184,0.8184,0.8133,0.8017,0.7542,0.5819,0.3604,0.4766,0.3015,-0.0,-0.0,-0.0,0.0336,0.2581,0.3369,0.3143,0.2017,0.1681,0.1457,0.0336,-0.0,-0.0,-0.0,-0.0,-0.0,-0.0,-0.1234,-0.2693,-0.3482,-0.3591,-0.3587,-0.3587,-0.3587,-0.3587,-0.3587,-0.3587,-0.3587,-0.3587,-0.3587,-0.3587,-0.3587,-0.3587,-0.3587,-0.3587,-0.3587,-0.3587,-0.3587,-0.3587,-0.3587,-0.3587,-0.3587,-0.359,-0.3594,-0.2919,-0.1908,-0.0673,-0.1121,-0.2121,-0.3538,-0.3474,-0.3456,-0.3477,-0.3394,-0.3418,0.8234,0.8837,0.9626,0.9807,1.0327,1.1057,1.2096,1.2605,1.3233,1.4416,1.4736,1.495,1.5444,1.5458,1.5491,1.5785,1.5832,1.5899,1.6106,1.6213,1.6346,1.6547,1.6827,1.6927,1.6727,1.6894,1.6887,1.6394,1.6439,1.6257,1.5576,1.5131,1.4777,1.4174,1.3606,1.3222,1.3222,1.3066,1.299,1.299,1.299,1.2152,1.0496,1.0496,0.9634,0.818,0.818,0.8238,0.8336,0.8336,0.8425,0.8461,0.7933,0.5907,0.33,0.4244,0.3029,0.0896,0.078,0.0781,0.1232,0.3794,0.4925,0.5166,0.3901,0.3448,0.3222,0.199,0.0886,-0.0,-0.0,-0.0,-0.0,-0.0,-0.0673,-0.1683,-0.3256,-0.3591,-0.359,-0.3587,-0.3587,-0.3587,-0.3587,-0.3587,-0.3587,-0.3587,-0.3587,-0.3587,-0.3587,-0.3587,-0.3587,-0.3587,-0.3587,-0.3587,-0.3587,-0.3587,-0.3587,-0.3587,-0.3589,-0.3591,-0.3594,-0.2469,-0.1234,-0.0,-0.0,-0.1004,-0.2979,-0.3236,-0.3432,-0.3466,-0.3367,-0.3395,0.9248,0.9368,0.9549,1.0018,1.0643,1.1549,1.2889,1.322,1.3554,1.473,1.5204,1.5484,1.5772,1.5591,1.5491,1.5785,1.5832,1.5832,1.5832,1.6086,1.6273,1.6273,1.6526,1.67,1.67,1.6707,1.6388,1.5522,1.6005,1.5865,1.4721,1.468,1.4533,1.418,1.3782,1.348,1.348,1.348,1.348,1.348,1.348,1.2424,1.0584,1.0584,0.9875,0.8482,0.8482,0.8482,0.8482,0.8486,0.8574,0.8713,0.8625,0.7051,0.4686,0.3239,0.2684,0.2681,0.2525,0.2538,0.268,0.2745,0.3981,0.5373,0.517,0.5144,0.5128,0.5369,0.2806,-0.0,-0.0,-0.0,-0.0,-0.0,-0.0,-0.0673,-0.3031,-0.3594,-0.3593,-0.3589,-0.3587,-0.3587,-0.3587,-0.3587,-0.3587,-0.3587,-0.3587,-0.3587,-0.3587,-0.3587,-0.3587,-0.3587,-0.3587,-0.3587,-0.3587,-0.3587,-0.3587,-0.3587,-0.3591,-0.3594,-0.3594,-0.2469,-0.1234,-0.0,-0.0,-0.0561,-0.1794,-0.2819,-0.3364,-0.3582,-0.3405,-0.3418,0.9197,0.9669,1.0399,1.0786,1.1434,1.2229,1.3247,1.3674,1.4162,1.5331,1.5645,1.5732,1.5812,1.5758,1.5732,1.5812,1.5832,1.5832,1.5832,1.5905,1.5965,1.5965,1.6226,1.6301,1.5907,1.5989,1.5871,1.5281,1.5423,1.5239,1.4476,1.4579,1.441,1.392,1.3822,1.3717,1.3717,1.3556,1.348,1.348,1.2854,1.199,1.09,1.09,0.9995,0.8482,0.8482,0.8543,0.8652,0.876,0.8828,0.8862,0.8669,0.8106,0.7354,0.5966,0.5076,0.4426,0.4296,0.4198,0.4216,0.4302,0.4783,0.5277,0.5179,0.5088,0.512,0.5147,0.3634,0.1613,0.0327,-0.0,-0.0,-0.0,-0.0,-0.0224,-0.0897,-0.2357,-0.3594,-0.3593,-0.359,-0.3587,-0.3587,-0.3587,-0.3587,-0.3587,-0.3587,-0.3587,-0.3587,-0.359,-0.3593,-0.3593,-0.3593,-0.3593,-0.3593,-0.359,-0.3587,-0.3587,-0.3591,-0.3594,-0.3594,-0.3256,-0.2132,-0.0,-0.0,-0.0223,-0.0551,-0.251,-0.3495,-0.3416,-0.347,-0.3496,0.9823,1.0309,1.095,1.1589,1.2179,1.2783,1.3881,1.4396,1.4836,1.5658,1.5832,1.5832,1.5832,1.5832,1.5832,1.5832,1.5832,1.5832,1.5832,1.5832,1.5832,1.5832,1.5985,1.5906,1.5428,1.5484,1.5282,1.4582,1.4572,1.443,1.3825,1.4059,1.4095,1.3685,1.3771,1.382,1.382,1.3782,1.376,1.3766,1.2916,1.2068,1.1217,1.0822,0.9875,0.8662,0.8662,0.8716,0.8804,0.8835,0.8849,0.8832,0.8585,0.8428,0.8094,0.7369,0.6487,0.5737,0.5695,0.5606,0.553,0.5387,0.5439,0.5392,0.5187,0.5092,0.5118,0.5037,0.3774,0.2217,0.0428,-0.0,-0.0,-0.0,-0.0,-0.0112,-0.0561,-0.1907,-0.3031,-0.3479,-0.359,-0.3587,-0.3587,-0.3587,-0.3587,-0.3587,-0.3589,-0.359,-0.359,-0.3593,-0.3369,-0.2919,-0.3031,-0.3256,-0.3594,-0.359,-0.3589,-0.359,-0.3593,-0.3594,-0.3594,-0.3594,-0.2469,-0.0,-0.0,-0.0,-0.0,-0.1975,-0.3075,-0.3428,-0.351,-0.3529,1.0805,1.1059,1.1242,1.2369,1.286,1.3404,1.4677,1.519,1.5478,1.5765,1.5832,1.5832,1.5832,1.5832,1.5832,1.5832,1.5832,1.5832,1.5832,1.5832,1.5832,1.5832,1.5832,1.5642,1.5178,1.5083,1.4598,1.3539,1.3652,1.3573,1.3071,1.3308,1.3443,1.3443,1.3669,1.3787,1.3787,1.4013,1.4126,1.4126,1.3146,1.2281,1.1511,1.0393,0.9559,0.894,0.8923,0.8916,0.8906,0.8754,0.8689,0.8676,0.8523,0.8151,0.7629,0.7617,0.7296,0.6752,0.6641,0.6676,0.654,0.6019,0.5853,0.5814,0.5195,0.5068,0.4955,0.4877,0.3681,0.207,0.0415,-0.0,-0.0,-0.0,-0.0,-0.0336,-0.1683,-0.202,-0.2243,-0.3363,-0.3587,-0.3587,-0.3587,-0.3587,-0.3587,-0.3589,-0.3591,-0.3594,-0.3482,-0.3482,-0.3144,-0.2132,-0.2244,-0.2693,-0.3482,-0.3585,-0.3583,-0.3594,-0.359,-0.3589,-0.3594,-0.3369,-0.2244,-0.0,-0.0,-0.0,-0.0,-0.1104,-0.2321,-0.3593,-0.3533,-0.3536,1.0914,1.1287,1.1796,1.2615,1.3526,1.4287,1.4912,1.519,1.5478,1.5765,1.5832,1.5832,1.5832,1.5832,1.5832,1.5832,1.5832,1.5832,1.5832,1.5832,1.5832,1.5832,1.5832,1.5642,1.5178,1.4694,1.4208,1.3539,1.3202,1.3035,1.284,1.3055,1.3184,1.3184,1.3421,1.355,1.355,1.3604,1.3631,1.3631,1.2163,1.1326,1.1125,1.0413,0.9669,0.893,0.8811,0.876,0.8747,0.8594,0.853,0.8516,0.8374,0.8213,0.8097,0.7978,0.7529,0.7119,0.7089,0.6796,0.6409,0.6282,0.605,0.581,0.55,0.522,0.4955,0.4877,0.3647,0.2037,0.0414,-0.0,-0.0,-0.0,-0.0,-0.0561,-0.2693,-0.3256,-0.3256,-0.3593,-0.359,-0.3587,-0.3587,-0.3587,-0.3589,-0.3593,-0.3594,-0.3256,-0.2356,-0.3031,-0.3482,-0.3256,-0.2469,-0.2357,-0.3482,-0.3549,-0.3653,-0.3591,-0.3549,-0.3545,-0.3593,-0.1795,-0.0561,-0.0,-0.0,-0.0,-0.0,-0.0223,-0.1453,-0.3594,-0.3579,-0.3578,1.0942,1.1395,1.2005,1.2815,1.3804,1.465,1.5156,1.5354,1.553,1.5958,1.592,1.5832,1.5832,1.5832,1.5832,1.5832,1.5832,1.5832,1.5832,1.5832,1.5832,1.5832,1.5832,1.554,1.4783,1.449,1.401,1.3249,1.2958,1.2764,1.2764,1.2877,1.2942,1.2942,1.3173,1.3303,1.3303,1.3421,1.348,1.3475,1.1817,1.0573,0.9847,0.9496,0.9147,0.8716,0.8635,0.8601,0.8587,0.8442,0.8381,0.8367,0.8218,0.816,0.815,0.8069,0.7839,0.7537,0.7537,0.7437,0.7138,0.6836,0.6478,0.6012,0.5653,0.5271,0.49,0.4865,0.3636,0.2023,0.0409,-0.0,-0.0,-0.0,-0.0,-0.0556,-0.2353,-0.3144,-0.3594,-0.3591,-0.3591,-0.359,-0.3589,-0.3587,-0.3589,-0.3594,-0.3143,-0.2693,-0.2693,-0.2244,-0.2356,-0.3482,-0.2469,-0.2237,-0.3442,-0.3632,-0.3626,-0.3549,-0.3632,-0.3642,-0.3591,-0.1234,-0.0,-0.0,-0.0,-0.0,-0.0,-0.0,-0.0673,-0.1907,-0.3031,-0.3593,1.0821,1.1376,1.2029,1.2939,1.3794,1.4568,1.5354,1.5424,1.5636,1.6288,1.6092,1.5832,1.5832,1.5832,1.5832,1.5832,1.5832,1.5832,1.5832,1.5832,1.5832,1.5832,1.5832,1.5445,1.4496,1.4394,1.3913,1.2958,1.2861,1.2764,1.2764,1.2764,1.2764,1.2764,1.2947,1.3044,1.3044,1.3254,1.3357,1.3357,1.1713,1.0063,0.8404,0.8404,0.8435,0.8479,0.8455,0.8445,0.8435,0.8289,0.8231,0.8218,0.8089,0.8038,0.8038,0.8038,0.8038,0.8038,0.8038,0.8038,0.7939,0.7437,0.6936,0.6437,0.5934,0.5336,0.4937,0.4851,0.3636,0.2018,0.0404,-0.0,-0.0,-0.0,-0.0,-0.0329,-0.1564,-0.2693,-0.3593,-0.359,-0.3479,-0.3481,-0.3589,-0.3589,-0.3589,-0.3594,-0.2581,-0.2132,-0.2919,-0.1234,-0.0897,-0.3369,-0.2687,-0.2444,-0.3507,-0.3375,-0.3262,-0.3283,-0.3056,-0.2969,-0.3029,-0.1009,-0.0,-0.0,-0.0,-0.0,-0.0,-0.0449,-0.0561,-0.0336,-0.2581,-0.3594,1.042,1.1182,1.2096,1.297,1.3487,1.4061,1.5255,1.5526,1.5658,1.6287,1.6092,1.5832,1.5832,1.5832,1.5832,1.5832,1.5832,1.5832,1.5832,1.5832,1.5832,1.5832,1.5832,1.5547,1.5083,1.4592,1.401,1.3443,1.3055,1.2764,1.2764,1.2764,1.2764,1.2764,1.2791,1.2807,1.2807,1.2845,1.2856,1.2861,1.1279,0.9594,0.8099,0.8099,0.8238,0.8476,0.835,0.8299,0.8286,0.8133,0.8069,0.8069,0.8048,0.8038,0.8038,0.8038,0.8038,0.8038,0.8038,0.8038,0.7939,0.7939,0.7537,0.7039,0.6437,0.5937,0.5438,0.4951,0.3636,0.2018,0.0404,-0.0,-0.0,-0.0,-0.0,-0.0324,-0.156,-0.2693,-0.3594,-0.3594,-0.3031,-0.2807,-0.3481,-0.359,-0.3589,-0.3594,-0.2581,-0.1458,-0.0561,-0.0224,-0.0897,-0.3369,-0.3325,-0.3292,-0.3504,-0.266,-0.2011,-0.2074,-0.1079,-0.0434,-0.0448,-0.0224,-0.0,-0.0,-0.0,-0.0,-0.0,-0.2132,-0.2581,-0.157,-0.2919,-0.3593,1.0837,1.1738,1.2662,1.3379,1.4116,1.4925,1.5868,1.6042,1.6215,1.6855,1.6729,1.6246,1.5859,1.5832,1.5832,1.5832,1.5832,1.5832,1.5832,1.5832,1.5832,1.5832,1.5832,1.5547,1.4688,1.44,1.401,1.3152,1.2958,1.2764,1.2764,1.2764,1.2764,1.2764,1.2764,1.2764,1.2764,1.2764,1.237,1.1487,1.0708,0.9521,0.8038,0.8038,0.8109,0.8231,0.817,0.814,0.8136,0.8069,0.8038,0.8038,0.8038,0.8038,0.8038,0.8038,0.8038,0.8038,0.8038,0.8038,0.8038,0.8038,0.7437,0.6736,0.6437,0.5834,0.5138,0.4851,0.3636,0.2018,0.0404,-0.0,-0.0,-0.0,-0.0,-0.0538,-0.2451,-0.3256,-0.3594,-0.3594,-0.2919,-0.2693,-0.3482,-0.359,-0.3589,-0.3594,-0.2581,-0.1346,-0.0112,-0.0,-0.0673,-0.2357,-0.3097,-0.338,-0.3455,-0.2977,-0.212,-0.0862,-0.0324,-0.0,-0.0,-0.0,-0.0,-0.0,-0.0,-0.0673,-0.202,-0.3031,-0.3369,-0.2807,-0.3369,-0.3593,1.1027,1.1752,1.2466,1.3414,1.429,1.5226,1.6047,1.6359,1.6598,1.7115,1.7173,1.6838,1.5968,1.5852,1.5927,1.5818,1.5832,1.5832,1.5832,1.5832,1.5832,1.5832,1.5832,1.5445,1.4394,1.4298,1.3913,1.2856,1.2764,1.2764,1.2764,1.2764,1.2764,1.2764,1.2764,1.2764,1.2764,1.2764,1.198,1.0413,1.0413,0.9521,0.8038,0.8038,0.8038,0.8038,0.8038,0.8038,0.8038,0.8038,0.8038,0.8038,0.8038,0.8038,0.8038,0.8038,0.8038,0.8038,0.8038,0.8038,0.8038,0.8038,0.7437,0.6736,0.6437,0.5837,0.5138,0.4851,0.3636,0.2018,0.0404,-0.0,-0.0,-0.0,0.0747,0.0646,-0.2116,-0.3144,-0.3594,-0.3594,-0.2919,-0.2581,-0.3482,-0.359,-0.3589,-0.3594,-0.2581,-0.1346,-0.0112,-0.0,-0.0449,-0.1683,-0.2764,-0.3485,-0.344,-0.31,-0.235,-0.0859,-0.0326,-0.0221,-0.0897,-0.0897,-0.0785,-0.0449,-0.0449,-0.1458,-0.3594,-0.3594,-0.3594,-0.3594,-0.3593,-0.3593,1.0408,1.055,1.0934,1.255,1.3248,1.3852,1.5278,1.6078,1.6533,1.6507,1.7077,1.7118,1.6087,1.6133,1.6246,1.5873,1.5832,1.5832,1.5832,1.5832,1.5832,1.5832,1.5832,1.5445,1.4394,1.4298,1.3913,1.2856,1.2764,1.2764,1.2764,1.2764,1.2764,1.2764,1.2764,1.2764,1.2764,1.2764,1.198,1.0413,1.0413,0.9521,0.8038,0.8038,0.8038,0.8038,0.8038,0.8038,0.8038,0.8038,0.8038,0.8038,0.8038,0.8038,0.8038,0.8038,0.8038,0.8038,0.8038,0.8038,0.8038,0.8038,0.7939,0.7739,0.6736,0.6334,0.6139,0.5052,0.3636,0.2018,0.0404,-0.0,-0.0,-0.0,0.2667,0.4095,0.0556,-0.202,-0.3594,-0.3594,-0.2693,-0.2244,-0.3369,-0.359,-0.3589,-0.3594,-0.2581,-0.1346,-0.0112,-0.0,-0.0449,-0.1683,-0.2874,-0.3612,-0.3499,-0.2367,-0.2039,-0.2948,-0.1094,-0.0993,-0.3367,-0.3369,-0.2919,-0.1683,-0.1683,-0.2356,-0.3594,-0.3594,-0.3594,-0.3594,-0.359,-0.3589,1.0563,1.1131,1.1856,1.2404,1.3566,1.4592,1.4752,1.5647,1.6357,1.6021,1.6245,1.6507,1.6324,1.6139,1.5931,1.5597,1.5551,1.5618,1.5805,1.5832,1.5832,1.5832,1.5832,1.5445,1.4394,1.4298,1.3913,1.2856,1.2764,1.2764,1.2764,1.2764,1.2764,1.2764,1.2764,1.2764,1.2764,1.2764,1.198,1.0413,1.0413,0.9521,0.8038,0.8038,0.8038,0.8038,0.8038,0.8038,0.8038,0.8038,0.8038,0.8038,0.8038,0.8038,0.8038,0.8038,0.8038,0.8038,0.8038,0.8038,0.8038,0.8038,0.7739,0.7338,0.6637,0.6137,0.5739,0.5052,0.3636,0.2018,0.0404,-0.0,0.0508,0.2605,0.4273,0.5013,0.3744,0.1001,-0.1234,-0.1234,-0.0897,-0.1234,-0.3256,-0.3593,-0.3593,-0.3594,-0.3256,-0.2244,-0.0224,-0.0,-0.0112,-0.0561,-0.2432,-0.3613,-0.3613,-0.2938,-0.2174,-0.1204,-0.188,-0.2678,-0.3593,-0.3594,-0.3369,-0.2919,-0.2919,-0.3144,-0.3594,-0.3594,-0.3593,-0.359,-0.3589,-0.3587,1.0504,1.1169,1.2059,1.2513,1.3434,1.434,1.4478,1.5219,1.5763,1.5709,1.5973,1.6316,1.6316,1.6312,1.6089,1.5631,1.5609,1.5626,1.5645,1.5685,1.5718,1.5818,1.5832,1.5445,1.4394,1.4298,1.3913,1.2856,1.2764,1.2764,1.2764,1.2764,1.2764,1.2764,1.2764,1.2764,1.2764,1.2764,1.198,1.0413,1.0413,0.9521,0.8038,0.8038,0.8038,0.8038,0.8038,0.8038,0.8038,0.8038,0.8038,0.8038,0.8038,0.8038,0.8038,0.8038,0.8038,0.8038,0.8038,0.8038,0.8038,0.8038,0.7739,0.7338,0.6836,0.6337,0.5737,0.5046,0.3734,0.2421,0.111,0.0811,0.1533,0.4245,0.5104,0.5331,0.5356,0.3434,0.1457,0.0224,0.0112,-0.0224,-0.2132,-0.2693,-0.3144,-0.3594,-0.3594,-0.2693,-0.0336,-0.0,-0.0,-0.0,-0.1443,-0.2759,-0.3534,-0.3424,-0.2429,-0.011,-0.2231,-0.3594,-0.3594,-0.3594,-0.3594,-0.3594,-0.3594,-0.3594,-0.3594,-0.3593,-0.359,-0.3587,-0.3587,-0.3811,0.0,0.0,0.0,1.2655,1.2702,1.2789,1.4352,1.4517,1.4668,1.5638,1.6215,1.6413,1.6121,1.6519,1.6664,1.5958,1.5903,1.5756,1.5429,1.5384,1.5484,1.5772,1.5812,1.5432,1.4382,1.4292,1.3913,1.2861,1.2764,1.2764,1.2764,1.2764,1.2764,1.2764,1.2764,1.2764,1.2764,1.2764,1.198,1.0413,1.0413,0.9521,0.8038,0.8038,0.8038,0.8038,0.8038,0.8038,0.8038,0.8038,0.8038,0.8038,0.8038,0.8038,0.8038,0.8038,0.8038,0.8038,0.8038,0.8038,0.8038,0.8038,0.8038,0.7939,0.7338,0.6836,0.6237,0.5135,0.4029,0.3123,0.2622,0.2454,0.2901,0.4562,0.5047,0.503,0.5222,0.5318,0.4375,0.0785,0.056,0.0672,0.0112,-0.1009,-0.2132,-0.3369,-0.3482,-0.2693,-0.0336,-0.0,-0.0,-0.0,-0.0,-0.0897,-0.3256,-0.3482,-0.2469,-0.0112,-0.2244,-0.3594,-0.3594,-0.3594,-0.3594,-0.3594,-0.3594,-0.3594,-0.3594,-0.3589,-0.3587,-0.3587,-0.3587,-0.4035,1.0749,0.0,0.0,0.0,0.0,0.0,1.2465,1.294,1.3576,1.4018,1.402,1.4199,1.524,1.529,1.5175,1.5029,1.5369,1.5528,1.5134,1.5084,1.511,1.5197,1.5391,1.5232,1.4565,1.4368,1.401,1.3346,1.2958,1.2764,1.2764,1.2764,1.2764,1.2764,1.2764,1.2764,1.2764,1.2764,1.198,1.0413,1.0413,0.9521,0.8038,0.8038,0.8038,0.8038,0.8038,0.8038,0.8038,0.8038,0.8038,0.8038,0.8038,0.8038,0.8038,0.8038,0.8038,0.8038,0.8038,0.8038,0.8038,0.8038,0.8038,0.7939,0.7338,0.7135,0.6637,0.5236,0.4632,0.4332,0.4142,0.4159,0.4277,0.4782,0.4953,0.5043,0.5128,0.5218,0.4974,0.4029,0.1905,0.0224,-0.0,-0.0224,-0.0561,-0.0897,-0.1009,-0.0785,-0.0112,-0.0,-0.0,-0.0,-0.0,-0.0224,-0.0897,-0.1009,-0.0673,-0.0,-0.1458,-0.2693,-0.3594,-0.3594,-0.3594,-0.3594,-0.2693,-0.2244,-0.2244,-0.3143,-0.3593,-0.3593,-0.3589,-0.4035,1.1202,1.164,1.2166,1.1805,0.0,0.0,1.2293,1.2492,1.2892,1.3529,1.3446,1.3542,1.4653,1.4772,1.4467,1.4055,1.4653,1.505,1.4804,1.4776,1.4823,1.495,1.511,1.5028,1.446,1.4253,1.3945,1.3374,1.2995,1.2764,1.2764,1.2764,1.2764,1.2764,1.2764,1.2764,1.2764,1.2764,1.198,1.0413,1.0413,0.9521,0.8038,0.8038,0.8038,0.8038,0.8038,0.8038,0.8038,0.8038,0.8038,0.8038,0.8038,0.8038,0.8038,0.8038,0.8038,0.8038,0.8038,0.8038,0.8038,0.8038,0.8038,0.7939,0.764,0.7338,0.6936,0.5837,0.5135,0.4836,0.4845,0.4847,0.4847,0.4843,0.4881,0.4955,0.5081,0.5151,0.5226,0.5361,0.3138,0.0897,0.0112,-0.0,-0.0,-0.0,-0.0,-0.0,-0.0,-0.0,-0.0,-0.0,-0.0,-0.0,-0.0,-0.0,-0.0,-0.0,-0.1121,-0.2356,-0.3594,-0.3594,-0.3369,-0.2807,-0.2693,-0.2356,-0.1795,-0.2693,-0.3255,-0.3591,-0.3589,-0.4035,1.1672,1.2063,1.2688,1.265,1.2326,0.0,1.3034,1.2728,1.2503,1.3706,1.3648,1.3546,1.4149,1.4332,1.4104,1.3151,1.3822,1.4377,1.4421,1.4449,1.4569,1.4836,1.4897,1.4731,1.4263,1.4068,1.3671,1.3193,1.2868,1.2727,1.2727,1.2748,1.2764,1.2764,1.2764,1.2764,1.2764,1.2662,1.1878,1.0413,1.0314,0.9422,0.8038,0.8038,0.8038,0.8038,0.8038,0.8038,0.8038,0.8038,0.8038,0.8038,0.8038,0.8038,0.8038,0.8038,0.8038,0.8038,0.8038,0.8038,0.8038,0.8038,0.8038,0.8038,0.8038,0.764,0.7135,0.6537,0.5636,0.4834,0.4834,0.4834,0.4834,0.4834,0.4834,0.4885,0.5067,0.5108,0.5163,0.5345,0.4145,0.2353,0.0336,-0.0,-0.0,-0.0,-0.0,-0.0,-0.0,-0.0,-0.0,-0.0,-0.0,-0.0,-0.0,-0.0,-0.0112,-0.0336,-0.1234,-0.2356,-0.3594,-0.3594,-0.3143,-0.202,-0.2801,-0.2689,-0.1795,-0.2244,-0.2917,-0.3587,-0.3587,-0.4035,1.2715,1.3192,1.3671,1.3152,1.3424,0.0,1.2599,1.2609,1.2879,1.3028,1.2423,1.203,1.2409,1.252,1.247,1.2011,1.2631,1.3277,1.3734,1.4021,1.4195,1.4249,1.4462,1.4515,1.4427,1.4231,1.3944,1.3495,1.2813,1.2484,1.2484,1.2662,1.2764,1.2764,1.2764,1.2764,1.2764,1.2175,1.1389,1.0413,0.9715,0.8924,0.8038,0.8038,0.8038,0.8038,0.8038,0.8038,0.8038,0.8038,0.8038,0.8038,0.8038,0.8038,0.8038,0.8038,0.8038,0.8038,0.8038,0.8038,0.8038,0.8038,0.8038,0.8038,0.8038,0.7939,0.7637,0.6637,0.5636,0.4834,0.4834,0.4834,0.4834,0.4834,0.4834,0.4885,0.5067,0.5108,0.5163,0.5345,0.5156,0.381,0.0561,-0.0,-0.0,-0.0,-0.0,-0.0,-0.0,-0.0,-0.0,-0.0,-0.0,-0.0,-0.0,-0.0,-0.0785,-0.2807,-0.2244,-0.2356,-0.3594,-0.3594,-0.3482,-0.3256,-0.1551,-0.1107,-0.1795,-0.2807,-0.3479,-0.3587,-0.3587,-0.4035,1.3369,1.3652,1.4087,1.398,1.3873,0.0,0.0,1.2881,1.2878,1.3266,1.2341,1.1749,1.2693,1.2055,1.1462,1.1906,1.2276,1.2675,1.3124,1.3488,1.3701,1.3848,1.3995,1.4142,1.4289,1.4119,1.3709,1.3132,1.2531,1.2285,1.2409,1.2527,1.2646,1.2759,1.2764,1.2764,1.2764,1.237,1.1585,1.0413,1.0015,0.9122,0.8038,0.8038,0.8038,0.8038,0.8038,0.8038,0.8038,0.8038,0.8038,0.8038,0.8038,0.8038,0.8038,0.8038,0.8038,0.8038,0.8038,0.8038,0.8038,0.8038,0.8038,0.8038,0.8038,0.764,0.7135,0.6537,0.5636,0.4834,0.4834,0.4834,0.4834,0.4834,0.4834,0.4885,0.5067,0.5108,0.5163,0.5345,0.5382,0.4821,0.3027,0.1233,-0.0,-0.0,-0.0,-0.0,-0.0,-0.0,-0.0,-0.0,0.157,0.2693,0.2693,0.1906,0.0784,-0.0336,-0.0896,-0.1233,-0.1345,-0.2243,-0.2469,-0.1795,-0.0668,-0.0554,-0.1662,-0.3018,-0.3593,-0.3587,-0.3587,-0.3811,1.4082,1.418,1.4551,1.4736,1.4221,1.3657,0.0,0.0,0.0,1.3543,1.2483,1.1873,1.3126,1.189,1.0972,1.1896,1.202,1.2038,1.2285,1.2634,1.299,1.3339,1.3534,1.3709,1.3814,1.3471,1.3151,1.2687,1.2187,1.2015,1.2258,1.2366,1.2501,1.2689,1.2737,1.2764,1.2764,1.2667,1.1883,1.0605,1.031,0.9521,0.8233,0.8038,0.8038,0.8038,0.8038,0.8038,0.8038,0.8038,0.8038,0.8038,0.8038,0.8038,0.8038,0.8038,0.8038,0.8038,0.8038,0.8038,0.8038,0.8038,0.8038,0.8038,0.8038,0.7238,0.6437,0.6437,0.5636,0.4834,0.4834,0.4834,0.4834,0.4834,0.4834,0.4879,0.5047,0.5096,0.5157,0.5322,0.5369,0.5384,0.539,0.2802,0.056,0.0112,-0.0,-0.0,-0.0,-0.0,-0.0,-0.0,0.2581,0.4609,0.529,0.4041,0.3026,0.2688,0.0784,-0.0224,-0.0,-0.0896,-0.1009,-0.0,-0.0,-0.0552,-0.164,-0.2866,-0.3552,-0.357,-0.3582,-0.3587,1.5322,1.5508,1.5674,1.4961,1.5283,1.5293,1.3447,0.0,1.3465,1.2821,0.0,1.1939,1.1705,0.0,0.0,1.0651,1.0702,1.0737,1.0592,1.1298,1.2004,1.2585,1.3452,1.3782,1.2997,1.2317,1.2072,1.2637,1.179,1.1343,1.1747,1.2183,1.2425,1.2452,1.2657,1.2764,1.2764,1.2078,1.1683,1.1487,1.0006,0.9217,0.9019,0.8333,0.8038,0.8038,0.8038,0.8038,0.8038,0.8038,0.8038,0.8038,0.8038,0.8038,0.8038,0.8038,0.8038,0.8038,0.8038,0.8038,0.8038,0.8038,0.8038,0.8038,0.8038,0.7238,0.6437,0.6437,0.5636,0.4834,0.4834,0.4834,0.4834,0.4834,0.4834,0.4863,0.4965,0.5051,0.5139,0.5241,0.5326,0.5382,0.5382,0.4143,0.2463,0.0336,-0.0,-0.0,-0.0,-0.0,-0.0,-0.0,0.0336,0.1908,0.5176,0.5176,0.438,0.2576,0.1343,-0.0448,-0.3025,-0.1233,-0.0112,-0.0,-0.0,-0.054,-0.164,-0.2657,-0.3298,-0.3508,-0.3563,-0.3587,1.5527,1.597,1.6387,1.5733,1.571,1.5415,1.392,1.3404,1.3295,1.342,0.0,0.0,0.0,0.0,0.0,0.0,1.1226,1.0914,1.1043,1.1308,1.1603,1.1924,1.2596,1.2928,1.2898,1.2087,1.175,1.2198,1.1294,1.0922,1.1451,1.1688,1.1989,1.2398,1.2511,1.2624,1.2764,1.2467,1.2073,1.1585,1.0895,1.0306,0.9912,0.9023,0.8726,0.8627,0.8237,0.8038,0.8038,0.8038,0.8038,0.8038,0.8531,0.8432,0.8038,0.8038,0.8038,0.8038,0.8038,0.8038,0.8038,0.8038,0.8038,0.8038,0.8038,0.7238,0.6437,0.6437,0.5636,0.4834,0.4834,0.4834,0.4834,0.4834,0.4834,0.4859,0.4951,0.5002,0.5071,0.5216,0.5275,0.5318,0.5371,0.4931,0.4258,0.3255,0.1346,-0.0,-0.0,-0.0,-0.0,-0.0,0.0897,0.2129,0.3702,0.4828,0.505,0.4145,0.2799,0.0224,-0.3479,-0.1334,-0.0,-0.0,-0.0,-0.0532,-0.1591,-0.2641,-0.3276,-0.3397,-0.3456,-0.3503,1.6277,1.6769,1.7234,1.6517,1.6046,1.5464,1.4165,1.3547,1.3359,1.3857,1.3261,0.0,0.0,0.0,1.1971,1.2482,0.0,1.1249,1.1121,1.1202,1.1231,1.1114,1.141,1.1854,1.2509,1.173,1.1357,1.1695,1.081,1.054,1.1095,1.1214,1.1548,1.2199,1.2344,1.2495,1.2667,1.2732,1.2467,1.1883,1.1878,1.1385,1.0703,1.0006,0.9702,0.9706,0.8726,0.8432,0.8531,0.8137,0.8038,0.8038,0.8627,0.8531,0.8038,0.8237,0.8333,0.8336,0.8038,0.8038,0.8038,0.8038,0.8038,0.8038,0.8038,0.7338,0.6637,0.6437,0.5734,0.5035,0.4834,0.4834,0.4834,0.4834,0.4834,0.4853,0.492,0.4953,0.501,0.5143,0.519,0.5228,0.5296,0.5347,0.5386,0.5396,0.2915,0.0896,0.0784,0.0336,0.0224,0.0672,0.2354,0.3475,0.3473,0.4596,0.5382,0.5382,0.3681,0.1112,-0.2451,-0.0877,-0.0,-0.0,-0.0,-0.0526,-0.1555,-0.2719,-0.3243,-0.3323,-0.3384,-0.3435,1.8094,1.8447,1.8488,1.7111,1.6457,1.5725,1.3858,1.376,1.3984,1.3603,1.416,1.46,1.4155,1.3521,1.2941,1.257,1.2169,0.0,0.0,1.0447,1.0678,1.0053,1.0086,1.0567,1.1572,1.0866,1.0588,1.1301,1.0482,1.0185,1.0584,1.0875,1.1219,1.1709,1.2172,1.242,1.2425,1.2651,1.2764,1.2764,1.2446,1.2058,1.1585,1.1277,1.1175,1.1072,0.9706,0.941,0.9801,0.8531,0.8038,0.8038,0.8038,0.8038,0.8137,0.892,0.9118,0.9019,0.8233,0.8038,0.8038,0.8038,0.8038,0.8038,0.8038,0.764,0.7039,0.6537,0.6037,0.5436,0.4935,0.4834,0.4834,0.4834,0.4834,0.4836,0.4839,0.4908,0.4973,0.4979,0.5051,0.5114,0.5116,0.5263,0.5382,0.5382,0.4255,0.3245,0.2688,0.1121,0.0673,0.2464,0.4268,0.5284,0.527,0.5382,0.5382,0.5382,0.375,0.1858,-0.0,-0.0,-0.0,-0.0,-0.0,-0.0519,-0.1555,-0.2651,-0.3266,-0.3323,-0.3384,-0.3413,1.8202,1.8829,1.9179,1.8083,1.7474,1.6721,1.5139,1.4892,1.478,1.4033,1.4659,1.5089,1.4272,1.3907,1.3613,1.3204,1.2659,1.2018,0.0,1.0818,1.0441,1.0031,1.0129,1.0366,1.0696,1.038,1.0203,1.0344,1.008,0.9978,1.011,1.0541,1.0972,1.1451,1.1774,1.2097,1.2414,1.2495,1.2608,1.2764,1.3044,1.3044,1.2856,1.2543,1.2242,1.1853,1.0974,1.0096,0.941,0.9019,0.8432,0.8038,0.8627,0.8825,0.8726,0.8528,0.8432,0.8333,0.8137,0.8038,0.8038,0.8038,0.8038,0.8038,0.8038,0.764,0.7135,0.6936,0.6537,0.6037,0.5436,0.5334,0.5236,0.4834,0.4834,0.4834,0.4834,0.4859,0.49,0.4961,0.4998,0.5037,0.5098,0.5159,0.5202,0.5208,0.5039,0.4742,0.4524,0.3902,0.3818,0.4382,0.5058,0.5394,0.539,0.5386,0.5382,0.5382,0.4856,0.317,0.0109,-0.0,-0.0,-0.0,-0.0,-0.051,-0.1628,-0.2632,-0.3241,-0.3262,-0.3282,-0.3313,1.8998,1.9585,1.9986,1.9022,1.8441,1.7723,1.6306,1.6095,1.5934,1.5005,1.5454,1.5833,1.5135,1.4622,1.4277,1.4004,1.3328,1.2619,0.0,1.1015,1.0364,1.0167,1.0026,1.0014,1.0181,1.0079,0.998,0.9802,0.9774,0.9802,0.9873,1.0213,1.0638,1.1203,1.1532,1.1887,1.228,1.2371,1.2533,1.2764,1.3437,1.363,1.3539,1.3522,1.3318,1.2926,1.1858,1.0979,1.0293,0.9509,0.8924,0.8432,0.8726,0.8726,0.8726,0.8531,0.8237,0.8038,0.8038,0.8038,0.8038,0.8038,0.8038,0.8038,0.8038,0.7739,0.7437,0.7238,0.6936,0.6537,0.6037,0.5734,0.5534,0.5133,0.4935,0.4834,0.4834,0.4834,0.4853,0.4912,0.4922,0.4943,0.5,0.5012,0.5035,0.5104,0.5272,0.5312,0.5312,0.5261,0.5314,0.5343,0.5345,0.5355,0.5386,0.5384,0.5367,0.5447,0.5364,0.3891,0.0537,-0.0627,-0.0926,-0.0617,-0.0609,-0.111,-0.2219,-0.3229,-0.3734,-0.363,-0.3932,-0.4058]},{"header":{"parameterUnit":"m.s-1","parameterCategory":1,"la1":30.6,"la2":29.2853,"lo1":-89.7004,"lo2":-87.6739,"dy":0.0162,"dx":0.0183,"nx":112,"ny":82,"refTime":"2024-09-12T06:00:00:Z","depth":0,"parameterNumber":3,"parameterNumberName":"V-component_of_WINDS"},"data":[0.0,0.0,0.0,0.0,0.0,0.0,0.0,0.0,0.0,0.0,0.0,0.0,0.0,0.0,0.0,0.0,0.0,0.0,0.0,0.0,0.0,0.0,0.0,0.0,0.0,0.0,0.0,0.0,0.0,0.0,0.0,0.0,0.0,0.0,0.0,0.0,0.0,0.0,0.0,0.0,0.0,0.0,0.0,0.0,0.0,0.0,0.0,0.0,0.0,0.0,0.0,0.0,0.0,0.0,0.0,0.0,0.0,0.0,0.0,0.0,0.0,0.0,0.0,0.0,0.0,0.0,0.0,0.0,0.0,0.0,0.0,0.0,0.0,0.0,0.0,0.0,0.0,0.0,0.0,0.0,0.0,0.0,0.0,0.0,0.0,0.0,0.0,0.0,0.0,0.0,-2.5095,-2.6907,-2.7764,-2.7901,-2.716,-2.6987,-2.6073,-2.4148,0.0,0.0,0.0,0.0,0.0,0.0,0.0,0.0,0.0,0.0,0.0,0.0,0.0,0.0,0.0,0.0,0.0,0.0,0.0,0.0,0.0,0.0,0.0,0.0,0.0,0.0,0.0,0.0,0.0,0.0,0.0,0.0,0.0,0.0,0.0,0.0,0.0,0.0,0.0,0.0,0.0,0.0,0.0,0.0,0.0,0.0,0.0,0.0,0.0,0.0,0.0,0.0,0.0,0.0,0.0,0.0,0.0,0.0,0.0,0.0,0.0,0.0,0.0,0.0,0.0,0.0,0.0,0.0,0.0,0.0,0.0,0.0,0.0,0.0,0.0,0.0,0.0,0.0,0.0,0.0,0.0,0.0,0.0,0.0,0.0,0.0,0.0,0.0,0.0,0.0,0.0,0.0,0.0,0.0,0.0,0.0,0.0,0.0,0.0,0.0,0.0,0.0,0.0,0.0,-2.5329,-2.7745,-2.8115,-2.8154,-2.8017,-2.7337,-2.584,-2.3339,0.0,0.0,0.0,0.0,0.0,0.0,0.0,0.0,0.0,0.0,0.0,0.0,0.0,0.0,0.0,0.0,0.0,0.0,0.0,0.0,0.0,0.0,0.0,0.0,0.0,0.0,0.0,0.0,0.0,0.0,0.0,0.0,0.0,0.0,0.0,0.0,0.0,0.0,0.0,0.0,0.0,0.0,0.0,0.0,0.0,0.0,0.0,0.0,0.0,0.0,0.0,0.0,0.0,0.0,0.0,0.0,0.0,0.0,0.0,0.0,0.0,0.0,0.0,0.0,0.0,0.0,0.0,0.0,0.0,0.0,0.0,0.0,0.0,0.0,0.0,0.0,0.0,0.0,0.0,0.0,0.0,0.0,0.0,0.0,0.0,0.0,0.0,0.0,0.0,0.0,0.0,0.0,0.0,0.0,0.0,0.0,0.0,0.0,0.0,0.0,0.0,0.0,0.0,-2.5439,-2.6958,-2.808,-2.861,-2.8719,-2.8251,-2.7379,-2.5758,-2.3165,-2.2813,0.0,0.0,0.0,0.0,0.0,0.0,0.0,0.0,0.0,0.0,0.0,0.0,0.0,0.0,0.0,0.0,0.0,0.0,0.0,0.0,0.0,0.0,0.0,0.0,0.0,0.0,0.0,0.0,0.0,0.0,0.0,0.0,0.0,0.0,0.0,0.0,0.0,0.0,0.0,0.0,0.0,0.0,0.0,0.0,0.0,0.0,0.0,0.0,0.0,0.0,0.0,0.0,0.0,0.0,0.0,0.0,0.0,0.0,0.0,0.0,0.0,0.0,0.0,0.0,0.0,0.0,0.0,0.0,0.0,0.0,0.0,0.0,0.0,0.0,0.0,0.0,0.0,0.0,0.0,0.0,0.0,0.0,0.0,0.0,0.0,0.0,0.0,0.0,0.0,0.0,0.0,0.0,0.0,0.0,0.0,0.0,0.0,0.0,0.0,0.0,0.0,0.0,-2.7212,-2.8289,-2.8235,-2.8993,-2.9152,-2.8271,-2.7342,-2.5719,-2.3159,-2.2752,0.0,0.0,0.0,0.0,0.0,0.0,0.0,0.0,0.0,0.0,0.0,0.0,0.0,0.0,0.0,0.0,0.0,0.0,0.0,0.0,0.0,0.0,0.0,0.0,0.0,0.0,0.0,0.0,0.0,0.0,0.0,0.0,0.0,0.0,0.0,0.0,0.0,0.0,0.0,0.0,0.0,0.0,0.0,0.0,0.0,0.0,0.0,0.0,0.0,0.0,0.0,0.0,0.0,0.0,0.0,0.0,0.0,0.0,0.0,0.0,0.0,0.0,0.0,0.0,0.0,0.0,0.0,0.0,0.0,0.0,0.0,0.0,0.0,0.0,0.0,0.0,0.0,0.0,0.0,0.0,0.0,0.0,0.0,0.0,0.0,0.0,0.0,0.0,0.0,0.0,0.0,0.0,0.0,0.0,0.0,0.0,0.0,0.0,0.0,0.0,0.0,0.0,-2.7216,-2.8299,-2.8281,-2.9016,-2.9152,-2.8271,-2.7342,-2.5719,-2.3159,-2.2816,0.0,0.0,0.0,0.0,0.0,0.0,0.0,0.0,0.0,0.0,0.0,0.0,0.0,0.0,0.0,0.0,0.0,0.0,0.0,0.0,0.0,0.0,0.0,0.0,0.0,0.0,0.0,0.0,0.0,0.0,0.0,0.0,0.0,0.0,0.0,0.0,0.0,0.0,0.0,0.0,0.0,0.0,0.0,0.0,0.0,0.0,0.0,0.0,0.0,0.0,0.0,0.0,0.0,0.0,0.0,0.0,0.0,0.0,0.0,0.0,0.0,0.0,0.0,0.0,0.0,0.0,0.0,0.0,0.0,0.0,0.0,0.0,0.0,0.0,0.0,0.0,0.0,0.0,0.0,0.0,0.0,0.0,0.0,0.0,0.0,0.0,0.0,0.0,0.0,0.0,0.0,0.0,0.0,0.0,0.0,0.0,0.0,0.0,0.0,0.0,0.0,0.0,-2.7225,-2.8299,-2.8301,-2.8564,-2.8598,-2.8227,-2.6835,-2.5344,-2.3837,0.0,0.0,0.0,0.0,0.0,0.0,0.0,0.0,0.0,0.0,0.0,0.0,0.0,0.0,0.0,0.0,0.0,0.0,0.0,0.0,0.0,0.0,0.0,0.0,0.0,0.0,0.0,0.0,0.0,0.0,0.0,0.0,0.0,0.0,0.0,0.0,0.0,0.0,0.0,0.0,0.0,0.0,0.0,0.0,0.0,0.0,0.0,0.0,0.0,0.0,0.0,0.0,0.0,0.0,0.0,0.0,0.0,0.0,0.0,0.0,0.0,0.0,0.0,0.0,0.0,0.0,0.0,0.0,0.0,0.0,0.0,0.0,0.0,0.0,0.0,0.0,0.0,0.0,0.0,0.0,0.0,0.0,0.0,0.0,0.0,0.0,0.0,0.0,0.0,0.0,0.0,0.0,0.0,0.0,0.0,0.0,0.0,0.0,0.0,0.0,0.0,0.0,-2.5481,-2.7198,-2.8378,-2.8648,-2.844,-2.8265,-2.8232,-2.6573,-2.5043,-2.3896,0.0,0.0,0.0,0.0,0.0,0.0,0.0,0.0,0.0,0.0,0.0,0.0,0.0,0.0,0.0,0.0,0.0,0.0,0.0,0.0,0.0,0.0,0.0,0.0,0.0,0.0,0.0,0.0,0.0,0.0,0.0,0.0,0.0,0.0,0.0,0.0,0.0,0.0,0.0,0.0,0.0,0.0,0.0,0.0,0.0,0.0,0.0,0.0,0.0,0.0,0.0,0.0,0.0,0.0,0.0,0.0,0.0,0.0,0.0,0.0,0.0,0.0,0.0,0.0,0.0,0.0,0.0,0.0,0.0,0.0,0.0,0.0,0.0,0.0,0.0,0.0,0.0,0.0,0.0,0.0,0.0,0.0,0.0,0.0,0.0,0.0,0.0,0.0,0.0,0.0,0.0,0.0,0.0,0.0,0.0,0.0,0.0,0.0,0.0,0.0,0.0,0.0,-2.5492,-2.7152,-2.8525,-2.9408,-2.8724,-2.8242,-2.8303,-2.6656,-2.4861,0.0,0.0,0.0,0.0,0.0,0.0,0.0,0.0,0.0,0.0,0.0,0.0,0.0,0.0,0.0,0.0,0.0,0.0,0.0,0.0,0.0,0.0,0.0,0.0,0.0,0.0,0.0,0.0,0.0,0.0,0.0,0.0,0.0,0.0,0.0,0.0,0.0,0.0,0.0,0.0,0.0,0.0,0.0,0.0,0.0,0.0,0.0,0.0,0.0,0.0,0.0,0.0,0.0,0.0,0.0,0.0,0.0,0.0,0.0,0.0,0.0,0.0,0.0,0.0,0.0,0.0,0.0,0.0,0.0,0.0,0.0,0.0,0.0,0.0,0.0,0.0,0.0,0.0,0.0,0.0,0.0,0.0,0.0,0.0,0.0,0.0,0.0,0.0,0.0,0.0,0.0,0.0,0.0,0.0,0.0,0.0,0.0,0.0,0.0,0.0,0.0,0.0,0.0,-2.5486,-2.7161,-2.8539,-2.9407,-2.9276,-2.8886,-2.834,-2.7203,-2.6002,-2.4839,0.0,0.0,0.0,0.0,0.0,0.0,0.0,0.0,0.0,0.0,0.0,0.0,0.0,0.0,0.0,0.0,0.0,0.0,0.0,0.0,0.0,0.0,0.0,0.0,0.0,0.0,0.0,0.0,0.0,0.0,0.0,0.0,0.0,0.0,0.0,0.0,0.0,0.0,0.0,0.0,0.0,0.0,0.0,0.0,0.0,0.0,0.0,0.0,0.0,0.0,0.0,0.0,0.0,0.0,0.0,0.0,0.0,0.0,0.0,0.0,0.0,0.0,0.0,0.0,0.0,0.0,0.0,0.0,0.0,0.0,0.0,0.0,0.0,0.0,0.0,0.0,0.0,0.0,0.0,0.0,0.0,0.0,0.0,0.0,0.0,0.0,0.0,0.0,0.0,0.0,0.0,0.0,0.0,0.0,0.0,0.0,0.0,0.0,0.0,0.0,0.0,0.0,-2.5441,-2.7123,-2.8649,-2.9893,-2.9708,-2.9179,-2.8373,-2.7454,-2.6405,-2.5133,0.0,0.0,0.0,0.0,0.0,0.0,0.0,0.0,0.0,0.0,0.0,0.0,0.0,0.0,0.0,0.0,0.0,0.0,0.0,0.0,0.0,0.0,0.0,0.0,0.0,0.0,0.0,0.0,0.0,0.0,0.0,0.0,0.0,0.0,0.0,0.0,0.0,0.0,0.0,0.0,0.0,0.0,0.0,0.0,0.0,0.0,0.0,0.0,0.0,0.0,0.0,0.0,0.0,0.0,0.0,0.0,0.0,0.0,0.0,0.0,0.0,0.0,0.0,0.0,0.0,0.0,0.0,0.0,0.0,0.0,0.0,0.0,0.0,0.0,0.0,0.0,0.0,0.0,0.0,0.0,0.0,0.0,0.0,0.0,0.0,0.0,0.0,0.0,0.0,0.0,0.0,0.0,0.0,0.0,0.0,0.0,0.0,0.0,0.0,0.0,0.0,0.0,-2.5505,-2.7181,-2.8884,-3.0613,-3.0093,-2.9294,-2.8476,-2.7617,-2.6402,-2.4736,0.0,0.0,0.0,0.0,0.0,0.0,0.0,0.0,0.0,0.0,0.0,0.0,0.0,0.0,0.0,0.0,0.0,0.0,0.0,0.0,0.0,0.0,0.0,0.0,0.0,0.0,0.0,0.0,0.0,0.0,0.0,0.0,0.0,0.0,0.0,0.0,0.0,0.0,0.0,0.0,0.0,0.0,0.0,0.0,0.0,0.0,0.0,0.0,0.0,0.0,0.0,0.0,0.0,0.0,0.0,0.0,0.0,0.0,0.0,0.0,-2.2112,-2.1534,0.0,0.0,0.0,0.0,0.0,0.0,0.0,0.0,0.0,0.0,0.0,0.0,0.0,0.0,0.0,0.0,0.0,0.0,0.0,0.0,0.0,0.0,0.0,0.0,0.0,0.0,0.0,0.0,0.0,0.0,0.0,0.0,0.0,0.0,0.0,0.0,0.0,0.0,0.0,0.0,-2.6398,-2.8087,-2.9525,-3.0613,-3.0604,-3.0172,-2.9316,-2.8496,-2.7558,-2.6443,-2.4722,0.0,0.0,0.0,0.0,0.0,0.0,0.0,0.0,0.0,0.0,0.0,0.0,0.0,0.0,0.0,0.0,0.0,0.0,0.0,0.0,0.0,0.0,0.0,0.0,0.0,0.0,0.0,0.0,0.0,0.0,0.0,0.0,0.0,0.0,0.0,0.0,0.0,0.0,0.0,0.0,0.0,0.0,0.0,0.0,0.0,0.0,0.0,0.0,0.0,0.0,0.0,0.0,0.0,0.0,0.0,0.0,0.0,0.0,0.0,-2.4489,-2.3649,0.0,0.0,0.0,0.0,0.0,0.0,0.0,0.0,0.0,0.0,0.0,0.0,0.0,0.0,0.0,0.0,0.0,0.0,0.0,0.0,0.0,0.0,0.0,0.0,0.0,0.0,0.0,0.0,0.0,0.0,0.0,0.0,0.0,0.0,0.0,0.0,0.0,0.0,0.0,0.0,-2.6669,-2.8359,-2.9738,-3.0613,-3.0761,-3.0459,-2.957,-2.9141,-2.8359,-2.7031,-2.5304,0.0,0.0,0.0,0.0,0.0,0.0,0.0,0.0,0.0,0.0,0.0,0.0,0.0,0.0,0.0,0.0,0.0,0.0,0.0,0.0,0.0,0.0,0.0,0.0,0.0,0.0,0.0,0.0,0.0,0.0,0.0,0.0,0.0,0.0,0.0,0.0,0.0,0.0,0.0,0.0,0.0,0.0,0.0,0.0,0.0,0.0,0.0,0.0,0.0,0.0,0.0,0.0,0.0,-2.912,-2.9439,-2.8295,-2.9495,-2.9663,-2.8858,-2.6817,-2.6018,-2.606,-2.4685,0.0,0.0,0.0,0.0,0.0,0.0,0.0,0.0,0.0,0.0,0.0,0.0,0.0,0.0,0.0,0.0,0.0,0.0,0.0,0.0,0.0,0.0,-2.5389,-2.5282,-2.589,-2.5981,-2.4157,0.0,0.0,0.0,0.0,0.0,0.0,0.0,0.0,0.0,0.0,0.0,-2.6903,-2.8573,-2.9894,-3.0613,-3.0749,-3.0506,-2.9796,-2.9648,-2.8984,-2.7537,-2.5966,-2.4911,0.0,0.0,0.0,0.0,0.0,0.0,0.0,0.0,0.0,0.0,0.0,0.0,0.0,0.0,0.0,0.0,0.0,0.0,0.0,0.0,0.0,0.0,0.0,0.0,0.0,0.0,0.0,0.0,0.0,0.0,0.0,0.0,-2.0604,-2.1643,0.0,0.0,0.0,0.0,0.0,0.0,0.0,0.0,0.0,0.0,0.0,0.0,0.0,-2.783,-2.7829,-2.9551,-3.0715,-3.1297,-3.1516,-3.1883,-3.2387,-3.1775,-3.1407,-3.1168,-3.0962,0.0,-2.7977,-2.6951,0.0,0.0,0.0,0.0,0.0,0.0,0.0,0.0,0.0,0.0,0.0,0.0,0.0,0.0,0.0,0.0,0.0,0.0,0.0,0.0,0.0,0.0,-2.8682,-2.8662,-2.8756,-2.8837,-2.8778,-2.7348,-2.5578,-2.3927,-2.4379,-2.4601,0.0,0.0,0.0,0.0,0.0,0.0,-2.7809,-2.9467,-3.0574,-3.069,-3.0749,-3.0743,-3.0633,-3.0001,-2.9507,-2.9277,-2.8327,-2.7085,-2.5502,-2.4438,0.0,0.0,0.0,0.0,0.0,0.0,0.0,0.0,0.0,0.0,0.0,0.0,0.0,0.0,0.0,0.0,0.0,0.0,0.0,0.0,0.0,0.0,0.0,0.0,0.0,0.0,0.0,0.0,0.0,-2.1039,-2.2327,-2.314,-2.3727,-2.3758,0.0,0.0,0.0,0.0,0.0,0.0,0.0,0.0,0.0,-2.9068,-3.0259,-3.1163,-3.1715,-3.2847,-3.3698,-3.4245,-3.4562,-3.4932,-3.5398,-3.4955,-3.4694,-3.4574,-3.455,-3.3724,-3.2154,-2.9893,-2.8517,-2.783,0.0,0.0,0.0,0.0,-2.7996,-2.8181,-2.9007,-2.9044,-2.8744,-2.8631,0.0,0.0,0.0,0.0,0.0,0.0,0.0,-2.7587,-2.9094,-2.972,-3.0089,-3.0491,-3.0708,-3.0854,-3.0974,-3.0316,-2.9121,-2.7103,-2.7146,-2.7007,-2.5364,-2.4696,0.0,0.0,0.0,-2.8612,-2.9447,-3.1086,-3.2154,-3.2154,-3.1785,-3.154,-3.1531,-3.0761,-3.0069,-2.9569,-2.9195,-2.8392,-2.7115,-2.6196,-2.4917,0.0,0.0,0.0,0.0,0.0,0.0,0.0,0.0,0.0,0.0,0.0,0.0,0.0,0.0,0.0,0.0,0.0,0.0,0.0,0.0,0.0,0.0,0.0,0.0,0.0,0.0,0.0,0.0,-2.3067,-2.3895,-2.4229,-2.5634,-2.6079,0.0,0.0,0.0,0.0,0.0,0.0,-2.8938,-2.9637,-3.0775,-3.2532,-3.3167,-3.3969,-3.495,-3.5492,-3.5994,-3.6471,-3.6721,-3.7001,-3.7304,-3.7007,-3.6839,-3.6756,-3.6652,-3.6247,-3.5425,-3.2778,-3.1121,-3.0219,-3.0216,-3.0362,-3.0582,-3.0482,-3.0542,-3.0734,-3.1335,-3.1391,-3.1147,-3.0772,-3.0903,-3.0941,-2.9476,0.0,0.0,0.0,0.0,-2.9248,-3.0785,-3.1191,-3.1374,-3.2145,-3.2463,-3.2614,-3.2657,-3.2824,-3.2256,-2.9961,-2.966,-2.9347,-2.7923,-2.7183,0.0,-2.7738,-2.911,-3.0309,-3.095,-3.2368,-3.3322,-3.3329,-3.2795,-3.2428,-3.2421,-3.1848,-3.109,-3.0219,-3.0178,-2.9679,-2.8585,-2.789,-2.6986,-2.582,0.0,0.0,0.0,0.0,0.0,0.0,0.0,0.0,0.0,0.0,0.0,0.0,0.0,0.0,0.0,0.0,0.0,0.0,0.0,0.0,0.0,0.0,0.0,0.0,0.0,0.0,0.0,0.0,0.0,-2.4301,-2.7011,0.0,0.0,0.0,0.0,-2.8524,-2.9086,-3.026,-3.2151,-3.2368,-3.3294,-3.515,-3.514,-3.5547,-3.6474,-3.6721,-3.7225,-3.7991,-3.7117,-3.7121,-3.7846,-3.6786,-3.6342,-3.6332,-3.6313,-3.6295,-3.6185,-3.5302,-3.4086,-3.2715,-3.2715,-3.2846,-3.3038,-3.3015,-3.3103,-3.3231,-3.3269,-3.2724,-3.2161,-3.2968,-3.2687,-3.1879,-3.1034,-3.0246,0.0,0.0,-3.079,-3.1127,-3.2649,-3.3056,-3.3262,-3.4064,-3.4274,-3.4319,-3.4449,-3.4578,-3.398,-3.1635,-3.1283,-3.1155,-3.0428,0.0,-3.0287,-3.0408,-3.1239,-3.1889,-3.1928,-3.2796,-3.3381,-3.339,-3.3355,-3.332,-3.3322,-3.3286,-3.2908,-3.2012,-3.1973,-3.1208,-2.9494,-2.9327,-2.8493,-2.6859,-2.5788,0.0,0.0,0.0,0.0,0.0,0.0,0.0,0.0,0.0,0.0,0.0,0.0,0.0,0.0,0.0,0.0,0.0,0.0,0.0,0.0,0.0,0.0,0.0,0.0,0.0,0.0,0.0,0.0,-2.8026,-2.9559,0.0,-2.9466,-3.0424,-3.1187,-3.151,-3.2488,-3.3662,-3.5008,-3.6011,-3.7048,-3.8269,-3.8743,-3.9099,-3.9289,-3.9485,-3.9741,-4.0041,-3.9782,-3.9859,-4.0187,-3.9822,-3.9593,-3.9522,-3.9522,-3.9479,-3.9368,-3.9105,-3.7514,-3.5206,-3.5127,-3.5214,-3.5392,-3.5354,-3.5454,-3.5647,-3.5647,-3.5173,-3.4602,-3.4921,-3.5146,-3.5259,-3.4977,-3.4677,-3.4508,-3.4808,-3.4442,-3.4226,-3.5306,-3.5189,-3.5002,-3.5829,-3.6063,-3.6152,-3.6197,-3.6265,-3.6071,-3.5419,-3.4108,-3.2886,-3.2172,-3.2577,-3.2658,-3.1658,-3.3215,-3.4302,-3.3757,-3.444,-3.5015,-3.5016,-3.4542,-3.4238,-3.4242,-3.3717,-3.3025,-3.2167,-3.2109,-3.1563,-3.039,-3.0302,-2.9469,-2.7715,-2.6811,-2.5098,0.0,0.0,0.0,0.0,0.0,0.0,0.0,0.0,0.0,0.0,0.0,0.0,0.0,0.0,0.0,0.0,0.0,0.0,0.0,0.0,0.0,0.0,0.0,0.0,0.0,-2.8705,-3.032,-3.0577,-3.2045,-3.2978,-3.276,-3.3576,-3.4475,-3.5314,-3.6159,-3.7048,-3.7993,-3.8989,-3.9753,-4.0286,-4.0836,-4.1027,-4.0888,-4.1075,-4.1172,-4.1167,-4.1248,-4.1342,-4.1415,-4.1373,-4.1329,-4.1235,-4.1235,-4.119,-4.1111,-4.1111,-3.9908,-3.8037,-3.7948,-3.8029,-3.8192,-3.8145,-3.809,-3.7988,-3.7429,-3.6752,-3.6133,-3.6133,-3.6555,-3.7028,-3.7028,-3.7057,-3.7099,-3.7099,-3.6658,-3.6307,-3.6812,-3.6363,-3.5895,-3.6438,-3.6639,-3.6708,-3.6738,-3.6986,-3.7244,-3.7509,-3.6283,-3.5066,-3.4743,-3.5237,-3.534,-3.4302,-3.5651,-3.6562,-3.5993,-3.6425,-3.6656,-3.6362,-3.5853,-3.5421,-3.5129,-3.4311,-3.3434,-3.2601,-3.227,-3.1583,-3.0409,-3.0351,-2.9659,-2.8159,-2.759,-2.5984,-2.3311,0.0,0.0,0.0,0.0,0.0,0.0,0.0,0.0,0.0,0.0,0.0,0.0,0.0,0.0,0.0,0.0,0.0,0.0,0.0,0.0,0.0,0.0,0.0,-2.9347,-3.1201,-3.2449,-3.1696,-3.4431,-3.6064,-3.5275,-3.6549,-3.8108,-3.984,-3.99,-4.0217,-4.1111,-4.1148,-4.1167,-4.1185,-4.1185,-4.1152,-4.1152,-4.1296,-4.1372,-4.1354,-4.1372,-4.1372,-4.1372,-4.1232,-4.1185,-4.1185,-4.1185,-4.1185,-4.1185,-4.1185,-4.1185,-4.1185,-4.113,-4.119,-4.1298,-4.1298,-4.0892,-4.0113,-3.8516,-3.744,-3.6753,-3.6734,-3.6875,-3.7057,-3.7057,-3.7154,-3.7249,-3.7249,-3.7211,-3.7211,-3.723,-3.6648,-3.6066,-3.6085,-3.6066,-3.6095,-3.623,-3.6876,-3.7507,-3.7731,-3.7715,-3.7734,-3.8127,-3.8215,-3.8274,-3.8384,-3.8489,0.0,-3.8515,-3.8505,-3.8188,-3.7331,-3.7214,-3.6863,-3.6006,-3.5109,-3.4252,-3.3453,-3.2562,-3.131,-2.9649,-2.9533,-2.9104,-2.8271,-2.812,-2.7608,-2.6713,0.0,0.0,0.0,0.0,0.0,0.0,0.0,0.0,0.0,0.0,0.0,0.0,0.0,0.0,0.0,0.0,0.0,0.0,0.0,0.0,0.0,-3.0465,-3.2118,-3.1678,-3.3733,-3.5624,-3.6578,-3.7496,-3.8426,-3.9467,-3.9946,-4.0449,-4.1033,-4.0948,-4.1254,-4.2065,-4.2022,-4.2249,-4.2818,-4.2837,-4.2715,-4.2486,-4.275,-4.2766,-4.2557,-4.2784,-4.2904,-4.2886,-4.2871,-4.2837,-4.2837,-4.2837,-4.2837,-4.2837,-4.2837,-4.2837,-4.2708,-4.157,-4.1111,-4.1158,-4.1158,-4.1106,-4.0892,-3.9973,-3.9956,-4.0262,-3.9629,-3.996,-4.0615,-4.0615,-4.064,-4.0666,-4.0666,-4.0234,-3.9915,-4.0516,-4.0065,-3.9645,-4.0373,-4.0056,-3.9652,-3.9889,-4.012,-4.0158,-3.9804,-4.0207,-4.0088,-3.8414,-3.8735,-3.9043,-3.856,-3.9038,-3.9228,-3.8658,-3.8569,-3.8449,-3.8163,-3.7584,-3.7102,-3.6863,-3.546,-3.4252,-3.3453,-3.1992,-3.1232,-3.1388,-3.018,-2.9396,-2.9143,-2.7873,-2.7052,0.0,0.0,0.0,0.0,0.0,0.0,0.0,0.0,0.0,0.0,0.0,0.0,0.0,0.0,0.0,0.0,0.0,0.0,0.0,0.0,0.0,0.0,-3.343,-3.4917,-3.5644,-3.6654,-3.79,-3.9515,-3.9717,-4.0244,-4.159,-4.1765,-4.1957,-4.229,-4.2345,-4.2516,-4.2879,-4.2868,-4.302,-4.3479,-4.3497,-4.341,-4.3214,-4.341,-4.341,-4.3214,-4.341,-4.3497,-4.3497,-4.3497,-4.3497,-4.3497,-4.3497,-4.3497,-4.3497,-4.3497,-4.3497,-4.3406,0.0,0.0,0.0,0.0,-4.1948,-4.1678,-4.1261,-4.1311,-4.1438,-4.0926,-4.1221,-4.1856,-4.19,-4.2006,-4.2153,-4.2227,-4.1917,-4.1671,-4.2119,-4.1633,-4.1169,-4.18,-4.1578,-4.1279,-4.155,-4.1874,-4.2044,-4.1805,-4.2163,0.0,-4.0688,-4.0305,-4.0054,-3.9647,-4.0016,-4.0174,-3.9704,-3.9643,-3.9487,-3.9097,-3.8594,-3.7993,-3.7258,-3.5947,0.0,0.0,0.0,-3.1797,-3.1563,-3.0589,0.0,0.0,0.0,0.0,0.0,0.0,0.0,0.0,-2.8727,-2.8578,0.0,0.0,0.0,0.0,0.0,0.0,0.0,0.0,0.0,0.0,0.0,0.0,0.0,0.0,0.0,0.0,-3.6796,-3.8364,-4.008,-3.9626,-3.9643,-4.1075,-4.1258,-4.1552,-4.2359,-4.2562,-4.2838,-4.3477,-4.3686,-4.3686,-4.3532,-4.3497,0.0,0.0,0.0,-4.3497,-4.3497,-4.3497,-4.3497,-4.3497,-4.3497,-4.3497,-4.3497,-4.3497,-4.3497,-4.3497,-4.3497,-4.3497,-4.3497,-4.3497,-4.3497,-4.3497,-4.3497,-4.3532,-4.3532,-4.3532,-4.3073,-4.2466,-4.2466,0.0,0.0,-4.142,-4.1625,-4.1909,-4.2071,-4.2309,-4.2588,-4.2835,-4.29,-4.2881,-4.2881,-4.2311,-4.1799,-4.1934,-4.1876,-4.1893,-4.2178,-4.2787,-4.3335,-4.3492,-4.3588,-4.3677,-4.3704,-4.2294,-4.1189,-4.1241,-4.1177,-4.1112,-4.1116,-4.1114,-4.0801,-4.004,-3.9862,0.0,-3.7629,-3.659,-3.5713,-3.4929,-3.413,-3.2903,-3.1149,-3.1169,-3.1227,-3.1222,-3.1916,-3.2637,-3.3355,-3.3327,-3.3699,-3.4304,-3.1747,-3.1386,0.0,0.0,0.0,0.0,0.0,0.0,0.0,0.0,0.0,0.0,0.0,0.0,0.0,0.0,0.0,-3.5669,-3.79,-3.9955,-4.1431,-4.1611,-4.1717,-4.2029,-4.2066,-4.2378,-4.3185,-4.3275,-4.3348,-4.3479,-4.3532,-4.3532,-4.3497,-4.3497,-4.3497,-4.3497,-4.3497,-4.3497,-4.3497,-4.3497,-4.3497,-4.3497,-4.3497,0.0,-4.3497,-4.3497,-4.3497,-4.3497,-4.3497,-4.3497,-4.3497,-4.3497,-4.3497,-4.3497,-4.3497,-4.36,-4.3738,-4.3738,-4.3627,-4.3498,-4.3498,-4.3406,-4.3277,-4.3277,-4.3402,-4.3583,-4.3905,-4.4022,0.0,-4.452,-4.4655,-4.4703,-4.4703,-4.4611,-4.4557,-4.4748,-4.4268,-4.3859,-4.4167,-4.4354,-4.4307,-4.3763,-4.4191,-4.4429,-4.381,-4.2839,-4.213,-4.2148,-4.1601,-4.1172,-4.1171,-4.1171,-4.1093,-4.0878,-4.0218,-3.9657,-3.9337,-3.7857,-3.6845,-3.6635,-3.5818,-3.4594,-3.2966,-3.3512,-3.3841,-3.3789,-3.3937,-3.4341,-3.4962,-3.5637,-3.5984,-3.5985,-3.4133,-3.3773,0.0,0.0,0.0,0.0,0.0,0.0,0.0,0.0,0.0,0.0,0.0,-3.2239,-3.3227,0.0,-3.7119,-3.8865,-4.0119,-4.1259,-4.2463,-4.2787,-4.2892,-4.2892,-4.2892,-4.3057,-4.3442,-4.3497,-4.3497,-4.3497,-4.3497,-4.3497,-4.3497,-4.3497,-4.3497,-4.3497,-4.3497,-4.3497,-4.3497,-4.3497,-4.3497,-4.3497,-4.3497,-4.3497,-4.3497,-4.3497,-4.3497,-4.3497,-4.3497,-4.3497,-4.3497,-4.3497,-4.3497,-4.3532,-4.36,-4.3719,-4.3804,-4.3883,-4.3851,-4.3804,-4.3804,-4.36,-4.341,-4.3618,-4.3716,-4.3868,-4.4383,-4.4669,-4.4887,-4.5282,-4.5419,-4.5456,-4.5532,-4.5568,-4.564,-4.5806,-4.551,-4.5273,-4.5466,-4.55,-4.541,-4.5069,-4.5333,-4.5465,-4.5065,-4.4276,-4.3554,-4.3127,-4.2339,-4.1797,-4.1797,-4.1457,-4.1166,-4.1108,-4.0717,-4.0274,-3.9844,-3.8572,-3.7778,-3.7747,-3.7331,-3.653,-3.5301,-3.606,-3.6246,-3.5706,-3.6096,-3.645,-3.6755,-3.7145,-3.7536,-3.7881,-3.7475,-3.7229,0.0,0.0,0.0,0.0,0.0,0.0,0.0,-2.8083,-2.9143,-3.0854,-3.3078,-3.5444,-3.7716,-3.8469,-3.9527,-4.1834,-4.2119,-4.2305,-4.314,-4.3286,-4.3375,-4.3497,-4.3497,-4.3497,-4.3497,-4.3497,-4.3497,-4.3497,-4.3497,-4.3497,-4.3497,-4.3497,-4.3497,-4.3497,-4.3497,-4.3497,-4.3497,-4.3497,-4.3497,-4.3497,-4.3497,-4.3497,-4.3497,-4.3497,-4.3497,-4.3479,-4.3532,-4.3532,-4.3532,-4.3548,-4.3582,-4.3566,-4.3818,-4.3902,-4.3915,-4.4023,-4.3992,-4.3883,-4.3851,-4.3548,-4.3214,-4.3479,-4.3579,-4.3717,-4.4428,-4.4868,-4.5199,-4.5599,-4.5731,-4.5785,-4.5877,-4.5935,-4.599,-4.6087,-4.613,-4.6143,-4.6199,-4.6227,-4.6242,-4.6286,-4.6297,-4.6303,-4.6308,-4.5724,-4.4958,-4.408,-4.321,-4.2656,-4.2652,-4.208,-4.1598,-4.1383,-4.1349,-4.0983,-4.0085,-3.9291,-3.8859,-3.8877,-3.8703,-3.8296,-3.7586,-3.8071,-3.8054,-3.7411,-3.802,-3.8415,-3.8575,-3.8686,-3.9104,-3.9815,-4.0623,-4.0508,-2.533,-2.6021,-2.6771,-2.7403,-2.8052,-2.9579,0.0,-3.4104,-3.424,-3.6425,-3.8089,-3.9294,-3.9601,-4.0822,-4.1821,-4.1849,-4.2414,-4.2923,-4.3014,-4.2844,-4.29,-4.3444,-4.3497,-4.3497,-4.3497,-4.3497,-4.3497,-4.3497,-4.3497,-4.3497,-4.3497,-4.3497,-4.3497,-4.3497,-4.3497,-4.3497,-4.3497,-4.3497,-4.3497,-4.3497,-4.3497,-4.3497,-4.3497,-4.3497,-4.3497,-4.3532,-4.3686,-4.3686,-4.3513,-4.3814,-4.3865,-4.3804,-4.4104,-4.4255,-4.4255,-4.4255,-4.4255,-4.4226,-4.4036,-4.3865,-4.3738,-4.3771,-4.3841,-4.4058,-4.4606,-4.4969,-4.5265,-4.5596,-4.5829,-4.597,-4.597,-4.6076,-4.6176,-4.6192,-4.6191,-4.6219,-4.6276,-4.6286,-4.6287,-4.6308,-4.6308,-4.6308,-4.6308,-4.621,-4.5858,-4.4999,-4.4101,-4.355,-4.3557,-4.3487,-4.3111,-4.2338,-4.2247,-4.1857,-4.0863,-4.0563,-4.0474,-4.0527,-3.9751,-3.9274,-3.9237,-3.8577,-3.8515,-3.9116,-3.92,-3.9585,-4.0231,-4.0989,-4.1431,-4.1546,-4.2412,-4.2379,-2.8665,-2.9,-2.9183,-3.07,-3.1686,-3.2897,-3.5267,-3.6114,-3.696,-3.8816,-4.0147,-4.1152,-4.1645,-4.1977,-4.2147,-4.1992,-4.2279,-4.2494,-4.2494,-4.2691,-4.292,-4.3178,-4.3375,-4.3497,-4.3497,-4.3497,-4.3497,-4.3497,-4.3497,-4.3497,-4.3497,-4.3497,-4.3497,-4.3497,-4.3956,-4.4195,-4.4195,-4.4654,-4.4892,-4.4892,-4.4892,-4.4654,-4.4195,-4.4195,-4.4026,-4.3686,-4.3771,-4.3771,-4.3686,-4.391,-4.3929,-4.3837,-4.4023,-4.4116,-4.4147,-4.4325,-4.4373,-4.4285,-4.4207,-4.3923,-4.3679,-4.3999,-4.4106,-4.4243,-4.4862,-4.5187,-4.5432,-4.5795,-4.5938,-4.6028,-4.6096,-4.6163,-4.6212,-4.625,-4.6264,-4.628,-4.6288,-4.6308,-4.6308,-4.6308,-4.6308,-4.6308,-4.6308,-4.6308,-4.6172,-4.5801,-4.5019,-4.4466,-4.4455,-4.4007,-4.3559,-4.3137,-4.3062,-4.2838,-4.2344,-4.2208,-4.2163,-4.2183,-4.1834,-4.1622,-4.1641,-4.1293,-4.1241,-4.1551,-4.1551,-4.1709,-4.2008,-4.2374,-4.2566,-4.2585,-4.3412,-4.3678,-3.0438,-3.11,-3.1767,-3.3494,-3.4814,-3.5881,-3.6865,-3.7925,-3.912,-4.0466,-4.1411,-4.2194,-4.2774,-4.2534,-4.2228,-4.2228,-4.2145,-4.2145,-4.2228,-4.2534,-4.2788,-4.2976,-4.3214,-4.341,-4.3479,-4.3497,-4.3497,-4.3497,-4.3699,-4.3828,-4.3828,-4.403,-4.4158,-4.4158,-4.4727,-4.5039,-4.5039,-4.5608,-4.5902,-4.5902,-4.5902,-4.559,-4.5039,-4.5075,-4.4867,-4.4469,-4.455,-4.4582,-4.4568,-4.4755,-4.4711,-4.4568,-4.4692,-4.4575,-4.4371,-4.4584,-4.4531,-4.4314,-4.4335,-4.4084,-4.3856,-4.4318,-4.4478,-4.4575,-4.5125,-4.5453,-4.5688,-4.5944,-4.6035,-4.6084,-4.6161,-4.6201,-4.6235,-4.6286,-4.6308,-4.6308,-4.6308,-4.6308,-4.6308,-4.6308,-4.6308,-4.6308,-4.6308,-4.6308,-4.6308,-4.6308,-4.5759,-4.5366,-4.5371,-4.4572,-4.4,-4.3946,-4.3635,-4.3402,-4.3272,-4.3206,-4.3173,-4.3173,-4.3173,-4.3173,-4.3173,-4.3173,-4.3162,-4.3104,-4.3118,-4.3118,-4.3104,-4.3349,-4.3464,-4.3451,-4.4273,-4.4766,-2.9357,-3.1286,-3.3896,-3.4817,-3.6549,-3.8409,-3.9989,-4.0601,-4.106,-4.1855,-4.2338,-4.2573,-4.2609,-4.2609,-4.2552,-4.2552,-4.231,-4.2228,-4.253,-4.231,-4.2333,-4.2939,-4.3032,-4.3142,-4.3463,-4.3497,-4.3497,-4.3497,-4.4213,-4.4672,-4.4672,-4.5406,-4.5828,-4.5828,-4.5847,-4.5865,-4.5865,-4.5883,-4.5902,-4.5902,-4.5902,-4.5883,-4.5865,-4.6063,-4.6149,-4.6165,-4.6462,-4.6525,-4.6434,-4.6768,-4.6707,-4.642,-4.6576,-4.6009,-4.5157,-4.5175,-4.4817,-4.4325,-4.4448,-4.4493,-4.4527,-4.4796,-4.5001,-4.5226,-4.5515,-4.5761,-4.599,-4.6079,-4.6138,-4.6191,-4.6191,-4.624,-4.6308,-4.6308,-4.6308,-4.6308,-4.6308,-4.6308,-4.6308,-4.6308,-4.6308,-4.6308,-4.6308,-4.6308,-4.6308,-4.6308,-4.6273,-4.6261,-4.6254,-4.5436,-4.483,-4.4763,-4.3887,-4.3272,-4.3206,-4.3146,-4.3085,-4.3085,-4.3085,-4.3085,-4.3085,-4.3085,-4.3104,-4.3104,-4.3153,-4.3153,-4.3104,-4.4002,-4.4388,-4.4278,-4.5218,-4.5665,-3.2452,-3.4422,-3.6494,-3.8097,-3.9233,-4.0235,-4.1315,-4.1629,-4.1766,-4.205,-4.1759,-4.1466,-4.1466,-4.1321,-4.1257,-4.1426,-4.1623,-4.1892,-4.2228,-4.2351,-4.2512,-4.2709,-4.3087,-4.3375,-4.3497,-4.3497,-4.3497,-4.3497,-4.425,-4.4709,-4.4709,-4.5461,-4.5902,-4.5902,-4.6434,-4.6452,-4.5902,-4.6434,-4.6434,-4.5902,-4.5902,-4.6177,-4.6691,-4.6339,-4.6274,-4.6409,-4.66,-4.6676,-4.6632,-4.6744,-4.6669,-4.6494,-4.639,-4.6157,-4.5882,-4.6015,-4.5932,-4.5618,-4.4777,-4.4635,-4.4877,-4.5217,-4.5434,-4.5649,-4.5861,-4.6026,-4.613,-4.615,-4.6189,-4.6202,-4.626,-4.6282,-4.6308,-4.6308,-4.6308,-4.6308,-4.6308,-4.6308,-4.6308,-4.6308,-4.6308,-4.6308,-4.6308,-4.6293,-4.6281,-4.618,-4.624,-4.6271,-4.6173,-4.5901,-4.5638,-4.5537,-4.5151,-4.4877,-4.4853,-4.4804,-4.4759,-4.4759,-4.4759,-4.479,-4.4812,-4.4771,-4.479,-4.4812,-4.48,-4.4771,-4.4759,-4.5079,-4.5244,-4.5237,-4.5553,-4.5769,-3.5254,-3.7059,-3.8669,-4.0453,-4.1229,-4.1712,-4.2185,-4.2269,-4.2139,-4.1772,-4.1037,-4.0446,-4.0341,-3.9964,-3.9898,-4.0636,-4.1089,-4.1531,-4.2026,-4.2472,-4.2747,-4.2747,-4.3433,-4.392,-4.392,-4.392,-4.3809,-4.3516,-4.4507,-4.5131,-4.5131,-4.5902,-4.6342,-4.6342,-4.6562,-4.6434,-4.5902,-4.6416,-4.6416,-4.5902,-4.5902,-4.6177,-4.6673,-4.6321,-4.6308,-4.6513,-4.6967,-4.7205,-4.7236,-4.7492,-4.7513,-4.7315,-4.7124,-4.687,-4.6664,-4.6768,-4.6764,-4.652,-4.5488,-4.5323,-4.5557,-4.5625,-4.5757,-4.5939,-4.6087,-4.6173,-4.6196,-4.6222,-4.6242,-4.6254,-4.6286,-4.6308,-4.6308,-4.6308,-4.6308,-4.6308,-4.6308,-4.6308,-4.6308,-4.6308,-4.6308,-4.6308,-4.6297,-4.6254,-4.6201,-4.6109,-4.6131,-4.6124,-4.6048,-4.6026,-4.598,-4.5848,-4.5747,-4.5688,-4.5661,-4.5618,-4.5586,-4.5586,-4.5586,-4.5635,-4.5703,-4.5651,-4.5635,-4.5703,-4.5665,-4.5618,-4.5586,-4.5668,-4.5692,-4.5684,-4.5769,-4.5871,-3.7511,-3.9119,-4.0394,-4.1849,-4.2522,-4.279,-4.2652,-4.2573,-4.2243,-4.1176,-4.0295,-3.9625,-3.923,-3.8602,-3.8679,-4.0102,-4.0671,-4.1215,-4.1997,-4.2688,-4.3049,-4.3049,-4.4072,-4.4764,-4.4764,-4.4764,-4.4433,-4.3608,-4.4984,-4.5865,-4.5902,-4.6636,-4.7058,-4.7058,-4.6305,-4.5883,-4.5847,-4.5792,-4.5792,-4.5847,-4.5847,-4.5865,-4.5938,-4.6116,-4.6342,-4.6564,-4.754,-4.8035,-4.8194,-4.8851,-4.9023,-4.88,-4.866,-4.8125,-4.746,-4.7496,-4.7346,-4.7061,-4.66,-4.6472,-4.6478,-4.6082,-4.6026,-4.613,-4.6192,-4.6222,-4.6216,-4.6282,-4.6308,-4.6308,-4.6308,-4.6308,-4.6308,-4.6308,-4.6308,-4.6308,-4.6308,-4.6308,-4.6308,-4.6308,-4.6308,-4.6303,-4.6287,-4.619,-4.6089,-4.608,-4.5957,-4.5896,-4.5896,-4.5893,-4.5848,-4.5718,-4.5703,-4.5677,-4.5603,-4.5586,-4.5586,-4.5586,-4.5586,-4.5635,-4.5703,-4.5651,-4.5635,-4.5703,-4.5703,-4.5661,-4.5603,-4.58,-4.5835,-4.5713,-4.5906,-4.6008,-3.9234,-4.1027,-4.24,-4.3286,-4.3345,-4.3142,-4.3124,-4.2392,-4.1618,-4.1325,-4.0177,-3.8758,-3.7356,-3.8309,-3.9089,-3.8383,-4.0233,-4.1955,-4.2414,-4.3312,-4.3886,-4.3886,-4.4894,-4.559,-4.559,-4.559,-4.5259,-4.4452,-4.4782,-4.5278,-4.5865,-4.6085,-4.6214,-4.6214,-4.6012,-4.5608,-4.5021,-4.4397,-4.4397,-4.5021,-4.5162,-4.5545,-4.6116,-4.6457,-4.6619,-4.6669,-4.7098,-4.7282,-4.7339,-4.7881,-4.8032,-4.8039,-4.8438,-4.8458,-4.8345,-4.8805,-4.8908,-4.8815,-4.85,-4.7694,-4.6822,-4.6855,-4.6599,-4.6245,-4.6264,-4.6276,-4.6278,-4.6308,-4.6308,-4.6308,-4.6308,-4.6308,-4.6308,-4.6308,-4.6308,-4.6308,-4.6308,-4.6308,-4.6308,-4.6308,-4.6308,-4.6267,-4.6177,-4.6109,-4.6051,-4.5893,-4.5804,-4.5765,-4.5806,-4.5785,-4.5723,-4.5635,-4.5618,-4.5618,-4.5603,-4.5586,-4.5586,-4.5586,-4.5586,-4.5635,-4.5703,-4.5651,-4.5635,-4.5703,-4.5648,-4.5632,-4.5658,-4.5718,-4.5796,-4.5917,-4.5978,-4.6054,-4.1079,-4.267,-4.3726,-4.4046,-4.3923,-4.3435,-4.2267,-4.1431,-4.0573,-3.9278,-3.776,-3.6468,-3.5969,-3.6952,-3.7934,-3.8132,-4.0339,-4.2178,-4.2693,-4.3722,-4.4418,-4.4418,-4.5608,-4.6434,-4.6434,-4.6104,-4.5865,-4.5773,-4.5443,-4.5278,-4.5369,-4.5369,-4.5369,-4.5369,-4.5021,-4.4617,-4.4176,-4.3718,-4.3752,-4.4299,-4.4402,-4.4742,-4.5249,-4.5443,-4.5569,-4.5667,-4.6132,-4.639,-4.6475,-4.6959,-4.7419,-4.782,-4.7992,-4.8399,-4.8925,-4.9346,-4.9617,-4.9757,-4.9754,-4.9051,-4.8125,-4.7858,-4.7352,-4.6873,-4.6864,-4.6612,-4.6294,-4.6296,-4.6303,-4.6308,-4.6308,-4.6308,-4.6308,-4.6308,-4.6308,-4.6308,-4.6308,-4.6308,-4.6307,-4.6293,-4.6259,-4.6201,-4.6098,-4.6023,-4.5916,-4.578,-4.5703,-4.5671,-4.5699,-4.5673,-4.5632,-4.5603,-4.5586,-4.5586,-4.5586,-4.5586,-4.5586,-4.5586,-4.5586,-4.5635,-4.5703,-4.5651,-4.5635,-4.5703,-4.5661,-4.5661,-4.5703,-4.5783,-4.5883,-4.5998,-4.6054,-4.6127,-4.2806,-4.397,-4.4458,-4.4344,-4.421,-4.3423,-4.0866,-4.0102,-3.9182,-3.6494,-3.4824,-3.4053,-3.4722,-3.5325,-3.6332,-3.824,-4.0329,-4.2014,-4.2905,-4.409,-4.4874,-4.4874,-4.6287,-4.7241,-4.7131,-4.6471,-4.6269,-4.6764,-4.614,-4.5443,-4.4745,-4.4617,-4.4544,-4.4544,-4.3864,-4.3497,-4.3497,-4.3497,-4.3566,-4.3771,-4.3804,-4.3883,-4.4005,-4.4036,-4.4147,-4.4322,-4.5062,-4.5402,-4.5546,-4.6134,-4.6866,-4.7578,-4.7503,-4.8125,-4.9108,-4.9461,-4.9814,-5.0201,-5.0535,-5.035,-4.9847,-4.8973,-4.8273,-4.7753,-4.7645,-4.7073,-4.6449,-4.6332,-4.6292,-4.6307,-4.6308,-4.6308,-4.6308,-4.6308,-4.6308,-4.6308,-4.6308,-4.6308,-4.6295,-4.6279,-4.619,-4.6082,-4.6053,-4.5931,-4.5772,-4.5712,-4.5651,-4.5586,-4.5586,-4.5586,-4.5586,-4.5586,-4.5586,-4.5586,-4.5586,-4.5586,-4.5586,-4.5586,-4.5586,-4.5635,-4.5673,-4.5635,-4.5635,-4.5703,-4.5703,-4.5699,-4.5742,-4.5906,-4.6008,-4.6036,-4.6154,-4.6196,-4.3801,-4.4402,-4.4458,-4.4344,-4.3674,-4.2567,-4.0707,-3.9127,-3.7562,-3.5861,-3.5277,-3.4478,-3.2383,-3.4707,-3.6731,-3.6188,-3.8739,-4.1324,-4.2777,-4.4565,-4.5681,-4.5681,-4.7113,-4.7847,-4.7186,-4.6985,-4.6416,-4.5223,-4.5002,-4.4856,-4.4727,-4.4066,-4.3699,-4.3699,-4.3552,-4.3497,-4.3497,-4.3497,-4.3532,-4.3566,-4.3719,-4.3883,-4.4005,-4.4177,-4.4255,-4.4314,-4.458,-4.4636,-4.4606,-4.5357,-4.5755,-4.6047,-4.7308,-4.8028,-4.851,-4.9595,-5.0193,-5.0483,-5.0758,-5.0897,-5.0829,-5.0011,-4.9255,-4.8535,-4.7811,-4.7487,-4.7216,-4.6495,-4.6294,-4.6294,-4.6306,-4.6308,-4.6308,-4.6308,-4.6308,-4.6308,-4.6308,-4.6306,-4.6271,-4.6153,-4.6114,-4.6046,-4.5873,-4.5811,-4.5757,-4.564,-4.5603,-4.5586,-4.5586,-4.5586,-4.5586,-4.5586,-4.5586,-4.5586,-4.5586,-4.5586,-4.5586,-4.5586,-4.5586,-4.5603,-4.562,-4.5603,-4.5635,-4.5703,-4.5703,-4.5783,-4.5958,-4.5988,-4.6054,-4.6162,-4.6196,-4.6196,-4.3962,-4.4325,-4.4218,-4.4177,-4.3137,-4.1526,-3.9026,-3.7158,-3.5386,-3.339,-3.2631,-3.2024,-3.1057,-3.3158,-3.4899,-3.4558,-3.707,-3.9703,-4.1558,-4.3467,-4.4947,-4.5792,-4.6948,-4.7535,-4.715,-4.6361,-4.5535,-4.4764,-4.4393,-4.4189,-4.4066,-4.3699,-4.3497,-4.3497,-4.3497,-4.3497,-4.3497,-4.3497,-4.3566,-4.3652,-4.3771,-4.3883,-4.4005,-4.4207,-4.4285,-4.4314,-4.4458,-4.4458,-4.4439,-4.4744,-4.5156,-4.5731,-4.6952,-4.7814,-4.8503,-4.9825,-5.0412,-5.0615,-5.0932,-5.1109,-5.1134,-5.0835,-5.0217,-4.9492,-4.9043,-4.8295,-4.7506,-4.7099,-4.6655,-4.629,-4.6307,-4.6308,-4.6308,-4.6308,-4.6308,-4.6308,-4.6308,-4.6296,-4.6258,-4.6137,-4.6046,-4.593,-4.5777,-4.5714,-4.568,-4.5605,-4.5586,-4.5586,-4.5586,-4.5635,-4.5632,-4.5603,-4.5586,-4.5586,-4.5586,-4.5586,-4.5586,-4.5586,-4.5586,-4.5586,-4.5586,-4.5616,-4.5661,-4.5703,-4.5809,-4.5906,-4.5998,-4.6074,-4.6135,-4.6196,-4.6196,-4.6196,-4.3596,-4.3998,-4.4005,-4.3974,-4.2619,-4.0513,-3.7683,-3.5491,-3.3444,-3.1211,-3.0241,-2.9903,-3.0225,-3.1652,-3.2988,-3.3623,-3.5707,-3.8095,-4.0474,-4.2461,-4.4216,-4.5718,-4.6617,-4.704,-4.6874,-4.5553,-4.4635,-4.447,-4.4054,-4.3753,-4.3615,-4.3615,-4.3582,-4.3566,-4.3566,-4.3532,-4.3497,-4.3532,-4.3634,-4.3804,-4.3837,-4.3915,-4.4067,-4.4226,-4.4285,-4.4314,-4.4458,-4.4487,-4.4458,-4.4373,-4.4786,-4.5613,-4.6675,-4.7586,-4.8542,-4.9956,-5.0579,-5.0732,-5.1087,-5.1219,-5.1254,-5.137,-5.0973,-5.043,-5.0195,-4.9199,-4.8124,-4.7927,-4.7247,-4.6582,-4.6582,-4.6445,-4.6308,-4.6308,-4.6445,-4.6523,-4.6344,-4.6292,-4.6247,-4.613,-4.5996,-4.5872,-4.5747,-4.5665,-4.5603,-4.5618,-4.5603,-4.5603,-4.5618,-4.5661,-4.5673,-4.5635,-4.5618,-4.562,-4.5603,-4.5586,-4.5586,-4.5586,-4.5586,-4.5603,-4.5618,-4.5677,-4.5713,-4.5756,-4.5917,-4.6008,-4.6046,-4.6154,-4.6196,-4.6196,-4.6196,-4.6196,-4.2679,-4.355,-4.3974,-4.3851,-4.2007,-3.9793,-3.8099,-3.5342,-3.2701,-3.118,-3.0827,-3.0526,-2.9735,-3.091,-3.2467,-3.3907,-3.5257,-3.7332,-4.0762,-4.2973,-4.4656,-4.5755,-4.6617,-4.6819,-4.6085,-4.5223,-4.4397,-4.3663,-4.3723,-4.3851,-4.3942,-4.3942,-4.3897,-4.3771,-4.3771,-4.3686,-4.3497,-4.3686,-4.3771,-4.3804,-4.3929,-4.4067,-4.4285,-4.4285,-4.4285,-4.4314,-4.4458,-4.443,-4.4314,-4.443,-4.4643,-4.5035,-4.6641,-4.7561,-4.8152,-4.9869,-5.0702,-5.0996,-5.1132,-5.1284,-5.1381,-5.139,-5.1346,-5.1152,-5.041,-5.0078,-4.9805,-4.9003,-4.8144,-4.748,-4.748,-4.6894,-4.6308,-4.6308,-4.6894,-4.7263,-4.6479,-4.625,-4.6192,-4.6115,-4.598,-4.5905,-4.5873,-4.5746,-4.5618,-4.5673,-4.5632,-4.5618,-4.5673,-4.5703,-4.5703,-4.5688,-4.5688,-4.5661,-4.5603,-4.5586,-4.5586,-4.5586,-4.5586,-4.5635,-4.5688,-4.5703,-4.5783,-4.5978,-4.5998,-4.6054,-4.6169,-4.6196,-4.6196,-4.6196,-4.6196,-4.6196,-4.2047,-4.2815,-4.2963,-4.2916,-4.1043,-3.8859,-3.7414,-3.4593,-3.2032,-3.1088,-3.0509,-2.9889,-2.9008,-2.9776,-3.1026,-3.2405,-3.3118,-3.4723,-3.8401,-4.0496,-4.2349,-4.4232,-4.5168,-4.5736,-4.5883,-4.4727,-4.3931,-4.38,-4.4323,-4.4525,-4.4314,-4.4097,-4.3974,-4.3929,-4.3929,-4.3897,-4.3814,-4.3897,-4.3929,-4.3929,-4.3974,-4.4036,-4.4097,-4.4237,-4.4285,-4.4314,-4.4458,-4.4458,-4.4458,-4.4655,-4.4758,-4.4959,-4.6418,-4.7392,-4.8125,-4.9558,-5.051,-5.1115,-5.122,-5.1327,-5.1394,-5.1394,-5.1406,-5.1348,-5.1016,-5.0586,-5.0137,-4.9785,-4.9043,-4.8262,-4.7734,-4.7344,-4.707,-4.707,-4.7344,-4.7359,-4.6482,-4.6261,-4.617,-4.6105,-4.6016,-4.5956,-4.5917,-4.5766,-4.5677,-4.5703,-4.5692,-4.5677,-4.5703,-4.5809,-4.5879,-4.5815,-4.5747,-4.5677,-4.5603,-4.5586,-4.5586,-4.5586,-4.5632,-4.5677,-4.5703,-4.5822,-4.5917,-4.5998,-4.6083,-4.6154,-4.6196,-4.6196,-4.6196,-4.6196,-4.6196,-4.6196,-4.0473,-4.153,-4.1956,-4.1956,-4.0152,-3.8092,-3.6877,-3.4141,-3.1648,-3.1013,-3.0265,-2.9514,-2.8913,-2.9439,-3.0298,-3.1188,-3.1932,-3.3573,-3.6938,-3.9038,-4.1097,-4.3552,-4.436,-4.4929,-4.5498,-4.4375,-4.3682,-4.3974,-4.4575,-4.4804,-4.4524,-4.4296,-4.4128,-4.4097,-4.4097,-4.4067,-4.4005,-4.4067,-4.4097,-4.4097,-4.4128,-4.4158,-4.4158,-4.4296,-4.4373,-4.4373,-4.4458,-4.4551,-4.4621,-4.4819,-4.4938,-4.5167,-4.6608,-4.758,-4.8274,-4.9655,-5.0613,-5.1218,-5.1292,-5.1349,-5.1394,-5.14,-5.1406,-5.1406,-5.1406,-5.0996,-5.0547,-5.0547,-4.9941,-4.9023,-4.7891,-4.7793,-4.7851,-4.7344,-4.7419,-4.7425,-4.6786,-4.6619,-4.6649,-4.6863,-4.6824,-4.6766,-4.6754,-4.6416,-4.6148,-4.6148,-4.5916,-4.5761,-4.5761,-4.5894,-4.5978,-4.5933,-4.5829,-4.5718,-4.5651,-4.562,-4.5603,-4.5635,-4.5658,-4.5733,-4.5783,-4.5917,-4.6008,-4.6054,-4.6154,-4.6196,-4.6196,-4.6196,-4.6196,-4.6196,-4.6196,-4.6196,-3.7503,-3.949,-4.113,-4.113,-3.9418,-3.7535,-3.6774,-3.4152,-3.1717,-3.1033,-3.0265,-2.9701,-2.9683,-3.0243,-3.0686,-3.0725,-3.2445,-3.4696,-3.7331,-3.9546,-4.1837,-4.4361,-4.4709,-4.4709,-4.4727,-4.4183,-4.3851,-4.4005,-4.4177,-4.4391,-4.4487,-4.4515,-4.443,-4.4314,-4.4285,-4.4207,-4.4005,-4.4207,-4.4285,-4.4285,-4.443,-4.4487,-4.4487,-4.4515,-4.4515,-4.4515,-4.4515,-4.4648,-4.4915,-4.4915,-4.5125,-4.5673,-4.7407,-4.8205,-4.8604,-5.0356,-5.1083,-5.1218,-5.1292,-5.1343,-5.1406,-5.1406,-5.1406,-5.1406,-5.1406,-5.1387,-5.1387,-5.1387,-5.0801,-4.9785,-4.8047,-4.8242,-4.8457,-4.6719,-4.6963,-4.7587,-4.7498,-4.7488,-4.7735,-4.8592,-4.866,-4.8613,-4.876,-4.7893,-4.7178,-4.7178,-4.6448,-4.5905,-4.5905,-4.5966,-4.5998,-4.5998,-4.5944,-4.5848,-4.5718,-4.5632,-4.5635,-4.5703,-4.5703,-4.5783,-4.5988,-4.5998,-4.6054,-4.6196,-4.6196,-4.6196,-4.6196,-4.6196,-4.6196,-4.6196,-4.6196,-4.6196,-3.4,-3.5239,-3.5991,-3.544,-3.4806,-3.419,-3.3481,-3.2166,-3.1042,-3.092,-3.0265,-2.9701,-2.9701,-2.987,-3.0938,-3.3808,-3.4228,-3.5492,-3.9173,-4.0552,-4.1917,-4.3852,-4.4926,-4.5094,-4.3993,-4.3713,-4.3701,-4.3974,-4.4588,-4.4785,-4.4505,-4.5021,-4.505,-4.4449,-4.443,-4.443,-4.4354,-4.4383,-4.443,-4.443,-4.4487,-4.4515,-4.4515,-4.4515,-4.4515,-4.4515,-4.4659,-4.4777,-4.4919,-4.5207,-4.5396,-4.5632,-4.7008,-4.7915,-4.8612,-4.9814,-5.0649,-5.1217,-5.1289,-5.1343,-5.1406,-5.1406,-5.1406,-5.1406,-5.1406,-5.1406,-5.1406,-5.1406,-5.082,-5.0195,-5.0195,-4.9551,-4.8769,-4.8203,-4.8248,-4.8241,-4.7619,-4.7963,-4.8475,-4.8748,-4.8772,-4.8744,-4.8787,-4.8448,-4.795,-4.7367,-4.7037,-4.6648,-4.6046,-4.6074,-4.6135,-4.6135,-4.6047,-4.5925,-4.5829,-4.5718,-4.5723,-4.5835,-4.5891,-4.5928,-4.5998,-4.6091,-4.6162,-4.6196,-4.6196,-4.6196,-4.6196,-4.6196,-4.6507,-4.7092,-4.7092,-4.7404,-3.0983,-3.2238,-3.2882,-3.2385,-3.2354,-3.227,-3.1567,-3.1057,-3.0711,-3.049,-3.0058,-2.9701,-2.9701,-3.0151,-3.1275,-3.3561,-3.4735,-3.6347,-3.9171,-4.0932,-4.2539,-4.4077,-4.4943,-4.4929,-4.3626,-4.3615,-4.3749,-4.3929,-4.4532,-4.4789,-4.4449,-4.4956,-4.5021,-4.4533,-4.4515,-4.4515,-4.4515,-4.4515,-4.4515,-4.4515,-4.4515,-4.4515,-4.4515,-4.4515,-4.4524,-4.4632,-4.4764,-4.491,0.0,-4.5414,-4.5565,-4.58,-4.6872,-4.7819,-4.865,-4.9559,-5.0464,-5.1233,-5.1278,-5.1342,-5.1406,-5.1406,-5.1406,-5.1406,-5.1406,-5.1406,-5.1406,-5.1406,-5.1035,-5.0703,-5.0898,-5.0176,-4.9296,-4.8951,-4.884,-4.8737,-4.8534,-4.8896,-4.9352,-4.9683,-4.9742,-4.9742,-4.9742,-4.9398,-4.8934,-4.8361,-4.803,-4.765,-4.7058,-4.7092,-4.717,-4.717,-4.7056,-4.6853,-4.6542,-4.6048,-4.5815,-4.5933,-4.5978,-4.6017,-4.6063,-4.6162,-4.6196,-4.6196,-4.6196,-4.6352,-4.6683,-4.7014,-4.7462,-4.7988,-4.7988,-4.828,0.0,-3.0105,-3.1246,-3.1191,-3.1321,-3.1262,-3.0516,-3.0505,0.0,-2.9758,-2.9608,-2.9664,-2.9833,-3.0956,-3.1678,-3.1229,-3.4446,-3.73,-3.8077,-4.112,-4.3669,-4.4835,-4.4851,-4.447,-4.3644,-4.3818,-4.3929,-4.3804,-4.4207,-4.443,-4.4314,-4.443,-4.4515,-4.4515,-4.4515,-4.4515,-4.4515,-4.4515,-4.4515,-4.4515,-4.4515,-4.4515,-4.4515,-4.4515,-4.4605,-4.4796,-4.4815,-4.5074,-4.55,-4.5517,-4.5722,-4.6074,-4.6968,-4.7784,-4.8619,-4.9551,-5.0445,-5.1222,-5.1272,-5.1291,-5.1307,-5.1308,-5.1308,-5.1328,-5.1387,-5.1406,-5.1406,-5.1406,-5.1406,-5.123,-5.0488,-5.0234,-4.9976,-4.9107,-4.8886,-4.9108,-4.9925,-5.0112,-5.0326,-5.1145,-5.13,-5.13,-5.13,-5.0638,-5.0057,-4.9936,-4.932,-4.883,-4.8643,-4.8716,-4.8806,-4.8806,-4.8699,-4.8331,-4.7657,-4.66,-4.6003,-4.6008,-4.6008,-4.6083,-4.6196,-4.6196,-4.6196,-4.6196,-4.6254,-4.6722,-4.7579,-4.8417,-4.8826,-4.8884,-4.8884,-4.8923,-2.5554,0.0,-2.6817,-2.6265,-2.6674,-2.7177,0.0,-2.7529,-2.8199,-2.8613,-2.8707,-2.9288,-3.1185,-3.1334,-3.212,-3.5124,-3.6921,-3.8702,-4.075,-4.3655,-4.5393,-4.4833,-4.5277,-4.5296,-4.4507,-4.3915,-4.3667,-4.3804,-4.3992,-4.4177,-4.4285,-4.443,-4.4515,-4.4515,-4.4515,-4.4515,-4.4515,-4.4515,-4.4515,-4.4515,-4.4515,-4.4515,-4.4515,-4.4515,-4.4605,-4.4815,-4.4943,-4.518,-4.5433,-4.5638,-4.5822,-4.6019,-4.6946,-4.7434,-4.7784,-4.9318,-5.0056,-5.039,-5.107,-5.0903,-5.0416,-5.0461,-5.0488,-5.0605,-5.1211,-5.1406,-5.1406,-5.1406,-5.1406,-5.1367,-5.1172,-5.0664,-5.0132,-4.9868,-4.9788,-4.9854,-5.0053,-5.0579,-5.1067,-5.1261,-5.13,-5.13,-5.13,-5.1125,-5.0766,-5.0077,-4.9831,-4.9481,-4.885,-4.8779,-4.8806,-4.8806,-4.8779,-4.8674,-4.8514,-4.7563,-4.6747,-4.6193,-4.6154,-4.6162,-4.6196,-4.6196,-4.6196,-4.6196,-4.6839,-4.7618,-4.8495,-4.869,-4.9118,-4.9722,-4.9722,-5.0073,-2.4613,-2.5127,-2.5559,-2.5217,-2.5791,-2.6442,-2.6442,-2.6833,-2.7317,-2.7768,-2.8125,-2.8932,-3.0678,-3.1579,-3.3043,-3.6066,-3.8188,-4.0546,-4.3709,-4.545,-4.6286,-4.5989,-4.5937,-4.5571,-4.4782,-4.4062,-4.3634,-4.3652,-4.3961,-4.4147,-4.4177,-4.4383,-4.4515,-4.4515,-4.4515,-4.4515,-4.4515,-4.4515,-4.4515,-4.4515,-4.4515,-4.4515,-4.4515,-4.4605,-4.4764,-4.4943,-4.5109,-4.5322,-4.5543,-4.5692,-4.5814,-4.5956,-4.6465,-4.6926,-4.7453,-4.8813,-4.9609,-5.0118,-5.1004,-5.1037,-5.0698,-5.0738,-5.0742,-5.082,-5.1269,-5.1406,-5.1406,-5.1406,-5.1406,-5.1406,-5.1406,-5.1074,-5.074,-5.0708,-5.0699,-5.0696,-5.065,-5.0989,-5.13,-5.13,-5.13,-5.13,-5.13,-5.13,-5.1145,-5.0677,-5.0599,-5.0443,-4.9995,-4.9956,-4.9956,-4.9956,-4.9956,-4.9781,-4.9372,-4.8853,-4.821,-4.7443,-4.7384,-4.7209,-4.68,-4.68,-4.68,-4.68,-4.8008,-4.8884,-4.9352,-4.9742,-5.017,-5.0599,-5.0599,-5.0852,-2.4891,-2.5585,-2.6112,-2.5839,-2.6381,-2.7018,-2.7133,-2.7059,-2.7078,-2.7434,-2.7995,-2.8801,-3.0151,-3.212,-3.4183,-3.6118,-3.897,-4.2229,-4.5923,-4.6397,-4.6601,-4.7259,-4.6488,-4.5626,-4.4947,-4.4205,-4.3686,-4.3532,-4.3961,-4.4165,-4.4005,-4.4296,-4.4487,-4.4515,-4.4515,-4.4515,-4.4515,-4.4515,-4.4515,-4.4515,-4.4515,-4.4515,-4.4515,-4.4712,-4.4895,-4.5125,-4.5241,-4.5438,-4.5684,-4.57,-4.5771,-4.5893,-4.5905,-4.6387,-4.722,-4.823,-4.9124,-4.9943,-5.083,-5.1177,-5.1211,-5.1211,-5.1211,-5.123,-5.1367,-5.1406,-5.1406,-5.1406,-5.1406,-5.1406,-5.1406,-5.1406,-5.1405,-5.1405,-5.1394,-5.1378,-5.132,-5.13,-5.13,-5.13,-5.13,-5.13,-5.13,-5.13,-5.13,-5.13,-5.13,-5.13,-5.13,-5.13,-5.13,-5.13,-5.13,-5.1008,-5.0268,-5.0209,-4.9917,-4.9216,-4.8943,-4.8475,-4.7735,-4.7696,-4.7754,-4.7871,-4.9274,-5.0073,-5.0209,-5.095,-5.13,-5.13,-5.13,-5.13,-2.5987,-2.7177,-2.7345,-2.5325,-2.5419,-2.6186,-2.6805,-2.6433,-2.6507,-2.8552,-2.8612,-2.9379,-3.2873,-3.3906,-3.5245,-3.8278,-4.039,-4.2481,-4.4934,-4.583,-4.6465,-4.7058,-4.6397,-4.5847,-4.5736,-4.4395,-4.3532,-4.3479,-4.3753,-4.3915,-4.4005,-4.4207,-4.4373,-4.4515,-4.4515,-4.4515,-4.4515,-4.4515,-4.4515,-4.4515,-4.4515,-4.4515,-4.4515,-4.4712,-4.4895,-4.5125,-4.5241,-4.5419,-4.562,-4.5684,-4.5742,-4.5827,-4.5893,-4.603,-4.6404,-4.8066,-4.8785,-4.9031,-5.0035,-5.037,-5.0371,-5.0371,-5.0371,-5.0508,-5.1191,-5.1406,-5.1406,-5.1406,-5.1406,-5.1406,-5.1406,-5.1406,-5.1405,-5.1405,-5.1394,-5.1378,-5.132,-5.13,-5.13,-5.13,-5.13,-5.13,-5.13,-5.13,-5.13,-5.13,-5.13,-5.13,-5.13,-5.13,-5.13,-5.13,-5.13,-5.1242,-5.1106,-5.1106,-5.1047,-5.093,-4.9586,-4.8748,-4.8612,-4.8592,-4.8923,-4.9605,-4.9878,-5.0365,-5.1106,-5.1222,-5.13,-5.13,-5.13,-5.13,-2.4647,-2.5911,-2.6693,-2.6004,-2.7158,-2.8408,-2.8234,-2.7917,-2.8083,-2.9622,-3.0055,-3.0968,-3.369,-3.5355,-3.7352,-4.0654,-4.218,-4.3627,-4.5408,-4.5965,-4.6596,-4.7627,-4.7058,-4.6379,-4.5938,-4.4837,-4.3975,-4.3516,-4.3686,-4.3837,-4.3883,-4.4165,-4.4314,-4.4401,-4.4458,-4.4515,-4.4515,-4.4515,-4.4515,-4.4515,-4.4515,-4.457,-4.4685,-4.487,-4.5042,-4.5218,-4.5381,-4.5513,-4.5603,-4.5637,-4.5684,-4.5757,-4.5827,-4.6164,-4.6857,-4.8719,-4.9712,-5.0227,-5.0688,-5.0859,-5.0859,-5.0859,-5.0859,-5.0918,-5.1289,-5.1406,-5.1406,-5.1406,-5.1406,-5.1406,-5.1406,-5.1406,-5.1405,-5.1405,-5.1394,-5.1378,-5.132,-5.13,-5.13,-5.13,-5.13,-5.13,-5.13,-5.13,-5.13,-5.13,-5.13,-5.13,-5.13,-5.13,-5.13,-5.13,-5.13,-5.13,-5.13,-5.13,-5.13,-5.13,-5.0131,-4.9469,-4.9508,-4.9508,-4.9683,-5.0053,-5.0521,-5.095,-5.13,-5.0833,-5.0599,-5.0599,-5.0151,-5.017,-2.3871,-2.5039,-2.6154,-2.6912,-2.8309,-2.9595,-2.9968,-2.9798,-2.9961,-3.1533,-3.2371,-3.3241,-3.4696,-3.7007,-3.9629,-4.2489,-4.3521,-4.4397,-4.5672,-4.6006,-4.6616,-4.7865,-4.7498,-4.6874,-4.625,-4.5461,-4.4654,-4.3828,-4.4113,-4.4143,-4.3822,-4.424,-4.4442,-4.4285,-4.443,-4.4515,-4.4515,-4.4515,-4.4515,-4.4515,-4.4515,-4.4605,-4.4815,-4.501,-4.5175,-4.5322,-4.5513,-4.5586,-4.5586,-4.5586,-4.5654,-4.5735,-4.5989,-4.679,-4.801,-4.9473,-5.0607,-5.1409,-5.1396,-5.1406,-5.1406,-5.1406,-5.1406,-5.1406,-5.1406,-5.1406,-5.1406,-5.1406,-5.1406,-5.1406,-5.1406,-5.1406,-5.1406,-5.1394,-5.1405,-5.1398,-5.1339,-5.132,-5.13,-5.13,-5.13,-5.13,-5.13,-5.13,-5.13,-5.13,-5.13,-5.13,-5.13,-5.13,-5.13,-5.13,-5.13,-5.13,-5.13,-5.13,-5.13,-5.13,-5.0677,-5.0326,-5.0404,-5.0404,-5.0392,-5.0394,-5.1055,-5.1378,-5.132,-5.0424,-5.0092,-5.0287,-4.9274,-4.9333,-2.5531,-2.6552,-2.689,-2.7577,-2.6811,-2.6999,-3.1379,-3.1207,-3.1225,-3.5083,-3.5975,-3.6325,-3.7114,-3.9349,-4.1575,-4.318,-4.3631,-4.4033,-4.4707,-4.5424,-4.6232,-4.7095,-4.715,-4.7095,-4.704,-4.6305,-4.548,-4.4672,-4.5314,-4.5201,-4.3878,-4.4633,-4.4879,-4.4304,-4.443,-4.4515,-4.4515,-4.4515,-4.4515,-4.4515,-4.4515,-4.4605,-4.4815,-4.501,-4.5175,-4.5322,-4.5513,-4.5586,-4.5586,-4.5586,-4.5654,-4.5777,-4.6606,-4.8053,-4.9737,-5.0013,-5.0641,-5.1405,-5.1406,-5.1406,-5.1406,-5.1406,-5.1406,-5.1406,-5.1406,-5.1406,-5.1406,-5.1406,-5.1406,-5.1406,-5.1406,-5.1406,-5.1406,-5.1406,-5.139,-5.1398,-5.1398,-5.1339,-5.13,-5.13,-5.13,-5.13,-5.13,-5.13,-5.13,-5.13,-5.13,-5.13,-5.13,-5.13,-5.13,-5.13,-5.13,-5.13,-5.13,-5.13,-5.13,-5.13,-5.1242,-5.1242,-5.13,-5.132,-5.1317,-5.1312,-5.1375,-5.1398,-5.1398,-5.0463,-5.0424,-5.1164,-4.9547,-4.9664,-2.3272,-2.5131,-2.688,-2.7653,-2.7782,-2.8529,-3.1843,-3.2908,-3.4211,-3.779,-3.8554,-3.897,-4.023,-4.1268,-4.2261,-4.3348,-4.3566,-4.386,-4.4599,-4.4966,-4.5461,-4.6269,-4.6819,-4.6911,-4.6416,-4.6544,-4.6324,-4.5516,-4.5736,-4.5717,-4.5318,-4.5745,-4.5959,-4.5779,-4.5423,-4.5247,-4.5247,-4.4759,-4.4515,-4.4515,-4.4515,-4.4685,-4.4991,-4.508,-4.5237,-4.5495,-4.5568,-4.5913,-4.6413,-4.6413,-4.6719,-4.7274,-4.8301,-4.9168,-4.9968,-5.0655,-5.1122,-5.1406,-5.1406,-5.1406,-5.1405,-5.14,-5.1394,-5.1388,-5.1347,-5.134,-5.1346,-5.1386,-5.1406,-5.1406,-5.1406,-5.1406,-5.1406,-5.1406,-5.1391,-5.1394,-5.1406,-5.1359,-5.13,-5.13,-5.13,-5.13,-5.13,-5.13,-5.13,-5.13,-5.13,-5.13,-5.13,-5.13,-5.13,-5.13,-5.13,-5.13,-5.13,-5.13,-5.13,-5.13,-5.13,-5.1339,-5.1398,-5.1401,-5.141,-5.1402,-5.1394,-5.1128,-5.0599,-4.9683,-4.943,-4.9722,-4.8534,-4.8884,-2.2319,-2.4115,-2.6093,-2.7503,-2.8374,-2.9771,-3.301,-3.4633,-3.6358,-3.9606,-4.0487,-4.1075,-4.2433,-4.247,-4.2561,-4.3369,-4.3497,-4.3681,-4.425,-4.4544,-4.4911,-4.5461,-4.6232,-4.6507,-4.5957,-4.6416,-4.6397,-4.5662,-4.6102,-4.6229,-4.5885,-4.6568,-4.6866,-4.6725,-4.6304,-4.611,-4.611,-4.5566,-4.5303,-4.5303,-4.5303,-4.5353,-4.5464,-4.5464,-4.5814,-4.6394,-4.6394,-4.6721,-4.7278,-4.7278,-4.7778,-4.8605,-4.9386,-4.9905,-5.0341,-5.1074,-5.1356,-5.132,-5.1049,-5.1146,-5.1313,-5.1051,-5.115,-5.1303,-5.0984,-5.0899,-5.0855,-5.0644,-5.0773,-5.0996,-5.1016,-5.1211,-5.1406,-5.1406,-5.1402,-5.1398,-5.1401,-5.1359,-5.1339,-5.13,-5.13,-5.13,-5.13,-5.13,-5.13,-5.13,-5.13,-5.13,-5.13,-5.13,-5.13,-5.13,-5.13,-5.13,-5.13,-5.13,-5.13,-5.13,-5.132,-5.1359,-5.1398,-5.1405,-5.1391,-5.1406,-5.1406,-5.1103,-5.0518,-4.9367,-4.9079,-4.9566,-4.8144,-4.8553,-2.3478,-2.3935,-2.4556,-2.7156,-2.8278,-3.0086,-3.5174,-3.6321,-3.7239,-4.0469,-4.1772,-4.2543,-4.3332,-4.2837,-4.2561,-4.3369,-4.3497,-4.3497,-4.3497,-4.4195,-4.4709,-4.4709,-4.5406,-4.5883,-4.5883,-4.5902,-4.5643,-4.5078,-4.6482,-4.6736,-4.5305,-4.6917,-4.7535,-4.6744,-4.6904,-4.7012,-4.7012,-4.7012,-4.7012,-4.7012,-4.7012,-4.6776,-4.6306,-4.6306,-4.6961,-4.8105,-4.8105,-4.8105,-4.8105,-4.8125,-4.8625,-4.9413,-4.9548,-5.0171,-5.0996,-5.1128,-5.1219,-5.116,-5.0288,-5.0542,-5.1141,-5.0277,-5.0586,-5.1125,-5.0242,-4.999,-4.9834,-4.9023,-4.9412,-5.0098,-5.0176,-5.0781,-5.1387,-5.1406,-5.1406,-5.1402,-5.1395,-5.1398,-5.1378,-5.132,-5.13,-5.13,-5.13,-5.13,-5.13,-5.13,-5.13,-5.13,-5.13,-5.13,-5.13,-5.13,-5.13,-5.13,-5.13,-5.13,-5.13,-5.13,-5.1359,-5.1398,-5.1398,-5.1405,-5.1391,-5.1406,-5.1406,-5.1403,-5.1375,-4.9646,-4.9671,-5.1222,-4.869,-4.8884,-2.2066,-2.4236,-2.6741,-2.8099,-3.038,-3.3148,-3.6395,-3.7569,-3.8909,-4.2121,-4.2983,-4.3222,-4.3442,-4.3296,-4.3222,-4.3442,-4.3497,-4.3497,-4.3497,-4.3699,-4.3864,-4.3864,-4.458,-4.5093,-4.5234,-4.5785,-4.6094,-4.6005,-4.6431,-4.6554,-4.6265,-4.7316,-4.7878,-4.7759,-4.7808,-4.7838,-4.7838,-4.7274,-4.7012,-4.7012,-4.7146,-4.7212,-4.7215,-4.7215,-4.7535,-4.8105,-4.8105,-4.8452,-4.9067,-4.9683,-5.0067,-5.026,-4.9798,-4.9774,-4.995,-4.9485,-4.9329,-4.9353,-4.9109,-4.9216,-4.943,-4.9168,-4.9672,-5.0212,-4.9279,-4.9446,-4.9757,-4.8968,-4.8908,-4.927,-5.0018,-5.0371,-5.0703,-5.1269,-5.1406,-5.1406,-5.1398,-5.1411,-5.1398,-5.1378,-5.1339,-5.13,-5.13,-5.13,-5.13,-5.13,-5.13,-5.13,-5.13,-5.1339,-5.1378,-5.1378,-5.1378,-5.1378,-5.1378,-5.1339,-5.13,-5.13,-5.1359,-5.1398,-5.1398,-5.1401,-5.1401,-5.1406,-5.1406,-5.1093,-5.0485,-4.9976,-4.9976,-5.0431,-4.9625,-4.9995,-2.2457,-2.4735,-2.7447,-2.961,-3.1936,-3.4651,-3.8138,-3.9551,-4.0763,-4.302,-4.3497,-4.3497,-4.3497,-4.3497,-4.3497,-4.3497,-4.3497,-4.3497,-4.3497,-4.3497,-4.3497,-4.3497,-4.392,-4.4301,-4.4491,-4.4967,-4.5345,-4.5555,-4.5866,-4.6115,-4.63,-4.7086,-4.7585,-4.7725,-4.8025,-4.8194,-4.8194,-4.8063,-4.7988,-4.8007,-4.8202,-4.8401,-4.8585,-4.8314,-4.8537,-4.9125,-4.9125,-4.9433,-4.9933,-5.0106,-5.0183,-5.0087,-4.9317,-4.9047,-4.9024,-4.8585,-4.8454,-4.847,-4.8121,-4.8269,-4.8534,-4.8216,-4.8681,-4.9237,-4.8336,-4.8444,-4.8696,-4.792,-4.7957,-4.8367,-4.9002,-4.9687,-5.0391,-5.1211,-5.1406,-5.1406,-5.1403,-5.139,-5.1395,-5.1367,-5.1339,-5.13,-5.13,-5.13,-5.13,-5.13,-5.132,-5.1339,-5.1339,-5.1378,-5.1394,-5.1401,-5.1395,-5.1401,-5.1398,-5.1339,-5.132,-5.1339,-5.1378,-5.1398,-5.1398,-5.1398,-5.1405,-5.1406,-5.1406,-5.1133,-5.0625,-5.0274,-5.0277,-5.0607,-5.019,-5.0463,-2.3987,-2.5434,-2.7308,-3.1402,-3.3285,-3.5378,-4.0052,-4.1735,-4.2525,-4.3314,-4.3497,-4.3497,-4.3497,-4.3497,-4.3497,-4.3497,-4.3497,-4.3497,-4.3497,-4.3497,-4.3497,-4.3497,-4.3497,-4.3566,-4.3771,-4.3804,-4.3947,-4.4285,-4.5006,-4.5458,-4.5585,-4.6411,-4.688,-4.688,-4.7669,-4.8082,-4.8082,-4.887,-4.9265,-4.9265,-4.9495,-4.9717,-4.986,-4.9427,-4.9754,-5.0702,-5.0606,-5.0567,-5.051,-4.9644,-4.9279,-4.9202,-4.8336,-4.8064,-4.8169,-4.8092,-4.8102,-4.8043,-4.725,-4.7502,-4.8053,-4.7314,-4.7669,-4.8225,-4.7431,-4.7229,-4.7143,-4.6404,-4.6769,-4.7416,-4.7557,-4.8789,-5.0195,-5.1074,-5.1348,-5.1405,-5.1398,-5.1406,-5.1377,-5.1316,-5.13,-5.13,-5.13,-5.13,-5.13,-5.132,-5.1359,-5.1398,-5.1406,-5.1406,-5.1408,-5.1401,-5.1396,-5.1394,-5.1406,-5.1261,-5.1242,-5.1398,-5.1339,-5.132,-5.1398,-5.1394,-5.1396,-5.1406,-5.1406,-5.1406,-5.1406,-5.0593,-5.063,-5.1378,-5.0521,-5.056,-2.4088,-2.6272,-2.8833,-3.2438,-3.5937,-3.8988,-4.0694,-4.1735,-4.2525,-4.3314,-4.3497,-4.3497,-4.3497,-4.3497,-4.3497,-4.3497,-4.3497,-4.3497,-4.3497,-4.3497,-4.3497,-4.3497,-4.3497,-4.3566,-4.3771,-4.3915,-4.4055,-4.4285,-4.457,-4.4721,-4.4777,-4.5528,-4.5979,-4.5979,-4.6805,-4.7256,-4.7256,-4.7443,-4.7537,-4.7537,-4.7894,-4.8099,-4.8186,-4.9522,-5.0329,-5.0644,-4.9971,-4.9683,-4.9606,-4.874,-4.8375,-4.8298,-4.749,-4.7181,-4.7122,-4.6429,-4.6227,-4.6252,-4.6059,-4.6162,-4.6336,-4.6156,-4.6739,-4.732,-4.6472,-4.6721,-4.7143,-4.6404,-4.6341,-4.6655,-4.74,-4.7871,-4.8555,-5.0098,-5.0937,-5.1403,-5.1394,-5.1401,-5.1401,-5.1378,-5.1339,-5.13,-5.13,-5.13,-5.132,-5.1378,-5.1398,-5.1401,-5.1391,-5.1395,-5.1406,-5.1401,-5.1405,-5.1411,-5.1406,-5.0755,-5.065,-5.1359,-5.0755,-5.0696,-5.1378,-5.1394,-5.1403,-5.1406,-5.1406,-5.1406,-5.1406,-5.121,-5.1229,-5.1398,-5.1183,-5.1164,-2.4011,-2.6523,-2.9528,-3.3826,-3.7418,-3.9978,-4.0269,-4.1342,-4.2381,-4.2681,-4.3153,-4.3497,-4.3497,-4.3497,-4.3497,-4.3497,-4.3497,-4.3497,-4.3497,-4.3497,-4.3497,-4.3497,-4.3497,-4.3582,-4.3865,-4.3942,-4.4097,-4.4373,-4.4458,-4.4515,-4.4515,-4.4909,-4.5134,-4.5134,-4.5941,-4.6392,-4.6392,-4.6805,-4.7012,-4.6993,-4.7397,-4.769,-4.7865,-4.8851,-4.9355,-4.9433,-4.8971,-4.8779,-4.8702,-4.7875,-4.7528,-4.7451,-4.6605,-4.6278,-4.622,-4.5759,-4.562,-4.5651,-4.5651,-4.5668,-4.5715,-4.5742,-4.609,-4.6448,-4.6041,-4.6263,-4.6618,-4.6288,-4.6205,-4.6323,-4.6834,-4.7285,-4.793,-4.9258,-5.0215,-5.0934,-5.1313,-5.1408,-5.1398,-5.1359,-5.1359,-5.1339,-5.132,-5.13,-5.132,-5.1398,-5.1388,-5.1394,-5.1394,-5.1396,-5.1391,-5.1406,-5.1405,-5.124,-5.0821,-5.0357,-5.0279,-5.0755,-5.0357,-5.0494,-5.1359,-5.1391,-5.1406,-5.1406,-5.1406,-5.1406,-5.1406,-5.1406,-5.1402,-5.139,-5.1395,-5.1378,-2.3744,-2.6637,-3.015,-3.5072,-3.79,-3.9488,-3.9483,-4.0711,-4.1821,-4.1886,-4.2755,-4.3497,-4.3497,-4.3497,-4.3497,-4.3497,-4.3497,-4.3497,-4.3497,-4.3497,-4.3497,-4.3497,-4.3497,-4.3615,-4.3961,-4.3974,-4.4128,-4.4458,-4.4487,-4.4515,-4.4515,-4.4515,-4.4515,-4.4515,-4.5153,-4.5491,-4.5491,-4.6223,-4.658,-4.658,-4.698,-4.7341,-4.7663,-4.7663,-4.7836,-4.8086,-4.7952,-4.7894,-4.7836,-4.7009,-4.6682,-4.6605,-4.5874,-4.5586,-4.5586,-4.5586,-4.5586,-4.5586,-4.5586,-4.5586,-4.5603,-4.5668,-4.5727,-4.58,-4.5848,-4.5941,-4.6005,-4.6152,-4.6205,-4.6225,-4.6287,-4.6836,-4.7637,-4.8652,-4.9453,-5.0233,-5.1187,-5.1394,-5.1378,-5.1339,-5.1367,-5.1386,-5.132,-5.132,-5.132,-5.1398,-5.14,-5.1401,-5.1401,-5.1391,-5.1398,-5.1394,-5.1277,-5.0879,-5.0151,-4.9827,-4.9776,-5.0088,-4.9965,-5.0342,-5.1356,-5.1396,-5.1406,-5.1406,-5.1406,-5.1406,-5.1406,-5.1404,-5.1403,-5.1405,-5.14,-5.1398,-2.3132,-2.7163,-3.1717,-3.5394,-3.7055,-3.8114,-3.9228,-3.9667,-4.0266,-4.1614,-4.2755,-4.3497,-4.3497,-4.3497,-4.3497,-4.3497,-4.3497,-4.3497,-4.3497,-4.3497,-4.3497,-4.3497,-4.3497,-4.36,-4.3804,-4.3929,-4.4097,-4.4314,-4.443,-4.4515,-4.4515,-4.4515,-4.4515,-4.4515,-4.4608,-4.4665,-4.4665,-4.4796,-4.4834,-4.4853,-4.5236,-4.5623,-4.5932,-4.5932,-4.6721,-4.8067,-4.7355,-4.7067,-4.699,-4.6124,-4.5759,-4.5759,-4.5643,-4.5586,-4.5586,-4.5586,-4.5586,-4.5586,-4.5586,-4.5586,-4.5603,-4.5603,-4.5651,-4.5731,-4.58,-4.5867,-4.5949,-4.6141,-4.6205,-4.6225,-4.6287,-4.6387,-4.6875,-4.8516,-4.8984,-4.9491,-5.105,-5.1394,-5.1398,-5.1398,-5.1395,-5.1408,-5.1386,-5.1339,-5.132,-5.1398,-5.14,-5.1405,-5.1403,-5.1406,-5.1398,-5.1394,-5.0731,-5.0224,-5.0112,-4.8716,-4.8493,-4.9996,-4.9441,-4.9764,-5.1346,-5.1406,-5.1406,-5.1406,-5.1406,-5.1406,-5.1406,-5.1401,-5.14,-5.1402,-5.1401,-5.1378,-2.4058,-2.7821,-3.1537,-3.3964,-3.5836,-3.7174,-3.761,-3.849,-3.939,-3.9949,-4.089,-4.2049,-4.3279,-4.3497,-4.3497,-4.3497,-4.3497,-4.3497,-4.3497,-4.3497,-4.3497,-4.3497,-4.3497,-4.36,-4.3897,-4.3992,-4.4097,-4.4401,-4.4458,-4.4515,-4.4515,-4.4515,-4.4515,-4.4515,-4.4515,-4.4515,-4.4515,-4.4515,-4.4605,-4.4821,-4.5033,-4.5279,-4.5586,-4.5586,-4.599,-4.6682,-4.6336,-4.6163,-4.6144,-4.5759,-4.5586,-4.5586,-4.5586,-4.5586,-4.5586,-4.5586,-4.5586,-4.5586,-4.5586,-4.5586,-4.5586,-4.5586,-4.5668,-4.5757,-4.58,-4.5861,-4.5983,-4.6152,-4.6205,-4.6225,-4.6287,-4.6308,-4.6738,-4.8496,-4.8906,-4.9352,-5.1035,-5.1401,-5.1398,-5.1398,-5.1401,-5.1394,-5.1406,-5.1339,-5.132,-5.1398,-5.14,-5.1408,-5.1406,-5.1406,-5.1402,-5.1411,-5.0628,-4.9905,-4.941,-4.8678,-4.8567,-4.9387,-4.955,-5.0156,-5.1348,-5.1406,-5.1406,-5.1406,-5.1406,-5.1402,-5.1406,-5.1395,-5.1394,-5.1408,-5.1394,-5.1378,-2.4337,-2.7028,-2.9548,-3.1989,-3.4078,-3.5654,-3.6256,-3.7399,-3.8402,-3.8667,-3.926,-4.0401,-4.2426,-4.297,-4.3171,-4.3461,-4.3497,-4.3497,-4.3497,-4.3497,-4.3497,-4.3497,-4.3497,-4.3615,-4.3974,-4.4005,-4.4128,-4.4468,-4.4515,-4.4515,-4.4515,-4.4515,-4.4515,-4.4515,-4.4515,-4.4515,-4.4515,-4.4515,-4.4712,-4.5103,-4.5103,-4.5279,-4.5586,-4.5586,-4.5586,-4.5586,-4.5586,-4.5586,-4.5586,-4.5586,-4.5586,-4.5586,-4.5586,-4.5586,-4.5586,-4.5586,-4.5586,-4.5586,-4.5586,-4.5586,-4.5586,-4.5586,-4.5668,-4.5757,-4.58,-4.588,-4.5983,-4.6152,-4.6205,-4.6225,-4.6287,-4.6308,-4.6738,-4.8496,-4.8881,-4.9332,-5.103,-5.1408,-5.1398,-5.1398,-5.1401,-5.14,-5.1406,-5.1339,-5.132,-5.1398,-5.14,-5.1408,-5.1406,-5.1406,-5.1404,-5.1398,-5.0628,-4.9839,-4.9196,-4.8925,-4.8928,-4.9192,-4.9823,-5.0566,-5.1379,-5.1398,-5.14,-5.1404,-5.1404,-5.1405,-5.1398,-5.1398,-5.1398,-5.1398,-5.1378,-5.1378,-2.2838,-2.3695,-2.4998,-2.9746,-3.1593,-3.3033,-3.5993,-3.6541,-3.6916,-3.8654,-3.8811,-3.9135,-4.058,-4.1485,-4.2321,-4.3316,-4.3497,-4.3497,-4.3497,-4.3497,-4.3497,-4.3497,-4.3497,-4.3615,-4.3974,-4.4005,-4.4128,-4.4468,-4.4515,-4.4515,-4.4515,-4.4515,-4.4515,-4.4515,-4.4515,-4.4515,-4.4515,-4.4515,-4.4712,-4.5103,-4.5103,-4.5279,-4.5586,-4.5586,-4.5586,-4.5586,-4.5586,-4.5586,-4.5586,-4.5586,-4.5586,-4.5586,-4.5586,-4.5586,-4.5586,-4.5586,-4.5586,-4.5586,-4.5586,-4.5586,-4.5586,-4.5586,-4.5603,-4.5637,-4.5757,-4.5794,-4.586,-4.613,-4.6205,-4.6225,-4.6287,-4.6308,-4.6738,-4.8496,-4.8853,-4.9283,-5.1012,-5.1406,-5.1398,-5.1398,-5.1394,-5.1396,-5.1394,-5.1339,-5.132,-5.1398,-5.14,-5.1408,-5.1406,-5.1406,-5.1404,-5.1398,-5.0621,-5.0085,-5.0034,-4.9279,-4.9157,-4.9991,-5.0144,-5.0557,-5.1374,-5.1394,-5.1401,-5.1398,-5.1398,-5.1391,-5.1398,-5.1398,-5.1398,-5.1398,-5.1339,-5.132,-2.227,-2.3601,-2.5137,-2.6907,-2.9426,-3.1835,-3.3134,-3.4938,-3.6524,-3.729,-3.781,-3.842,-3.9409,-4.0454,-4.15,-4.2564,-4.2727,-4.291,-4.3424,-4.3497,-4.3497,-4.3497,-4.3497,-4.3615,-4.3974,-4.4005,-4.4128,-4.4468,-4.4515,-4.4515,-4.4515,-4.4515,-4.4515,-4.4515,-4.4515,-4.4515,-4.4515,-4.4515,-4.4712,-4.5103,-4.5103,-4.5279,-4.5586,-4.5586,-4.5586,-4.5586,-4.5586,-4.5586,-4.5586,-4.5586,-4.5586,-4.5586,-4.5586,-4.5586,-4.5586,-4.5586,-4.5586,-4.5586,-4.5586,-4.5586,-4.5586,-4.5586,-4.5637,-4.5684,-4.5771,-4.5841,-4.5912,-4.613,-4.6205,-4.6225,-4.6287,-4.6308,-4.6599,-4.7722,-4.8837,-4.9787,-5.0388,-5.0967,-5.1411,-5.1411,-5.1398,-5.1391,-5.1401,-5.1378,-5.1378,-5.1398,-5.1401,-5.1396,-5.1406,-5.1406,-5.1406,-5.1403,-5.0625,-5.0104,-5.0104,-4.9816,-4.9796,-5.0142,-5.0668,-5.1102,-5.1378,-5.1398,-5.1394,-5.1401,-5.1401,-5.1408,-5.1398,-5.1398,-5.1378,-5.1339,-5.132,-5.13,-2.1301,-2.2649,-2.4454,-2.5515,-2.7543,-2.973,-3.1586,-3.3395,-3.4992,-3.5914,-3.6736,-3.7524,-3.8438,-3.9139,-4.0074,-4.1531,-4.1748,-4.2075,-4.2983,-4.3094,-4.3185,-4.3461,-4.3497,-4.3615,-4.3974,-4.4005,-4.4128,-4.4468,-4.4515,-4.4515,-4.4515,-4.4515,-4.4515,-4.4515,-4.4515,-4.4515,-4.4515,-4.4515,-4.4712,-4.5103,-4.5103,-4.5279,-4.5586,-4.5586,-4.5586,-4.5586,-4.5586,-4.5586,-4.5586,-4.5586,-4.5586,-4.5586,-4.5586,-4.5586,-4.5586,-4.5586,-4.5586,-4.5586,-4.5586,-4.5586,-4.5586,-4.5586,-4.5637,-4.5684,-4.5742,-4.5814,-4.5893,-4.6072,-4.6158,-4.6187,-4.6256,-4.6477,-4.683,-4.7329,-4.8561,-4.9676,-4.9909,-5.0704,-5.1366,-5.1406,-5.1386,-5.1367,-5.1401,-5.1394,-5.1408,-5.1398,-5.1398,-5.1394,-5.1405,-5.1406,-5.1406,-5.1406,-5.0878,-5.053,-5.0541,-5.0548,-5.0567,-5.0605,-5.1104,-5.1398,-5.1398,-5.1398,-5.1398,-5.1398,-5.1398,-5.1398,-5.1398,-5.1378,-5.1339,-5.13,-5.13,-5.1284,0.0,0.0,0.0,-2.5662,-2.59,-2.6662,-3.1493,-3.204,-3.2186,-3.4513,-3.5581,-3.6435,-3.7523,-3.7542,-3.8097,-4.0253,-4.0631,-4.1045,-4.2106,-4.2268,-4.2543,-4.3332,-4.3442,-4.3579,-4.3936,-4.3986,-4.4128,-4.4487,-4.4515,-4.4515,-4.4515,-4.4515,-4.4515,-4.4515,-4.4515,-4.4515,-4.4515,-4.4515,-4.4712,-4.5103,-4.5103,-4.5279,-4.5586,-4.5586,-4.5586,-4.5586,-4.5586,-4.5586,-4.5586,-4.5586,-4.5586,-4.5586,-4.5586,-4.5586,-4.5586,-4.5586,-4.5586,-4.5586,-4.5586,-4.5586,-4.5586,-4.5586,-4.5586,-4.5603,-4.5684,-4.5742,-4.5827,-4.5964,-4.6054,-4.6105,-4.6176,-4.683,-4.7431,-4.7378,-4.8017,-4.8882,-4.9687,-5.06,-5.1298,-5.1381,-5.1344,-5.1324,-5.1386,-5.1396,-5.1401,-5.1394,-5.1406,-5.1394,-5.1405,-5.1406,-5.1406,-5.1406,-5.1406,-5.1398,-5.1401,-5.1406,-5.1405,-5.1406,-5.1396,-5.1398,-5.1398,-5.1398,-5.1398,-5.1398,-5.1398,-5.1398,-5.1398,-5.132,-5.13,-5.13,-5.13,-5.1267,-2.0431,0.0,0.0,0.0,0.0,0.0,-2.7352,-2.8895,-3.0493,-3.2432,-3.364,-3.4708,-3.5903,-3.6687,-3.7326,-3.7911,-3.9016,-4.019,-4.1299,-4.1442,-4.1515,-4.1754,-4.2286,-4.2717,-4.2908,-4.3571,-4.4097,-4.4344,-4.4458,-4.4515,-4.4515,-4.4515,-4.4515,-4.4515,-4.4515,-4.4515,-4.4515,-4.4515,-4.4712,-4.5103,-4.5103,-4.5279,-4.5586,-4.5586,-4.5586,-4.5586,-4.5586,-4.5586,-4.5586,-4.5586,-4.5586,-4.5586,-4.5586,-4.5586,-4.5586,-4.5586,-4.5586,-4.5586,-4.5586,-4.5586,-4.5586,-4.5586,-4.5586,-4.5603,-4.5684,-4.5696,-4.5771,-4.5953,-4.5998,-4.6047,-4.6182,-4.6376,-4.6542,-4.6473,-4.7123,-4.7978,-4.8794,-4.9648,-5.0498,-5.1189,-5.1351,-5.1386,-5.1406,-5.1406,-5.1403,-5.1398,-5.1396,-5.14,-5.1406,-5.1406,-5.1406,-5.1406,-5.1406,-5.1406,-5.1398,-5.1396,-5.1402,-5.1406,-5.1405,-5.1394,-5.1398,-5.1398,-5.1398,-5.1398,-5.1394,-5.1396,-5.1396,-5.1388,-5.1378,-5.1378,-5.132,-5.1267,-2.0632,-2.1438,-2.2642,-2.2678,0.0,0.0,-2.5773,-2.7254,-2.8788,-3.0386,-3.1869,-3.3309,-3.4731,-3.5443,-3.6032,-3.6614,-3.7681,-3.8951,-4.04,-4.0598,-4.0726,-4.1075,-4.1515,-4.1856,-4.1994,-4.2909,-4.3565,-4.3743,-4.4224,-4.4515,-4.4515,-4.4515,-4.4515,-4.4515,-4.4515,-4.4515,-4.4515,-4.4515,-4.4712,-4.5103,-4.5103,-4.5279,-4.5586,-4.5586,-4.5586,-4.5586,-4.5586,-4.5586,-4.5586,-4.5586,-4.5586,-4.5586,-4.5586,-4.5586,-4.5586,-4.5586,-4.5586,-4.5586,-4.5586,-4.5586,-4.5586,-4.5586,-4.5586,-4.5603,-4.5654,-4.5684,-4.5727,-4.588,-4.5964,-4.6016,-4.6094,-4.6113,-4.6113,-4.6074,-4.6443,-4.7143,-4.8347,-4.9007,-4.9726,-5.1008,-5.131,-5.1379,-5.1406,-5.1406,-5.1406,-5.1406,-5.1406,-5.1406,-5.1406,-5.1406,-5.1406,-5.1406,-5.1406,-5.1406,-5.1406,-5.1406,-5.1406,-5.1406,-5.1394,-5.1391,-5.1398,-5.1398,-5.1394,-5.1408,-5.1394,-5.1391,-5.1394,-5.1394,-5.1381,-5.1359,-5.132,-5.1267,-2.0841,-2.154,-2.289,-2.3667,-2.3552,0.0,-2.5582,-2.6388,-2.712,-2.8258,-2.9947,-3.1721,-3.3332,-3.3764,-3.4261,-3.541,-3.6243,-3.7453,-3.9355,-3.9698,-4.0029,-4.0763,-4.0928,-4.1029,-4.1132,-4.2045,-4.2709,-4.2818,-4.3793,-4.4383,-4.4383,-4.4458,-4.4515,-4.4515,-4.4515,-4.4515,-4.4515,-4.4524,-4.4719,-4.5103,-4.5125,-4.53,-4.5586,-4.5586,-4.5586,-4.5586,-4.5586,-4.5586,-4.5586,-4.5586,-4.5586,-4.5586,-4.5586,-4.5586,-4.5586,-4.5586,-4.5586,-4.5586,-4.5586,-4.5586,-4.5586,-4.5586,-4.5586,-4.5586,-4.5586,-4.5654,-4.5696,-4.5786,-4.5905,-4.5997,-4.5997,-4.5997,-4.5997,-4.5997,-4.5997,-4.6482,-4.8211,-4.8599,-4.9124,-5.0853,-5.1239,-5.1313,-5.1386,-5.1406,-5.1406,-5.1406,-5.1406,-5.1406,-5.1406,-5.1406,-5.1406,-5.1406,-5.1406,-5.1406,-5.1406,-5.1406,-5.1406,-5.1405,-5.1391,-5.1391,-5.1398,-5.1398,-5.1388,-5.1406,-5.131,-5.1316,-5.1394,-5.1396,-5.1362,-5.13,-5.13,-5.1267,-2.2135,-2.2965,-2.4041,-2.3727,-2.447,0.0,-2.3695,-2.4483,-2.5551,-2.5847,-2.6489,-2.7503,-2.9233,-3.0794,-3.1656,-3.1289,-3.3561,-3.5988,-3.7734,-3.8524,-3.9001,-3.9148,-3.9735,-4.0152,-4.0184,-4.104,-4.1674,-4.1842,-4.2913,-4.3538,-4.3538,-4.4158,-4.4515,-4.4515,-4.4515,-4.4515,-4.4515,-4.4659,-4.4846,-4.5103,-4.5218,-4.5381,-4.5586,-4.5586,-4.5586,-4.5586,-4.5586,-4.5586,-4.5586,-4.5586,-4.5586,-4.5586,-4.5586,-4.5586,-4.5586,-4.5586,-4.5586,-4.5586,-4.5586,-4.5586,-4.5586,-4.5586,-4.5586,-4.5586,-4.5586,-4.5603,-4.5635,-4.5771,-4.5905,-4.5997,-4.5997,-4.5997,-4.5997,-4.5997,-4.5997,-4.6482,-4.8211,-4.8599,-4.9124,-5.0853,-5.1206,-5.1265,-5.1384,-5.1406,-5.1406,-5.1406,-5.1406,-5.1406,-5.1406,-5.1406,-5.1406,-5.1406,-5.1406,-5.1406,-5.1406,-5.1406,-5.14,-5.1408,-5.1396,-5.1391,-5.1398,-5.1398,-5.1406,-5.1401,-5.0757,-5.075,-5.1394,-5.1408,-5.1367,-5.13,-5.13,-5.1267,-2.3156,-2.3646,-2.4523,-2.4584,-2.4645,0.0,0.0,-2.4098,-2.4739,-2.5484,-2.5728,-2.6389,-2.8342,-2.9465,-3.0056,-2.9842,-3.2401,-3.4358,-3.4189,-3.6076,-3.7643,-3.8046,-3.845,-3.8854,-3.9258,-4.0148,-4.097,-4.1651,-4.2304,-4.2844,-4.3275,-4.3688,-4.4102,-4.4496,-4.4515,-4.4515,-4.4515,-4.4605,-4.4796,-4.5103,-4.5173,-4.5341,-4.5586,-4.5586,-4.5586,-4.5586,-4.5586,-4.5586,-4.5586,-4.5586,-4.5586,-4.5586,-4.5586,-4.5586,-4.5586,-4.5586,-4.5586,-4.5586,-4.5586,-4.5586,-4.5586,-4.5586,-4.5586,-4.5586,-4.5586,-4.5654,-4.5696,-4.5786,-4.5905,-4.5997,-4.5997,-4.5997,-4.5997,-4.5997,-4.5997,-4.6482,-4.8211,-4.8599,-4.9124,-5.0853,-5.1202,-5.1238,-5.1336,-5.1372,-5.1406,-5.1406,-5.1406,-5.1406,-5.1406,-5.1406,-5.1406,-5.1406,-5.1402,-5.1394,-5.1394,-5.1371,-5.1342,-5.1346,-5.1359,-5.1352,-5.1349,-5.1377,-5.1405,-5.1394,-5.0992,-5.0778,-5.0754,-5.118,-5.1378,-5.13,-5.13,-5.1284,-2.4391,-2.456,-2.5203,-2.5524,-2.5009,-2.4386,0.0,0.0,0.0,-2.5205,-2.5312,-2.5754,-2.7518,-2.8011,-2.8215,-2.8368,-3.0909,-3.2198,-3.0215,-3.2912,-3.5449,-3.6402,-3.6934,-3.7411,-3.7955,-3.8575,-3.9592,-4.1176,-4.1143,-4.156,-4.275,-4.3125,-4.3595,-4.4252,-4.4421,-4.4515,-4.4515,-4.4542,-4.4738,-4.5038,-4.5106,-4.5279,-4.5531,-4.5586,-4.5586,-4.5586,-4.5586,-4.5586,-4.5586,-4.5586,-4.5586,-4.5586,-4.5586,-4.5586,-4.5586,-4.5586,-4.5586,-4.5586,-4.5586,-4.5586,-4.5586,-4.5586,-4.5586,-4.5586,-4.5586,-4.57,-4.58,-4.58,-4.5905,-4.5997,-4.5997,-4.5997,-4.5997,-4.5997,-4.5997,-4.6424,-4.8017,-4.8483,-4.9066,-5.0639,-5.1086,-5.1222,-5.128,-5.133,-5.1364,-5.1406,-5.1406,-5.1406,-5.1406,-5.1406,-5.1406,-5.1406,-5.14,-5.1395,-5.1408,-5.1345,-5.1317,-5.1297,-5.1302,-5.1308,-5.1308,-5.1359,-5.1396,-5.1406,-5.1074,-5.0641,-5.009,-5.0465,-5.0794,-5.1047,-5.1222,-5.13,-2.6539,-2.686,-2.7148,-2.5913,-2.6471,-2.6488,-2.3291,0.0,-2.4291,-2.313,0.0,-2.318,-2.3605,0.0,0.0,-2.4206,-2.7167,-2.891,-2.7063,-2.9052,-3.1271,-3.2785,-3.4816,-3.5903,-3.5467,-3.5026,-3.6081,-3.9184,-3.8264,-3.8602,-4.0966,-4.2487,-4.3332,-4.3426,-4.4139,-4.4515,-4.4515,-4.4685,-4.477,-4.4821,-4.5135,-4.5302,-4.5342,-4.5513,-4.5586,-4.5586,-4.5586,-4.5586,-4.5586,-4.5586,-4.5586,-4.5586,-4.5586,-4.5586,-4.5586,-4.5586,-4.5586,-4.5586,-4.5586,-4.5586,-4.5586,-4.5586,-4.5586,-4.5586,-4.5586,-4.57,-4.58,-4.58,-4.5905,-4.5997,-4.5997,-4.5997,-4.5997,-4.5997,-4.5997,-4.6268,-4.724,-4.8055,-4.8891,-4.9862,-5.0678,-5.1202,-5.1202,-5.1219,-5.1269,-5.1386,-5.1406,-5.1406,-5.1406,-5.1406,-5.1406,-5.1406,-5.1405,-5.141,-5.14,-5.14,-5.1356,-5.1302,-5.1291,-5.1307,-5.1297,-5.1352,-5.1406,-5.1406,-4.9941,-4.9489,-5.009,-4.8658,-4.8697,-5.017,-5.095,-5.13,-2.6894,-2.7111,-2.7408,-2.6978,-2.6538,-2.5782,-2.3988,-2.3451,-2.3379,-2.36,0.0,0.0,0.0,0.0,0.0,0.0,-2.6128,-2.7356,-2.5398,-2.747,-2.9646,-3.0862,-3.1774,-3.2819,-3.4045,-3.4134,-3.5118,-3.7541,-3.6373,-3.6873,-3.9934,-4.076,-4.1811,-4.3238,-4.3632,-4.4026,-4.4515,-4.4578,-4.4667,-4.4796,-4.4948,-4.5087,-4.5175,-4.5361,-4.5419,-4.5438,-4.555,-4.5586,-4.5586,-4.5586,-4.5586,-4.5586,-4.5476,-4.5495,-4.5586,-4.5586,-4.5586,-4.5586,-4.5586,-4.5586,-4.5586,-4.5586,-4.5586,-4.5586,-4.5586,-4.57,-4.58,-4.58,-4.5905,-4.5997,-4.5997,-4.5997,-4.5997,-4.5997,-4.5997,-4.623,-4.7104,-4.7589,-4.825,-4.9629,-5.0192,-5.06,-5.1105,-5.1208,-5.1249,-5.1381,-5.1408,-5.1406,-5.1406,-5.1406,-5.1406,-5.1406,-5.1379,-5.1342,-5.1331,-5.1316,-5.1275,-5.1239,-5.1271,-5.1328,-5.1367,-5.0939,-5.0703,-5.0703,-4.9512,-4.8806,-4.8587,-4.8365,-4.8366,-4.8573,-4.943,-5.0092,-2.7633,-2.7634,-2.7715,-2.7353,-2.6314,-2.5112,-2.4048,-2.3346,-2.3139,-2.4002,-2.3801,0.0,0.0,0.0,-2.441,-2.3977,0.0,-2.6182,-2.4402,-2.6074,-2.7797,-2.8579,-2.8966,-3.0093,-3.2375,-3.2228,-3.2982,-3.5465,-3.4027,-3.4745,-3.8694,-3.9107,-4.0272,-4.2543,-4.305,-4.3576,-4.4177,-4.4402,-4.4578,-4.4738,-4.4719,-4.4827,-4.5014,-4.5135,-4.5161,-4.518,-4.5419,-4.5495,-4.5476,-4.5568,-4.5586,-4.5586,-4.5438,-4.5476,-4.5586,-4.555,-4.5513,-4.5532,-4.5586,-4.5586,-4.5586,-4.5586,-4.5586,-4.5586,-4.5586,-4.5684,-4.5771,-4.58,-4.5873,-4.5975,-4.5997,-4.5997,-4.5997,-4.5997,-4.5997,-4.6171,-4.6812,-4.7123,-4.7667,-4.893,-4.9376,-4.9745,-5.0386,-5.0872,-5.1241,-5.1338,-5.1343,-5.1359,-5.1361,-5.1386,-5.1386,-5.1363,-5.1352,-5.1308,-5.1269,-5.124,-5.1202,-5.1202,-5.1039,-5.0964,-5.1035,-5.0266,-4.9844,-4.9844,-4.8984,-4.82,-4.7494,-4.7891,-4.7878,-4.7521,-4.8397,-4.9118,-2.9526,-2.9237,-2.8469,-2.6475,-2.6082,-2.5411,-2.2615,-2.3244,-2.4222,-2.3562,-2.4526,-2.5287,-2.4642,-2.4773,-2.4728,-2.4019,-2.4813,0.0,0.0,-2.4316,-2.4854,-2.5198,-2.6798,-2.8453,-2.9951,-2.7942,-2.832,-3.2588,-3.066,-3.1582,-3.6911,-3.7925,-3.9126,-4.0835,-4.2449,-4.3313,-4.3332,-4.412,-4.4515,-4.4515,-4.4503,-4.461,-4.4796,-4.4814,-4.4819,-4.4825,-4.518,-4.5243,-4.514,-4.5476,-4.5586,-4.5586,-4.5586,-4.5586,-4.5568,-4.5362,-4.5322,-4.5342,-4.5531,-4.5586,-4.5586,-4.5586,-4.5586,-4.5586,-4.5586,-4.5654,-4.5731,-4.5786,-4.5854,-4.5929,-4.5986,-4.5997,-4.5997,-4.5997,-4.5997,-4.6016,-4.6035,-4.6696,-4.7317,-4.7376,-4.8055,-4.8658,-4.8677,-5.0076,-5.1202,-5.1202,-5.121,-5.1225,-5.1297,-5.1355,-5.1382,-5.1308,-5.1366,-5.135,-5.1214,-5.1202,-5.1202,-5.1202,-5.0466,-5.0063,-5.0137,-4.9375,-4.8945,-4.8945,-4.8086,-4.7595,-4.7494,-4.6683,-4.6702,-4.7521,-4.8397,-4.8806,-2.9413,-2.9132,-2.8433,-2.745,-2.6401,-2.5143,-2.3424,-2.3489,-2.3768,-2.324,-2.4277,-2.5112,-2.4596,-2.4581,-2.4432,-2.3699,-2.4061,-2.4104,0.0,-2.3466,-2.3871,-2.4068,-2.5714,-2.7004,-2.7505,-2.7396,-2.8419,-3.1139,-3.0568,-3.1648,-3.5259,-3.6761,-3.8263,-3.9934,-4.106,-4.2187,-4.3294,-4.3576,-4.397,-4.4515,-4.4393,-4.4393,-4.4468,-4.4476,-4.4519,-4.4624,-4.4849,-4.5074,-4.5243,-4.5342,-4.5495,-4.5586,-4.5438,-4.54,-4.5419,-4.5457,-4.5495,-4.5513,-4.5568,-4.5586,-4.5586,-4.5586,-4.5586,-4.5586,-4.5586,-4.5654,-4.5696,-4.5727,-4.5786,-4.5854,-4.5929,-4.5922,-4.5953,-4.5997,-4.5997,-4.5997,-4.5997,-4.623,-4.6618,-4.7201,-4.755,-4.792,-4.8502,-4.9085,-4.9493,-4.9551,-5.004,-5.0402,-5.0442,-5.1003,-5.1382,-5.1376,-5.1353,-5.1319,-5.128,-5.1241,-5.1202,-5.1202,-5.0431,-5.0036,-5.0097,-4.8769,-4.8047,-4.8047,-4.7187,-4.6716,-4.6632,-4.6351,-4.6352,-4.6644,-4.6936,-4.7384,-2.9395,-2.9172,-2.8542,-2.7807,-2.6832,-2.5667,-2.4175,-2.4316,-2.4654,-2.4248,-2.5096,-2.5963,-2.6083,-2.5454,-2.4729,-2.4255,-2.392,-2.3485,0.0,-2.3093,-2.3414,-2.3522,-2.4661,-2.5423,-2.5357,-2.6257,-2.7607,-2.9508,-2.9641,-3.1089,-3.4433,-3.5615,-3.7099,-3.907,-4.0215,-4.1454,-4.2825,-4.3144,-4.3707,-4.4515,-4.4296,-4.4237,-4.4285,-4.4229,-4.425,-4.4346,-4.4643,-4.4868,-4.503,-4.5222,-4.5381,-4.5495,-4.5419,-4.5419,-4.5419,-4.5476,-4.555,-4.5586,-4.5586,-4.5586,-4.5586,-4.5586,-4.5586,-4.5586,-4.5586,-4.5637,-4.5668,-4.57,-4.5727,-4.5786,-4.5854,-4.5873,-4.5898,-4.5944,-4.5986,-4.5997,-4.5997,-4.5997,-4.6171,-4.6735,-4.6832,-4.7026,-4.757,-4.7686,-4.79,-4.8561,-4.9132,-4.9501,-4.9501,-5.0056,-5.0561,-5.0833,-5.0853,-5.095,-5.1241,-5.1222,-5.1066,-5.0763,-4.9986,-4.9437,-4.9196,-4.7867,-4.7139,-4.7105,-4.6558,-4.6237,-4.6197,-4.6176,-4.6158,-4.6127,-4.6102,-4.6385]}]]